[[{"header":{"parameterUnit":"m.s-1","parameterCategory":1,"la1":30.6,"la2":29.2853,"lo1":-89.7004,"lo2":-87.6739,"dy":0.0162,"dx":0.0183,"nx":112,"ny":82,"refTime":"2024-03-14T06:00:00:Z","depth":0,"parameterNumber":2,"parameterNumberName":"U-component_of_WINDS"},"data":[0.0,0.0,0.0,0.0,0.0,0.0,0.0,0.0,0.0,0.0,0.0,0.0,0.0,0.0,0.0,0.0,0.0,0.0,0.0,0.0,0.0,0.0,0.0,0.0,0.0,0.0,0.0,0.0,0.0,0.0,0.0,0.0,0.0,0.0,0.0,0.0,0.0,0.0,0.0,0.0,0.0,0.0,0.0,0.0,0.0,0.0,0.0,0.0,0.0,0.0,0.0,0.0,0.0,0.0,0.0,0.0,0.0,0.0,0.0,0.0,0.0,0.0,0.0,0.0,0.0,0.0,0.0,0.0,0.0,0.0,0.0,0.0,0.0,0.0,0.0,0.0,0.0,0.0,0.0,0.0,0.0,0.0,0.0,0.0,0.0,0.0,0.0,0.0,0.0,0.0,4.2695,4.3454,4.3771,4.3949,4.3949,4.3695,4.3655,4.385,0.0,0.0,0.0,0.0,0.0,0.0,0.0,0.0,0.0,0.0,0.0,0.0,0.0,0.0,0.0,0.0,0.0,0.0,0.0,0.0,0.0,0.0,0.0,0.0,0.0,0.0,0.0,0.0,0.0,0.0,0.0,0.0,0.0,0.0,0.0,0.0,0.0,0.0,0.0,0.0,0.0,0.0,0.0,0.0,0.0,0.0,0.0,0.0,0.0,0.0,0.0,0.0,0.0,0.0,0.0,0.0,0.0,0.0,0.0,0.0,0.0,0.0,0.0,0.0,0.0,0.0,0.0,0.0,0.0,0.0,0.0,0.0,0.0,0.0,0.0,0.0,0.0,0.0,0.0,0.0,0.0,0.0,0.0,0.0,0.0,0.0,0.0,0.0,0.0,0.0,0.0,0.0,0.0,0.0,0.0,0.0,0.0,0.0,0.0,0.0,0.0,0.0,0.0,0.0,4.2555,4.3188,4.3508,4.3658,4.3658,4.3404,4.329,4.3319,0.0,0.0,0.0,0.0,0.0,0.0,0.0,0.0,0.0,0.0,0.0,0.0,0.0,0.0,0.0,0.0,0.0,0.0,0.0,0.0,0.0,0.0,0.0,0.0,0.0,0.0,0.0,0.0,0.0,0.0,0.0,0.0,0.0,0.0,0.0,0.0,0.0,0.0,0.0,0.0,0.0,0.0,0.0,0.0,0.0,0.0,0.0,0.0,0.0,0.0,0.0,0.0,0.0,0.0,0.0,0.0,0.0,0.0,0.0,0.0,0.0,0.0,0.0,0.0,0.0,0.0,0.0,0.0,0.0,0.0,0.0,0.0,0.0,0.0,0.0,0.0,0.0,0.0,0.0,0.0,0.0,0.0,0.0,0.0,0.0,0.0,0.0,0.0,0.0,0.0,0.0,0.0,0.0,0.0,0.0,0.0,0.0,0.0,0.0,0.0,0.0,0.0,0.0,4.242,4.2602,4.2905,4.3192,4.3386,4.3386,4.3096,4.2991,4.3207,4.2878,0.0,0.0,0.0,0.0,0.0,0.0,0.0,0.0,0.0,0.0,0.0,0.0,0.0,0.0,0.0,0.0,0.0,0.0,0.0,0.0,0.0,0.0,0.0,0.0,0.0,0.0,0.0,0.0,0.0,0.0,0.0,0.0,0.0,0.0,0.0,0.0,0.0,0.0,0.0,0.0,0.0,0.0,0.0,0.0,0.0,0.0,0.0,0.0,0.0,0.0,0.0,0.0,0.0,0.0,0.0,0.0,0.0,0.0,0.0,0.0,0.0,0.0,0.0,0.0,0.0,0.0,0.0,0.0,0.0,0.0,0.0,0.0,0.0,0.0,0.0,0.0,0.0,0.0,0.0,0.0,0.0,0.0,0.0,0.0,0.0,0.0,0.0,0.0,0.0,0.0,0.0,0.0,0.0,0.0,0.0,0.0,0.0,0.0,0.0,0.0,0.0,0.0,4.1987,4.2269,4.2323,4.2577,4.2739,4.2739,4.2479,4.2471,4.278,4.2382,0.0,0.0,0.0,0.0,0.0,0.0,0.0,0.0,0.0,0.0,0.0,0.0,0.0,0.0,0.0,0.0,0.0,0.0,0.0,0.0,0.0,0.0,0.0,0.0,0.0,0.0,0.0,0.0,0.0,0.0,0.0,0.0,0.0,0.0,0.0,0.0,0.0,0.0,0.0,0.0,0.0,0.0,0.0,0.0,0.0,0.0,0.0,0.0,0.0,0.0,0.0,0.0,0.0,0.0,0.0,0.0,0.0,0.0,0.0,0.0,0.0,0.0,0.0,0.0,0.0,0.0,0.0,0.0,0.0,0.0,0.0,0.0,0.0,0.0,0.0,0.0,0.0,0.0,0.0,0.0,0.0,0.0,0.0,0.0,0.0,0.0,0.0,0.0,0.0,0.0,0.0,0.0,0.0,0.0,0.0,0.0,0.0,0.0,0.0,0.0,0.0,0.0,4.092,4.1032,4.1268,4.1332,4.1319,4.1319,4.1309,4.1416,4.1594,4.1558,0.0,0.0,0.0,0.0,0.0,0.0,0.0,0.0,0.0,0.0,0.0,0.0,0.0,0.0,0.0,0.0,0.0,0.0,0.0,0.0,0.0,0.0,0.0,0.0,0.0,0.0,0.0,0.0,0.0,0.0,0.0,0.0,0.0,0.0,0.0,0.0,0.0,0.0,0.0,0.0,0.0,0.0,0.0,0.0,0.0,0.0,0.0,0.0,0.0,0.0,0.0,0.0,0.0,0.0,0.0,0.0,0.0,0.0,0.0,0.0,0.0,0.0,0.0,0.0,0.0,0.0,0.0,0.0,0.0,0.0,0.0,0.0,0.0,0.0,0.0,0.0,0.0,0.0,0.0,0.0,0.0,0.0,0.0,0.0,0.0,0.0,0.0,0.0,0.0,0.0,0.0,0.0,0.0,0.0,0.0,0.0,0.0,0.0,0.0,0.0,0.0,0.0,4.0447,4.04,4.0903,4.0957,4.0771,4.0349,4.0331,4.0349,4.0466,0.0,0.0,0.0,0.0,0.0,0.0,0.0,0.0,0.0,0.0,0.0,0.0,0.0,0.0,0.0,0.0,0.0,0.0,0.0,0.0,0.0,0.0,0.0,0.0,0.0,0.0,0.0,0.0,0.0,0.0,0.0,0.0,0.0,0.0,0.0,0.0,0.0,0.0,0.0,0.0,0.0,0.0,0.0,0.0,0.0,0.0,0.0,0.0,0.0,0.0,0.0,0.0,0.0,0.0,0.0,0.0,0.0,0.0,0.0,0.0,0.0,0.0,0.0,0.0,0.0,0.0,0.0,0.0,0.0,0.0,0.0,0.0,0.0,0.0,0.0,0.0,0.0,0.0,0.0,0.0,0.0,0.0,0.0,0.0,0.0,0.0,0.0,0.0,0.0,0.0,0.0,0.0,0.0,0.0,0.0,0.0,0.0,0.0,0.0,0.0,0.0,0.0,3.9604,3.9108,3.8923,3.9631,3.9731,3.9425,3.8698,3.8632,3.8764,3.8877,0.0,0.0,0.0,0.0,0.0,0.0,0.0,0.0,0.0,0.0,0.0,0.0,0.0,0.0,0.0,0.0,0.0,0.0,0.0,0.0,0.0,0.0,0.0,0.0,0.0,0.0,0.0,0.0,0.0,0.0,0.0,0.0,0.0,0.0,0.0,0.0,0.0,0.0,0.0,0.0,0.0,0.0,0.0,0.0,0.0,0.0,0.0,0.0,0.0,0.0,0.0,0.0,0.0,0.0,0.0,0.0,0.0,0.0,0.0,0.0,0.0,0.0,0.0,0.0,0.0,0.0,0.0,0.0,0.0,0.0,0.0,0.0,0.0,0.0,0.0,0.0,0.0,0.0,0.0,0.0,0.0,0.0,0.0,0.0,0.0,0.0,0.0,0.0,0.0,0.0,0.0,0.0,0.0,0.0,0.0,0.0,0.0,0.0,0.0,0.0,0.0,0.0,3.7294,3.669,3.6485,3.7297,3.7334,3.7052,3.6233,3.6136,3.6401,0.0,0.0,0.0,0.0,0.0,0.0,0.0,0.0,0.0,0.0,0.0,0.0,0.0,0.0,0.0,0.0,0.0,0.0,0.0,0.0,0.0,0.0,0.0,0.0,0.0,0.0,0.0,0.0,0.0,0.0,0.0,0.0,0.0,0.0,0.0,0.0,0.0,0.0,0.0,0.0,0.0,0.0,0.0,0.0,0.0,0.0,0.0,0.0,0.0,0.0,0.0,0.0,0.0,0.0,0.0,0.0,0.0,0.0,0.0,0.0,0.0,0.0,0.0,0.0,0.0,0.0,0.0,0.0,0.0,0.0,0.0,0.0,0.0,0.0,0.0,0.0,0.0,0.0,0.0,0.0,0.0,0.0,0.0,0.0,0.0,0.0,0.0,0.0,0.0,0.0,0.0,0.0,0.0,0.0,0.0,0.0,0.0,0.0,0.0,0.0,0.0,0.0,0.0,3.57,3.5194,3.4897,3.5148,3.5138,3.4697,3.3528,3.3423,3.3704,3.4295,0.0,0.0,0.0,0.0,0.0,0.0,0.0,0.0,0.0,0.0,0.0,0.0,0.0,0.0,0.0,0.0,0.0,0.0,0.0,0.0,0.0,0.0,0.0,0.0,0.0,0.0,0.0,0.0,0.0,0.0,0.0,0.0,0.0,0.0,0.0,0.0,0.0,0.0,0.0,0.0,0.0,0.0,0.0,0.0,0.0,0.0,0.0,0.0,0.0,0.0,0.0,0.0,0.0,0.0,0.0,0.0,0.0,0.0,0.0,0.0,0.0,0.0,0.0,0.0,0.0,0.0,0.0,0.0,0.0,0.0,0.0,0.0,0.0,0.0,0.0,0.0,0.0,0.0,0.0,0.0,0.0,0.0,0.0,0.0,0.0,0.0,0.0,0.0,0.0,0.0,0.0,0.0,0.0,0.0,0.0,0.0,0.0,0.0,0.0,0.0,0.0,0.0,3.4138,3.3268,3.2749,3.2989,3.3,3.2597,3.1527,3.1164,3.1035,3.1448,0.0,0.0,0.0,0.0,0.0,0.0,0.0,0.0,0.0,0.0,0.0,0.0,0.0,0.0,0.0,0.0,0.0,0.0,0.0,0.0,0.0,0.0,0.0,0.0,0.0,0.0,0.0,0.0,0.0,0.0,0.0,0.0,0.0,0.0,0.0,0.0,0.0,0.0,0.0,0.0,0.0,0.0,0.0,0.0,0.0,0.0,0.0,0.0,0.0,0.0,0.0,0.0,0.0,0.0,0.0,0.0,0.0,0.0,0.0,0.0,0.0,0.0,0.0,0.0,0.0,0.0,0.0,0.0,0.0,0.0,0.0,0.0,0.0,0.0,0.0,0.0,0.0,0.0,0.0,0.0,0.0,0.0,0.0,0.0,0.0,0.0,0.0,0.0,0.0,0.0,0.0,0.0,0.0,0.0,0.0,0.0,0.0,0.0,0.0,0.0,0.0,0.0,3.2352,3.0939,3.0063,3.068,3.076,3.0419,2.9772,2.8903,2.8445,2.848,0.0,0.0,0.0,0.0,0.0,0.0,0.0,0.0,0.0,0.0,0.0,0.0,0.0,0.0,0.0,0.0,0.0,0.0,0.0,0.0,0.0,0.0,0.0,0.0,0.0,0.0,0.0,0.0,0.0,0.0,0.0,0.0,0.0,0.0,0.0,0.0,0.0,0.0,0.0,0.0,0.0,0.0,0.0,0.0,0.0,0.0,0.0,0.0,0.0,0.0,0.0,0.0,0.0,0.0,0.0,0.0,0.0,0.0,0.0,0.0,4.4935,4.5125,0.0,0.0,0.0,0.0,0.0,0.0,0.0,0.0,0.0,0.0,0.0,0.0,0.0,0.0,0.0,0.0,0.0,0.0,0.0,0.0,0.0,0.0,0.0,0.0,0.0,0.0,0.0,0.0,0.0,0.0,0.0,0.0,0.0,0.0,0.0,0.0,0.0,0.0,0.0,0.0,2.918,2.7965,2.7082,2.6687,2.6676,2.6389,2.5802,2.5535,2.5587,2.6128,2.6163,0.0,0.0,0.0,0.0,0.0,0.0,0.0,0.0,0.0,0.0,0.0,0.0,0.0,0.0,0.0,0.0,0.0,0.0,0.0,0.0,0.0,0.0,0.0,0.0,0.0,0.0,0.0,0.0,0.0,0.0,0.0,0.0,0.0,0.0,0.0,0.0,0.0,0.0,0.0,0.0,0.0,0.0,0.0,0.0,0.0,0.0,0.0,0.0,0.0,0.0,0.0,0.0,0.0,0.0,0.0,0.0,0.0,0.0,0.0,4.5457,4.5496,0.0,0.0,0.0,0.0,0.0,0.0,0.0,0.0,0.0,0.0,0.0,0.0,0.0,0.0,0.0,0.0,0.0,0.0,0.0,0.0,0.0,0.0,0.0,0.0,0.0,0.0,0.0,0.0,0.0,0.0,0.0,0.0,0.0,0.0,0.0,0.0,0.0,0.0,0.0,0.0,2.7359,2.6229,2.5346,2.5031,2.4994,2.4866,2.4535,2.408,2.3947,2.4286,2.3804,0.0,0.0,0.0,0.0,0.0,0.0,0.0,0.0,0.0,0.0,0.0,0.0,0.0,0.0,0.0,0.0,0.0,0.0,0.0,0.0,0.0,0.0,0.0,0.0,0.0,0.0,0.0,0.0,0.0,0.0,0.0,0.0,0.0,0.0,0.0,0.0,0.0,0.0,0.0,0.0,0.0,0.0,0.0,0.0,0.0,0.0,0.0,0.0,0.0,0.0,0.0,0.0,0.0,4.5657,4.5979,4.6099,4.6035,4.5836,4.5539,4.5477,4.5373,4.5235,4.5491,0.0,0.0,0.0,0.0,0.0,0.0,0.0,0.0,0.0,0.0,0.0,0.0,0.0,0.0,0.0,0.0,0.0,0.0,0.0,0.0,0.0,0.0,3.3282,3.2664,3.1596,3.0719,3.0878,0.0,0.0,0.0,0.0,0.0,0.0,0.0,0.0,0.0,0.0,0.0,2.5948,2.4671,2.379,2.379,2.361,2.3495,2.3495,2.2799,2.2311,2.2335,2.1526,2.1482,0.0,0.0,0.0,0.0,0.0,0.0,0.0,0.0,0.0,0.0,0.0,0.0,0.0,0.0,0.0,0.0,0.0,0.0,0.0,0.0,0.0,0.0,0.0,0.0,0.0,0.0,0.0,0.0,0.0,0.0,0.0,0.0,4.1091,4.1101,0.0,0.0,0.0,0.0,0.0,0.0,0.0,0.0,0.0,0.0,0.0,0.0,0.0,4.3831,4.4681,4.4637,4.4993,4.5772,4.5692,4.566,4.5689,4.566,4.5552,4.5341,4.5323,0.0,4.5192,4.5237,0.0,0.0,0.0,0.0,0.0,0.0,0.0,0.0,0.0,0.0,0.0,0.0,0.0,0.0,0.0,0.0,0.0,0.0,0.0,0.0,0.0,0.0,3.2132,3.1328,3.0519,2.9459,2.8108,2.8905,2.9872,2.9808,2.853,2.7497,0.0,0.0,0.0,0.0,0.0,0.0,2.3836,2.2092,2.0872,2.0872,2.0073,1.9579,1.9579,1.9405,1.9348,1.941,1.9279,1.9274,1.9405,1.9225,0.0,0.0,0.0,0.0,0.0,0.0,0.0,0.0,0.0,0.0,0.0,0.0,0.0,0.0,0.0,0.0,0.0,0.0,0.0,0.0,0.0,0.0,0.0,0.0,0.0,0.0,0.0,0.0,0.0,4.1108,4.1103,4.1108,4.1094,4.1104,0.0,0.0,0.0,0.0,0.0,0.0,0.0,0.0,0.0,4.4197,4.4285,4.4713,4.5501,4.5424,4.5618,4.6065,4.5902,4.5859,4.5928,4.5859,4.5689,4.5464,4.5398,4.5283,4.5148,4.522,4.5323,4.54,0.0,0.0,0.0,0.0,4.4452,4.4261,4.3799,4.3228,4.2681,4.2487,0.0,0.0,0.0,0.0,0.0,0.0,0.0,3.6338,3.4996,3.3281,3.1596,3.0519,2.9213,2.8119,2.7336,2.6942,2.6885,2.7383,2.6826,2.6345,2.6345,2.5597,0.0,0.0,0.0,2.1878,2.1105,2.0051,1.943,1.943,1.9023,1.8816,1.8816,1.8764,1.8848,1.876,1.8245,1.8179,1.8793,1.8239,1.8388,0.0,0.0,0.0,0.0,0.0,0.0,0.0,0.0,0.0,0.0,0.0,0.0,0.0,0.0,0.0,0.0,0.0,0.0,0.0,0.0,0.0,0.0,0.0,0.0,0.0,0.0,0.0,0.0,4.1094,4.1094,4.1094,4.1283,4.1414,0.0,0.0,0.0,0.0,0.0,0.0,4.3897,4.3923,4.4292,4.5055,4.5173,4.5504,4.6047,4.6037,4.6093,4.6196,4.6093,4.6084,4.6146,4.6056,4.5847,4.558,4.5468,4.5323,4.5129,4.5203,4.5243,4.5199,4.5025,4.4922,4.4805,4.4261,4.4042,4.3949,4.3456,4.2978,4.2526,4.2121,4.17,4.1258,4.1013,0.0,0.0,0.0,0.0,3.5995,3.4057,3.251,3.1214,2.9999,2.8438,2.7092,2.6928,2.5589,2.4659,2.5326,2.5052,2.4787,2.4787,2.3978,0.0,2.2133,2.115,2.018,1.9222,1.8688,1.8427,1.8427,1.8149,1.8048,1.8048,1.8048,1.7986,1.8062,1.7338,1.7223,1.7961,1.7269,1.7421,1.8403,0.0,0.0,0.0,0.0,0.0,0.0,0.0,0.0,0.0,0.0,0.0,0.0,0.0,0.0,0.0,0.0,0.0,0.0,0.0,0.0,0.0,0.0,0.0,0.0,0.0,0.0,0.0,0.0,0.0,4.1107,4.1768,0.0,0.0,0.0,0.0,4.3546,4.3543,4.3919,4.48,4.4835,4.5226,4.6098,4.6137,4.6157,4.6196,4.6196,4.6196,4.6196,4.6196,4.613,4.6007,4.6007,4.5829,4.5507,4.549,4.5381,4.5192,4.5129,4.518,4.5246,4.4946,4.4798,4.4729,4.3999,4.3645,4.3471,4.3069,4.2616,4.2157,4.17,4.123,4.0659,3.9645,3.9595,0.0,0.0,3.626,3.5409,3.3476,3.196,3.0745,2.9922,2.8438,2.6928,2.608,2.5158,2.4498,2.4584,2.3096,2.1952,2.1952,0.0,2.0322,2.0068,1.9795,1.9521,1.9247,1.8149,1.7419,1.7419,1.6487,1.592,1.592,1.592,1.592,1.5927,1.5913,1.5913,1.5927,1.5927,1.6365,1.7323,1.739,0.0,0.0,0.0,0.0,0.0,0.0,0.0,0.0,0.0,0.0,0.0,0.0,0.0,0.0,0.0,0.0,0.0,0.0,0.0,0.0,0.0,0.0,0.0,0.0,0.0,0.0,0.0,0.0,4.1945,4.2643,0.0,4.3222,4.3455,4.3821,4.4387,4.4434,4.4812,4.5689,4.5748,4.5884,4.6196,4.6196,4.6196,4.6196,4.6102,4.6075,4.6075,4.5947,4.5852,4.5803,4.5728,4.5607,4.5509,4.5419,4.5199,4.4934,4.491,4.491,4.4843,4.4252,4.4031,4.3942,4.3379,4.3158,4.3105,4.2957,4.2595,4.2074,4.1276,4.0754,4.0204,3.9401,3.9049,3.8476,3.6599,3.5646,3.4751,3.2904,3.1623,3.067,2.9922,2.7936,2.6246,2.5902,2.4648,2.3377,2.2833,2.2138,2.1516,2.0872,1.9968,1.9247,1.898,1.835,1.7707,1.7326,1.6864,1.6494,1.6393,1.6015,1.5832,1.5832,1.5832,1.5832,1.5832,1.5832,1.5832,1.5832,1.5832,1.6008,1.6358,1.6285,1.648,0.0,0.0,0.0,0.0,0.0,0.0,0.0,0.0,0.0,0.0,0.0,0.0,0.0,0.0,0.0,0.0,0.0,0.0,0.0,0.0,0.0,0.0,0.0,0.0,0.0,4.2265,4.2818,4.2841,4.356,4.4051,4.41,4.4333,4.4718,4.5304,4.5339,4.5592,4.6176,4.6196,4.6196,4.6196,4.6196,4.6196,4.6196,4.6102,4.6075,4.6075,4.5883,4.5777,4.5703,4.5555,4.5473,4.5419,4.5218,4.5023,4.4776,4.4599,4.4503,4.4402,4.3873,4.3646,4.3579,4.3123,4.2862,4.2711,4.2498,4.2115,4.163,4.1019,4.0319,3.9679,3.9082,3.8334,3.744,3.5885,3.5094,3.4192,3.2205,3.1328,3.0594,2.9549,2.7545,2.5819,2.5819,2.4125,2.2325,2.1418,2.115,2.0872,1.9877,1.8972,1.8241,1.8064,1.7434,1.6885,1.6508,1.6319,1.613,1.5927,1.5832,1.5832,1.5832,1.5832,1.5832,1.5832,1.5832,1.5832,1.5832,1.5832,1.5832,1.5832,1.573,1.573,1.573,0.0,0.0,0.0,0.0,0.0,0.0,0.0,0.0,0.0,0.0,0.0,0.0,0.0,0.0,0.0,0.0,0.0,0.0,0.0,0.0,0.0,0.0,0.0,4.2549,4.3138,4.3654,4.3737,4.4456,4.4949,4.4948,4.5696,4.6196,4.6196,4.6196,4.6196,4.6196,4.6196,4.6196,4.6169,4.6169,4.6169,4.6169,4.6189,4.6189,4.6189,4.6037,4.5879,4.5689,4.5539,4.5419,4.5297,4.4957,4.4819,4.477,4.424,4.4005,4.3955,4.3823,4.3726,4.3612,4.3233,4.2786,4.2297,4.1674,4.1185,4.0802,4.0754,4.0053,3.9082,3.8463,3.7499,3.6368,3.5255,3.4543,3.363,3.1476,3.0895,3.0519,2.8882,2.708,2.583,2.5735,2.3587,2.1418,2.0421,2.0141,1.9869,1.888,1.7971,1.7326,1.7326,1.7153,0.0,1.6979,1.6508,1.6224,1.6224,1.5933,1.5832,1.5832,1.5832,1.5832,1.5832,1.5832,1.5832,1.5832,1.5832,1.5832,1.5825,1.5635,1.554,1.5445,0.0,0.0,0.0,0.0,0.0,0.0,0.0,0.0,0.0,0.0,0.0,0.0,0.0,0.0,0.0,0.0,0.0,0.0,0.0,0.0,0.0,4.3986,4.4236,4.3392,4.3997,4.4546,4.4577,4.5319,4.5832,4.5845,4.6066,4.6196,4.6196,4.6196,4.6154,4.6066,4.6047,4.5988,4.584,4.584,4.584,4.584,4.5736,4.5679,4.5679,4.556,4.5456,4.5419,4.5361,4.532,4.5297,4.4957,4.4676,4.4465,4.4151,4.3679,4.3196,4.341,4.3286,4.2958,4.2786,4.2374,4.1839,4.1202,4.0896,4.0642,3.9902,3.9454,3.9028,3.7969,3.7175,3.6368,3.5255,3.4543,3.3713,3.2218,3.1341,3.0506,2.8797,2.7116,2.5663,2.4999,2.3173,2.1418,2.0421,1.9687,1.888,1.7878,1.7512,1.7326,1.7326,1.7239,1.7153,1.6979,1.6885,1.6697,1.6494,1.6218,1.6123,1.6123,1.5927,1.5832,1.5832,1.5832,1.5832,1.5832,1.5832,1.573,1.5635,1.554,1.5356,0.0,0.0,0.0,0.0,0.0,0.0,0.0,0.0,0.0,0.0,0.0,0.0,0.0,0.0,0.0,0.0,0.0,0.0,0.0,0.0,0.0,0.0,4.4875,4.5259,4.4752,4.5124,4.5436,4.5436,4.5835,4.613,4.613,4.6036,4.5988,4.5988,4.5988,4.5958,4.5871,4.5871,4.5815,4.5703,4.5703,4.5703,4.5703,4.5615,4.5587,4.5587,4.5456,4.5381,4.5381,4.5197,4.5087,4.5087,4.4643,4.4374,4.4192,4.3726,4.3267,4.2938,0.0,0.0,0.0,0.0,4.1735,4.1293,4.0724,4.0483,4.0385,3.9454,3.9028,3.8629,3.7695,3.6707,3.5676,3.4684,3.3822,3.2932,3.1476,3.0745,2.9973,2.8323,2.6801,2.5579,2.4659,2.2726,2.0872,2.0322,1.9055,0.0,1.7419,1.7326,1.7326,1.7326,1.7326,1.7239,1.716,1.7073,1.6885,1.6588,1.6407,1.6123,1.6028,1.5927,0.0,0.0,0.0,1.5832,1.5832,1.5832,0.0,0.0,0.0,1.5267,1.5083,1.4885,0.0,0.0,1.4885,1.4885,0.0,0.0,0.0,0.0,0.0,0.0,0.0,0.0,0.0,0.0,0.0,0.0,0.0,0.0,0.0,0.0,4.5694,4.6183,4.6189,4.6189,4.6189,4.6189,4.6047,4.5966,4.5966,4.5803,4.5703,4.5703,4.5703,4.5703,4.5675,4.5675,0.0,0.0,0.0,4.566,4.566,4.5611,4.5611,4.5611,4.5451,4.538,4.5361,4.4947,4.4726,4.4657,4.4143,4.3873,4.3791,4.3105,4.2806,4.275,4.275,4.2498,4.2032,4.1321,4.0955,4.0737,4.0187,0.0,0.0,3.9135,3.8557,3.7994,3.7326,3.6024,3.4662,3.3848,3.289,3.1709,3.0152,2.9626,2.9147,2.7406,2.6329,2.54,2.4402,2.2101,2.0141,2.0051,1.8603,1.7326,1.7326,1.7326,1.7326,1.7326,1.7326,1.7326,1.7326,1.7153,1.6972,1.6676,1.6407,0.0,1.5927,1.5832,1.5832,1.5832,1.5832,1.5832,1.5832,1.5832,1.5825,1.5737,1.5363,1.5083,1.5083,1.4592,1.4298,1.4298,1.479,1.4885,0.0,0.0,0.0,0.0,0.0,0.0,0.0,0.0,0.0,0.0,0.0,0.0,0.0,0.0,0.0,4.5952,4.6085,4.617,4.6056,4.6027,4.6027,4.6027,4.5871,4.5764,4.5764,4.5717,4.5703,4.5703,4.5703,4.5645,4.5539,4.5541,4.5491,4.5381,4.538,4.538,4.538,4.512,4.4973,4.4973,4.4738,0.0,4.4606,4.4519,4.428,4.3879,4.3564,4.3226,4.2832,4.2465,4.2115,4.1778,4.1778,4.1735,4.1561,4.0977,4.0385,3.9851,3.9594,3.9172,3.8502,3.744,3.7024,3.6722,3.5691,3.4861,0.0,3.331,3.2621,3.1709,3.0152,2.9201,2.8231,2.6472,2.5411,2.4307,2.257,2.1132,1.996,1.9239,1.8149,1.7326,1.7326,1.7326,1.7326,1.7326,1.7326,1.7326,1.7326,1.7239,1.7239,1.7145,1.677,1.6494,1.6494,1.6021,1.5832,1.5832,1.5832,1.5832,1.5832,1.5832,1.5737,1.554,1.5267,1.4987,1.479,1.449,1.4298,1.4298,1.4394,1.4394,0.0,0.0,0.0,0.0,0.0,0.0,0.0,0.0,0.0,0.0,0.0,4.5659,4.5651,0.0,4.6247,4.6212,4.6142,4.608,4.6017,4.5854,4.5769,4.5847,4.5708,4.5603,4.5603,4.5541,4.549,4.549,4.549,4.5473,4.54,4.5244,4.514,4.5045,4.4929,4.4838,4.4838,4.4444,4.4252,4.4252,4.3897,4.3745,4.3745,4.3587,4.3354,4.3114,4.285,4.2623,4.2372,4.1775,4.115,4.0559,4.0559,4.0689,4.0819,4.0254,3.9731,3.9226,3.8854,3.8342,3.77,3.6569,3.6213,3.6026,3.5175,3.4245,3.3325,3.2508,3.1583,3.0594,2.9406,2.8438,2.7452,2.6152,2.5158,2.3973,2.2138,2.0872,1.996,1.8972,1.7971,1.7326,1.7326,1.7326,1.7326,1.7326,1.7326,1.7326,1.7326,1.7326,1.7239,1.7153,1.6777,1.6588,1.64,1.6021,1.5832,1.5832,1.5832,1.5832,1.5832,1.5832,1.5737,1.5635,1.5452,1.5261,1.507,1.4682,1.4496,1.4496,1.4394,1.4298,0.0,0.0,0.0,0.0,0.0,0.0,0.0,4.4304,4.4992,4.4992,4.5695,4.6309,4.6306,4.6269,4.6202,4.6162,4.6068,4.5988,4.5902,4.5669,4.5541,4.56,4.5524,4.5455,4.5455,4.5301,4.5194,4.5194,4.5151,4.5129,4.5129,4.4781,4.4594,4.4594,4.428,4.4157,4.4157,4.3695,4.35,4.35,4.3114,4.2939,4.2904,4.2555,4.2382,4.2264,4.1842,4.1682,4.1639,4.0775,4.0018,3.9368,3.9193,3.9315,3.9662,3.9332,3.8941,3.8414,3.7873,3.7377,3.6901,3.5791,3.5503,3.531,3.4566,3.3602,3.2522,3.1569,3.0556,2.9484,2.8486,2.7592,2.667,2.5746,2.4914,2.3714,2.1863,2.0782,1.9869,1.8696,1.7878,1.7326,1.7326,1.7326,1.7326,1.7326,1.7326,1.7326,1.7326,1.7326,1.7239,1.7066,1.6777,1.6494,1.6123,1.5927,1.5832,1.5832,1.5832,1.5832,1.5832,1.5832,1.5832,1.5832,1.5635,1.5445,1.5452,1.4975,1.4688,1.4592,1.4545,1.4473,4.0457,4.0504,4.0766,4.1839,4.2111,4.2397,0.0,4.4364,4.4992,4.4992,4.5695,4.6309,4.6306,4.6288,4.6228,4.6053,4.601,4.5901,4.5603,4.5524,4.5455,4.5361,4.5339,4.5319,4.5319,4.5045,4.4868,4.4868,4.4643,4.4511,4.4511,4.4082,4.383,4.383,4.3449,4.3266,4.3266,4.2904,4.2723,4.2741,4.2451,4.2284,4.2284,4.1884,4.1481,4.1052,4.0234,3.9885,3.9834,3.911,3.8772,3.8625,3.7652,3.7302,3.7478,3.8349,3.7866,3.675,3.6583,3.6011,3.5335,3.4528,3.4259,3.4056,3.2777,3.229,3.1842,3.0355,2.9845,2.9316,2.7742,2.667,2.5746,2.4829,2.3897,2.2765,2.0782,2.0322,1.9687,1.7785,1.7419,1.7326,1.7326,1.7326,1.7326,1.7326,1.7326,1.7326,1.7326,1.7326,1.7333,1.7239,1.6864,1.64,1.5927,1.5832,1.5832,1.5832,1.5832,1.5832,1.5832,1.5832,1.5832,1.5832,1.5635,1.5356,1.5178,1.5083,1.479,1.44,1.4832,1.4857,4.0457,4.1239,4.2129,4.262,4.3178,4.3869,4.4877,4.5445,4.5753,4.5753,4.6058,4.6285,4.625,4.6245,4.6199,4.6024,4.5899,4.5751,4.5541,4.5246,4.5077,4.5023,4.4862,4.4838,4.4981,4.4745,4.4572,4.4572,4.4465,4.4261,4.4013,4.3638,4.3358,4.308,4.2759,4.2569,4.2569,4.1937,4.1601,4.1584,4.0989,4.0668,4.0668,4.0508,4.0133,3.9495,3.8755,3.8332,3.8068,3.7767,3.7536,3.7275,3.6812,3.64,3.6151,3.6977,3.6796,3.6089,3.5631,3.5094,3.452,3.3297,3.2932,3.272,3.1696,3.1031,3.0594,2.9858,2.9328,2.8712,2.7499,2.6505,2.5568,2.4744,2.382,2.2599,2.0593,2.0232,1.9596,1.7692,1.7326,1.7326,1.7326,1.7326,1.7326,1.7326,1.7326,1.7326,1.7326,1.7326,1.7232,1.6958,1.6676,1.6393,1.5825,1.5832,1.5832,1.5832,1.5832,1.5832,1.5832,1.5832,1.5832,1.5832,1.5635,1.5452,1.5356,1.4981,1.4871,1.4728,1.4851,1.4977,4.1168,4.2143,4.3173,4.3524,4.4156,4.4948,4.5903,4.6206,4.6273,4.6273,4.6273,4.6268,4.6207,4.6209,4.6131,4.5947,4.579,4.5596,4.5342,4.5014,4.4776,4.4701,4.4438,4.4374,4.4546,4.4402,4.426,4.4117,4.4046,4.3775,4.3306,4.2977,4.2607,4.2145,4.1817,4.1525,4.1198,4.0599,4.0165,3.9966,3.932,3.9053,3.9036,3.8945,3.8547,3.7955,3.7462,3.7109,3.6796,3.6614,3.64,3.6072,3.5661,3.521,3.4846,3.5115,3.534,3.54,3.4581,3.4138,3.3687,3.2304,3.1783,3.1636,3.082,3.0152,2.9626,2.9406,2.8791,2.7926,2.701,2.6163,2.5242,2.4327,2.356,2.2599,2.0593,2.0232,1.9596,1.7692,1.7326,1.7326,1.7326,1.7326,1.7326,1.7326,1.7326,1.7326,1.7326,1.7326,1.7145,1.6676,1.6588,1.6393,1.5825,1.5832,1.5832,1.5832,1.5832,1.5832,1.5832,1.5832,1.5737,1.5737,1.554,1.5445,1.5255,1.5051,1.4905,1.5004,1.5059,1.5239,4.3028,4.3066,4.3339,4.4389,4.4686,4.4958,4.5975,4.6206,4.6206,4.6206,4.6199,4.6204,4.6207,4.6209,4.6099,4.5751,4.5703,4.5497,4.49,4.48,4.4701,4.4438,4.4181,4.4036,4.4017,4.4036,4.3823,4.3348,4.3069,4.275,4.2279,4.1821,4.1348,4.0978,4.058,3.9851,3.8717,3.8663,3.8355,3.7687,3.7687,3.763,3.7646,3.7286,3.6857,3.6508,3.6446,3.643,3.6384,3.5706,3.5449,3.527,3.3837,3.3283,3.3213,3.2506,3.3157,3.4332,3.3409,3.2903,3.2547,3.1589,3.1132,3.082,2.9999,2.9704,2.9561,2.8736,2.7926,2.701,2.608,2.5158,2.4327,2.3396,2.3135,2.2599,2.0593,2.0232,1.9596,1.7692,1.7326,1.7326,1.7326,1.7326,1.7326,1.7326,1.7326,1.7326,1.7326,1.7326,1.7145,1.6676,1.6588,1.6393,1.5825,1.5832,1.5832,1.5832,1.5832,1.5832,1.5832,1.5832,1.573,1.554,1.554,1.5261,1.4688,1.5246,1.5195,1.4727,1.5552,1.5695,4.3188,4.3805,4.4624,4.4626,4.5062,4.5619,4.6153,4.6269,4.6277,4.6273,4.6265,4.6249,4.6217,4.6137,4.6007,4.5803,4.5497,4.5168,4.4849,4.4511,4.4125,4.373,4.3422,4.3178,4.2996,4.3178,4.3178,4.3051,4.2637,4.2098,4.1375,4.1196,4.0586,3.9391,3.9232,3.8788,3.7931,3.7678,3.7404,3.7212,3.6399,3.5733,3.5244,3.4655,3.4368,3.4211,3.3751,3.3559,3.3559,3.331,3.3185,3.3185,3.2635,3.2434,3.2434,3.2218,3.2448,3.2804,3.2376,3.216,3.1955,3.0771,3.0393,3.0139,2.9184,2.8462,2.7971,2.7672,2.701,2.608,2.5158,2.4744,2.4241,2.3309,2.3135,2.2599,2.0593,2.0232,1.9596,1.7692,1.7326,1.7326,1.7326,1.7326,1.7326,1.7326,1.7326,1.7326,1.7326,1.7326,1.7145,1.6878,1.6683,1.6494,1.6123,1.5927,1.5832,1.5832,1.5832,1.5832,1.5832,1.5832,1.573,1.554,1.5363,1.5166,1.496,1.4961,1.5095,1.524,1.5518,1.5694,4.4054,4.4669,4.5413,4.5124,4.5495,4.5958,4.6177,4.6226,4.6231,4.6234,4.6221,4.6211,4.6205,4.6086,4.5968,4.5815,4.5517,4.5145,4.4751,4.4327,4.3849,4.3334,4.2885,4.2559,4.2364,4.2203,4.2162,4.232,4.1955,4.1251,4.0116,4.0067,3.9426,3.8092,3.8036,3.7472,3.6414,3.6153,3.573,3.5254,3.4434,3.383,3.3336,3.2905,3.2721,3.2735,3.2277,3.2074,3.2074,3.2074,3.2074,3.2074,3.1783,3.1476,3.1154,3.0944,3.0631,3.0467,3.118,3.1415,3.1119,2.9768,2.9225,2.8888,2.7983,2.7185,2.667,2.667,2.5997,2.5242,2.4669,2.4241,2.382,2.3222,2.2872,2.2138,2.0503,1.996,1.9239,1.7598,1.7326,1.7326,1.7326,1.7326,1.7326,1.7326,1.7326,1.7326,1.7326,1.7326,1.7239,1.6979,1.6784,1.6494,1.6224,1.5927,1.5832,1.5832,1.5832,1.5832,1.5832,1.5832,1.573,1.554,1.5364,1.5221,1.5091,1.4996,1.5167,1.5499,1.5596,1.5728,4.5495,4.555,4.5654,4.5835,4.5886,4.5922,4.6075,4.6122,4.6102,4.6111,4.6108,4.6122,4.6171,4.6069,4.5919,4.5789,4.5615,4.5265,4.4535,4.429,4.3887,4.3214,4.2501,4.2026,4.1985,4.1143,4.0763,4.1087,4.0903,4.0133,3.8608,3.857,3.8036,3.6886,3.6886,3.5997,3.4129,3.4062,3.3407,3.2015,3.2001,3.1928,3.1928,3.1856,3.1842,3.1842,3.1842,3.1842,3.1842,3.1842,3.1842,3.1769,3.1031,3.0177,2.9384,2.8676,2.7879,2.7464,2.9872,3.0581,3.0139,2.8518,2.7799,2.7313,2.6423,2.6008,2.5746,2.5746,2.5073,2.4413,2.4413,2.3734,2.3135,2.3135,2.2413,2.1418,2.0413,1.9422,1.8519,1.7512,1.7326,1.7326,1.7326,1.7326,1.7326,1.7326,1.7326,1.7326,1.7326,1.7326,1.7239,1.7073,1.6784,1.6494,1.6224,1.5927,1.5832,1.5832,1.5832,1.5832,1.5832,1.5832,1.5737,1.5471,1.5454,1.5411,1.5134,1.5354,1.5505,1.5523,1.5771,1.5891,4.5419,4.5438,4.5514,4.5761,4.5796,4.5835,4.6111,4.6162,4.617,4.6163,4.6178,4.6152,4.6123,4.5774,4.5452,4.537,4.4851,4.4318,4.3887,4.367,4.314,4.2062,4.1785,4.1251,4.0246,3.9784,3.9304,3.883,3.9182,3.8933,3.7857,3.7684,3.6886,3.5185,3.5121,3.433,3.2678,3.2621,3.2177,3.1193,3.0556,2.9935,2.9369,2.8706,2.8378,2.8378,2.8378,2.8378,2.8378,2.8378,2.8378,2.8378,2.8164,2.7924,2.7683,2.7557,2.7313,2.7221,2.7844,2.8004,2.7936,2.7302,2.6976,2.6648,2.634,2.5589,2.4829,2.4829,2.4155,2.3484,2.3484,2.3309,2.3135,2.3135,2.2413,2.1418,2.0413,1.9422,1.8519,1.7512,1.7326,1.7326,1.7326,1.7326,1.7326,1.7326,1.7326,1.7326,1.7326,1.7326,1.7232,1.7239,1.6864,1.6581,1.6494,1.6116,1.5832,1.5832,1.5832,1.5832,1.5832,1.5832,1.5741,1.5479,1.5458,1.5501,1.5397,1.5433,1.5602,1.5795,1.5855,1.5891,4.54,4.5419,4.5495,4.5699,4.5742,4.5777,4.608,4.6157,4.617,4.6195,4.6151,4.6106,4.6069,4.5626,4.5295,4.5283,4.4662,4.4076,4.3781,4.3245,4.2605,4.1725,4.0915,4.0133,3.9389,3.8767,3.7898,3.6854,3.7694,3.771,3.6353,3.6152,3.5314,3.3642,3.3101,3.2068,3.0416,3.0063,2.9693,2.9254,2.8773,2.8323,2.7891,2.7313,2.7069,2.7069,2.7069,2.7069,2.7069,2.7069,2.7069,2.7069,2.7069,2.6905,2.6565,2.6565,2.6329,2.5924,2.5924,2.5924,2.6008,2.6235,2.6235,2.5986,2.5337,2.468,2.3993,2.3907,2.3474,2.3135,2.3135,2.3135,2.296,2.2599,2.1784,2.0782,1.9786,1.8788,1.7971,1.7419,1.7326,1.7326,1.7326,1.7326,1.7326,1.7326,1.7326,1.7326,1.7326,1.7326,1.7326,1.7326,1.6864,1.6588,1.6588,1.6109,1.5832,1.5832,1.5832,1.5832,1.5832,1.5863,1.5822,1.5692,1.5644,1.5713,1.5713,1.5719,1.5747,1.5891,1.5891,1.5891,4.5399,4.5458,4.5547,4.5673,4.5718,4.5783,4.6041,4.6098,4.6105,4.617,4.6073,4.598,4.5938,4.5551,4.5227,4.5208,4.4624,4.4098,4.3767,4.2941,4.2145,4.1586,4.0099,3.9036,3.875,3.7758,3.6584,3.5295,3.6199,3.6121,3.4522,3.4307,3.3559,3.2087,3.0979,2.9719,2.8227,2.751,2.7069,2.7069,2.6976,2.6894,2.6812,2.6741,2.6648,2.6472,2.6565,2.6565,2.6472,2.6472,2.6472,2.6472,2.6472,2.5975,2.5316,2.5316,2.4829,2.4186,2.4186,2.4186,2.4348,2.5337,2.5411,2.4988,2.3907,2.3396,2.3135,2.2775,2.2687,2.2687,2.2687,2.2687,2.2501,2.1695,2.0782,1.9778,1.8972,1.7971,1.7326,1.7326,1.7326,1.7326,1.7326,1.7326,1.7326,1.7326,1.7326,1.7326,1.7326,1.7326,1.7326,1.7326,1.6864,1.6588,1.6588,1.6109,1.5832,1.5832,1.5832,1.5845,1.5885,1.5855,1.5934,1.5914,1.589,1.594,1.5873,1.5889,1.5891,1.5891,1.5891,1.5891,4.5399,4.5476,4.5596,4.5688,4.578,4.5905,4.6068,4.6098,4.6089,4.6032,4.6017,4.5897,4.5576,4.5207,4.4775,4.4261,4.3862,4.3442,4.2902,4.2404,4.1594,4.0292,3.9511,3.8531,3.704,3.6136,3.531,3.4551,3.3654,3.3073,3.2764,3.2566,3.1775,3.0366,2.9008,2.8176,2.7855,2.7383,2.7069,2.7069,2.64,2.5735,2.521,2.5009,2.4317,2.325,2.3897,2.38,2.325,2.325,2.325,2.325,2.325,2.3163,2.2999,2.2999,2.2921,2.2755,2.2755,2.2755,2.3018,2.4337,2.4176,2.3387,2.2843,2.205,2.1347,2.0872,2.0683,2.0683,2.0683,2.0683,2.0683,2.0503,1.9695,1.8972,1.888,1.7971,1.7326,1.7326,1.7326,1.7326,1.7326,1.7326,1.7326,1.7326,1.7326,1.7326,1.7326,1.7326,1.7326,1.7326,1.6864,1.6588,1.6588,1.6109,1.5832,1.5832,1.5832,1.5939,1.6186,1.596,1.6017,1.6273,1.5975,1.5922,1.5931,1.5867,1.5891,1.5891,1.5891,1.5891,4.5438,4.5512,4.5629,4.5771,4.5847,4.5941,4.6118,4.6093,4.6048,4.6054,4.5974,4.5792,4.5459,4.5109,4.47,4.4252,4.3693,4.3142,4.2598,4.1551,4.05,3.9546,3.8388,3.7216,3.5978,3.5195,3.4187,3.2806,3.2092,3.1715,3.1715,3.0856,2.9539,2.7785,2.7626,2.6741,2.5221,2.5389,2.521,2.4681,2.4276,2.3846,2.3587,2.3454,2.3028,2.2394,2.2765,2.2765,2.2394,2.2394,2.2394,2.2394,2.2394,2.2394,2.2394,2.2394,2.2394,2.2394,2.2394,2.2394,2.2482,2.3202,2.3115,2.2677,2.2315,2.1961,2.1436,2.0799,2.061,2.052,2.0232,2.0232,2.0051,1.9604,1.8696,1.8056,1.8056,1.7598,1.7326,1.7326,1.7326,1.7326,1.7326,1.7326,1.7326,1.7326,1.7326,1.7326,1.7326,1.7239,1.7153,1.7153,1.6777,1.6494,1.6407,1.6021,1.5892,1.6052,1.6059,1.6095,1.6295,1.6153,1.6056,1.6116,1.5953,1.587,1.5891,1.5891,1.5891,1.5891,1.5891,1.5891,4.5512,4.5596,4.5723,4.586,4.5912,4.5978,4.6113,4.6072,4.6005,4.6025,4.5852,4.5619,4.5341,4.4954,4.4599,4.4213,4.3627,4.2976,4.2311,4.0793,3.9564,3.8933,3.7275,3.5867,3.518,3.4187,3.2961,3.1315,3.0807,3.0581,3.0581,2.9057,2.7395,2.583,2.6246,2.5326,2.296,2.3551,2.3357,2.2394,2.2394,2.2306,2.2227,2.2306,2.2217,2.1961,2.2138,2.2138,2.1961,2.1961,2.1961,2.1961,2.1961,2.1961,2.1961,2.1961,2.1961,2.1961,2.1961,2.1961,2.1961,2.1961,2.205,2.2138,2.1872,2.1695,2.1436,2.0628,2.0357,2.0266,1.9695,1.9596,1.9413,1.8696,1.7878,1.7326,1.7326,1.7326,1.7326,1.7326,1.7326,1.7326,1.7326,1.7326,1.7326,1.7326,1.7326,1.7232,1.7239,1.7066,1.7008,1.6978,1.6725,1.6434,1.6313,1.6027,1.6052,1.6346,1.6366,1.6401,1.6403,1.6311,1.6245,1.6008,1.5895,1.5891,1.5891,1.5891,1.5891,1.5891,1.5891,1.5891,4.5665,4.5808,4.5953,4.5919,4.5988,4.606,4.603,4.601,4.5977,4.5852,4.5615,4.5323,4.4924,4.4624,4.4184,4.3442,4.3232,4.2826,4.1717,4.0535,3.9393,3.8323,3.6537,3.5115,3.4432,3.2593,3.1389,3.118,2.9524,2.8474,2.8474,2.6976,2.5986,2.583,2.4723,2.3877,2.3347,2.3038,2.2775,2.2394,2.2394,2.205,2.1526,2.2138,2.1695,2.0555,2.1177,2.1087,2.0464,2.0464,2.0464,2.0464,2.0464,2.0464,2.0464,2.0464,2.0464,2.0464,2.0464,2.0464,2.0464,2.0464,2.0907,2.1436,2.0898,2.0266,1.9637,1.8635,1.8357,1.8265,1.7699,1.7598,1.7505,1.7419,1.7326,1.7326,1.7326,1.7326,1.7326,1.7326,1.7326,1.7326,1.7326,1.7326,1.7326,1.7326,1.7326,1.7239,1.7073,1.6979,1.6904,1.6704,1.6389,1.6334,1.6614,1.6434,1.6353,1.6647,1.6667,1.67,1.669,1.6413,1.6339,1.628,1.5986,1.5891,1.5891,1.5891,1.5891,1.5891,1.5891,1.5891,4.5786,4.5867,4.5953,4.5972,4.6036,4.6078,4.6013,4.5977,4.5916,4.5822,4.5522,4.5185,4.4872,4.4447,4.3986,4.3511,4.3142,4.2519,4.1446,4.0422,3.9082,3.7207,3.5997,3.4545,3.2593,3.1669,3.0467,2.8682,2.7452,2.6494,2.5997,2.583,2.5305,2.42,2.4221,2.3531,2.1952,2.2315,2.2059,2.1168,2.1168,2.0997,2.0736,2.0997,2.0817,2.0292,2.0645,2.0555,2.0292,2.0292,2.0292,2.0292,2.0292,1.992,1.9446,1.9446,1.898,1.8511,1.8511,1.8511,1.8511,1.8511,1.9063,1.9894,2.0275,2.0192,1.9828,1.8827,1.855,1.8357,1.752,1.7326,1.7326,1.7326,1.7326,1.7326,1.7326,1.7326,1.7326,1.7326,1.7486,1.7618,1.7618,1.7786,1.7911,1.7911,1.7911,1.7821,1.7545,1.744,1.7197,1.6929,1.6676,1.6517,1.6711,1.6632,1.666,1.6954,1.6974,1.6896,1.6663,1.6571,1.6411,1.6105,1.5998,1.5891,1.5891,1.5891,1.5891,1.5891,1.5891,1.5891,4.5905,4.5972,4.5997,4.6018,4.6052,4.6042,4.5993,4.5922,4.5832,4.565,4.5323,4.5007,4.4726,4.4252,4.3786,4.3529,4.2921,4.2162,4.1206,4.0065,3.8619,3.6779,3.5443,3.3873,3.1729,3.053,2.8983,2.6637,2.5819,2.5073,2.4145,2.4638,2.4457,2.3183,2.3454,2.2843,2.0997,2.1695,2.1436,2.0382,2.011,2.0011,2.0002,1.9637,1.9455,1.9446,1.9446,1.9446,1.9446,1.9446,1.9446,1.9446,1.9446,1.898,1.8326,1.8326,1.7948,1.7296,1.7296,1.7296,1.7296,1.7296,1.7762,1.8511,1.9163,1.982,2.011,1.9279,1.8827,1.8365,1.752,1.7326,1.7355,1.745,1.7472,1.7501,1.7596,1.7618,1.7618,1.7618,1.7801,1.7955,1.7955,1.8145,1.8299,1.8299,1.8207,1.8108,1.7811,1.7512,1.7348,1.7143,1.6966,1.6826,1.682,1.6834,1.6967,1.7158,1.7178,1.7062,1.6624,1.663,1.6418,1.5891,1.5891,1.5891,1.5891,1.5891,1.5891,1.5891,1.5785,1.5678,4.5998,4.6093,4.6176,4.6118,4.6046,4.5974,4.5916,4.5841,4.5688,4.5284,4.5007,4.4726,4.4438,4.3962,4.3529,4.3232,4.2541,4.1725,4.0926,3.927,3.7923,3.7472,3.4904,3.2975,3.2338,2.9012,2.6565,2.5819,2.4988,2.4059,2.3183,2.3096,2.3096,2.3096,2.2246,2.1454,2.0997,2.0988,2.0907,2.0654,1.9646,1.9171,1.9147,1.8149,1.7584,1.7296,1.7296,1.7296,1.7296,1.7296,1.7296,1.7296,1.7296,1.7296,1.7296,1.7296,1.7296,1.7296,1.7296,1.7296,1.7296,1.7296,1.7296,1.7296,1.7296,1.8696,2.0201,1.9737,1.8912,1.7986,1.7426,1.7326,1.7406,1.7735,1.7808,1.7904,1.8218,1.8291,1.8291,1.8291,1.8291,1.8299,1.8299,1.8299,1.8299,1.8299,1.8108,1.7818,1.7505,1.7313,1.7129,1.7217,1.7244,1.7141,1.7148,1.7148,1.7171,1.7153,1.7173,1.6961,1.6324,1.6324,1.6217,1.5891,1.5891,1.5891,1.5891,1.5891,1.5891,1.5891,1.5583,1.5154,4.6137,4.6177,4.6167,4.6056,4.6016,4.5968,4.5799,4.5654,4.5449,4.5244,4.4849,4.4419,4.4165,4.3675,4.3124,4.2501,4.1955,4.1303,4.04,3.8974,3.7345,3.5422,3.1959,2.9474,2.8645,2.7082,2.5557,2.4029,2.3704,2.3105,2.2157,2.2167,2.2167,2.2167,2.182,2.1553,2.1293,2.0628,2.0076,1.9903,1.8912,1.835,1.8141,1.787,1.7591,1.7296,1.7296,1.7296,1.7296,1.7296,1.7296,1.7296,1.7296,1.6922,1.6264,1.6264,1.5792,1.5235,1.5235,1.5235,1.5235,1.5235,1.5704,1.6264,1.6264,1.7203,1.8234,1.8064,1.7412,1.6857,1.7232,1.7494,1.7684,1.7786,1.7984,1.8174,1.8284,1.8299,1.8299,1.8299,1.8482,1.8635,1.8635,1.8818,1.8964,1.8964,1.8767,1.8458,1.8135,1.7833,1.766,1.7539,1.7442,1.7442,1.7442,1.7442,1.7384,1.7173,1.7179,1.6961,1.6324,1.6324,1.6217,1.5891,1.5891,1.5891,1.5891,1.5891,1.5791,1.5583,1.5261,1.4934,4.6177,4.6124,4.607,4.6013,4.5917,4.5804,4.5626,4.5436,4.5246,4.4966,4.4553,4.4184,4.3912,4.3371,4.277,4.2121,4.1569,4.078,3.9443,3.7931,3.5907,3.3055,2.9998,2.7763,2.6894,2.5557,2.4286,2.3183,2.2755,2.2334,2.1731,2.1741,2.1741,2.1741,2.1741,2.1374,2.0826,2.0175,1.9621,1.9072,1.8071,1.7419,1.721,1.6749,1.6466,1.617,1.617,1.617,0.0,1.617,1.617,1.617,1.617,1.5798,1.5235,1.5235,1.486,1.4298,1.4298,1.4298,1.4298,1.4298,1.4765,1.5235,1.5235,1.617,1.7196,1.7225,1.6943,1.6588,1.7283,1.7662,1.7874,1.8123,1.8343,1.8518,1.8642,1.8672,1.8672,1.8672,1.8833,1.8972,1.8972,1.914,1.9279,1.9175,1.8862,1.8646,1.8325,1.801,1.7799,1.7582,1.7582,1.7582,1.7582,1.7483,1.7272,1.706,1.6961,1.6643,1.6217,1.6111,1.6105,1.5891,1.5891,1.5891,1.5891,1.5791,1.5577,1.5154,1.4934,1.4719,0.0,4.5996,4.5921,4.5963,4.5771,4.5538,4.5406,4.5246,0.0,4.4493,4.4165,4.3862,4.3594,4.3069,4.248,4.1979,4.1213,4.0034,3.8154,3.6106,3.3667,3.0491,2.8675,2.7417,2.6789,2.4532,2.3096,2.3008,2.2157,2.1741,2.1741,2.1741,2.1642,2.1642,2.1642,2.1087,1.9985,1.9803,1.9255,1.8342,1.7138,1.6473,1.6358,1.5248,1.4592,1.4298,1.4298,1.4298,1.4298,1.4298,1.4298,1.4298,1.4298,1.4298,1.4298,1.4298,1.4298,1.4298,1.4298,1.4298,1.4298,1.4298,1.4298,1.4298,1.4298,1.5412,1.672,1.7037,1.6958,1.6942,1.7544,1.7756,1.8035,1.8642,1.8803,1.8906,1.9213,1.9279,1.9279,1.9279,1.9279,1.9272,1.9272,1.9272,1.9175,1.8869,1.8541,1.8325,1.8016,1.7799,1.7582,1.7582,1.7582,1.7582,1.7582,1.7384,1.7067,1.673,1.6424,1.6217,1.5891,1.5891,1.5891,1.5891,1.5891,1.5891,1.5891,1.5583,1.5154,1.4606,1.4606,1.4396,4.6036,0.0,4.5969,4.5862,4.5568,4.5281,0.0,4.483,4.4438,4.4165,4.3881,4.3508,4.2995,4.2501,4.1913,4.1185,4.0184,3.883,3.6947,3.3072,3.0119,2.9409,2.7,2.5441,2.5681,2.4094,2.2843,2.2069,2.182,2.1741,2.1741,2.1741,2.1365,2.0619,2.0619,2.0529,2.0257,1.8703,1.7785,1.7512,1.6386,1.5635,1.5452,1.4879,1.4592,1.4298,1.4298,1.4298,1.4298,1.4298,1.4298,1.4298,1.4298,1.4298,1.4298,1.4298,1.4298,1.4298,1.4298,1.4298,1.4298,1.4298,1.4298,1.4298,1.4298,1.4292,1.4484,1.5159,1.5595,1.5965,1.6718,1.7788,1.8599,1.8752,1.8979,1.9184,1.9257,1.9279,1.9279,1.9279,1.9279,1.9279,1.9078,1.8974,1.8862,1.8534,1.8331,1.8122,1.8016,1.7799,1.7582,1.7582,1.7582,1.7483,1.7279,1.7279,1.7067,1.673,1.6424,1.6217,1.5891,1.5891,1.5891,1.5891,1.5684,1.5583,1.5583,1.5041,1.4713,1.4606,1.4401,1.4299,4.5901,4.5828,4.575,4.5717,4.5376,4.5042,4.4896,4.4572,4.4202,4.3836,4.3579,4.3286,4.2788,4.1633,4.0643,4.0377,3.8768,3.6766,3.4644,3.1478,2.904,2.8164,2.6202,2.4777,2.4426,2.3173,2.2246,2.1741,2.1741,2.1553,2.1087,2.1087,2.0619,1.9613,1.9155,1.888,1.888,1.7878,1.7044,1.6581,1.5737,1.5267,1.5083,1.4688,1.44,1.4298,1.4298,1.4298,1.4298,1.4298,1.4298,1.4298,1.4298,1.4298,1.4298,1.4298,1.4298,1.4298,1.4298,1.4298,1.4298,1.4298,1.4298,1.4298,1.4298,1.3919,1.3636,1.4502,1.4777,1.53,1.6616,1.7596,1.8302,1.8869,1.9147,1.9279,1.9279,1.9279,1.9279,1.9279,1.9279,1.9175,1.8974,1.8869,1.8757,1.8325,1.8122,1.7911,1.7799,1.7694,1.7582,1.7582,1.7483,1.7384,1.7173,1.6961,1.6749,1.653,1.6211,1.5998,1.5891,1.5891,1.5891,1.5684,1.5583,1.5374,1.5041,1.4713,1.4498,1.4396,1.4299,1.4407,4.5725,4.5519,4.538,4.5526,4.5204,4.48,4.4617,4.4402,4.4102,4.3563,4.3304,4.2976,4.2293,4.0568,3.9295,3.9344,3.6949,3.425,3.1833,3.0163,2.8493,2.6801,2.5514,2.4416,2.3337,2.2325,2.1741,2.1741,2.1553,2.1177,2.0339,2.0158,1.9613,1.8603,1.7785,1.7232,1.7044,1.7044,1.6676,1.5737,1.5267,1.5083,1.4987,1.4496,1.4298,1.4298,1.4298,1.4298,1.4298,1.4298,1.4298,1.4298,1.4298,1.4298,1.4298,1.4298,1.4298,1.4298,1.4298,1.4298,1.4298,1.4298,1.4298,1.4298,1.4298,1.3919,1.3642,1.4352,1.4448,1.4799,1.658,1.7279,1.7881,1.8998,1.9279,1.9279,1.9279,1.9279,1.9279,1.9279,1.9279,1.9175,1.8862,1.8974,1.8862,1.822,1.8325,1.8318,1.8101,1.7996,1.7786,1.7793,1.7378,1.7179,1.7067,1.6537,1.6324,1.6217,1.5998,1.5891,1.5891,1.5891,1.5684,1.5482,1.5374,1.5154,1.4606,1.4606,1.4396,1.4196,1.4299,1.4849,4.5626,4.5148,4.4735,4.5147,4.495,4.4572,4.4402,4.4151,4.3814,4.3339,4.3196,4.2492,4.0186,3.9746,3.9156,3.7447,3.4718,3.1809,2.8954,2.6699,2.5378,2.5587,2.3664,2.2648,2.373,2.257,2.1741,2.1741,2.0997,2.0439,2.0348,1.9521,1.8611,1.7606,1.7419,1.6857,1.6015,1.6015,1.5825,1.554,1.5267,1.4987,1.479,1.4394,1.4298,1.4298,1.4298,1.4298,1.4298,1.4298,1.4298,1.4298,1.4298,1.4298,1.4298,1.4298,1.4298,1.4298,1.4298,1.4298,1.4298,1.4298,1.4298,1.4298,1.4298,1.3919,1.3585,1.3889,1.4319,1.4969,1.6164,1.7171,1.8144,1.9049,1.9279,1.9279,1.9279,1.9279,1.9279,1.9279,1.9071,1.8862,1.8534,1.9056,1.9465,1.9027,1.9857,2.0475,2.0364,1.9539,1.8923,1.8617,1.7799,1.6967,1.643,1.6324,1.6217,1.5998,1.5891,1.5891,1.5891,1.569,1.5589,1.5482,1.5041,1.4713,1.4606,1.4401,1.4191,1.4191,1.4928,1.5462,4.5513,4.518,4.4762,4.4556,4.4112,4.3757,4.3762,4.3279,4.2848,4.2882,4.2711,4.1861,3.9591,3.8405,3.6616,3.3297,3.216,3.0773,2.8124,2.6896,2.5848,2.4735,2.3654,2.2902,2.2736,2.2157,2.1741,2.1741,2.0808,2.0068,1.9521,1.8519,1.7505,1.6487,1.648,1.6298,1.5832,1.5737,1.5635,1.554,1.507,1.479,1.4688,1.4394,1.4298,1.4298,1.4298,1.4298,1.4298,1.4298,1.4298,1.4298,1.4298,1.4298,1.4298,1.4298,1.4298,1.4298,1.4298,1.4298,1.4298,1.4298,1.4298,1.4298,1.4118,1.3829,1.3522,1.3813,1.3993,1.4333,1.5409,1.6514,1.7569,1.8415,1.8952,1.9279,1.9279,1.9279,1.9279,1.9071,1.8974,1.8966,1.9056,1.9465,1.9776,2.0063,2.057,2.0885,2.0885,2.0467,2.0055,1.9761,1.9131,1.8499,1.808,1.7982,1.7252,1.5998,1.5891,1.5891,1.569,1.5589,1.5369,1.5041,1.4713,1.4498,1.4401,1.4719,1.4996,1.5127,1.5874,1.6556,4.5279,4.5042,4.4676,4.4073,4.3619,4.3277,4.3086,4.2569,4.2114,4.2239,4.1937,4.1014,3.916,3.7029,3.4327,3.0637,3.0543,2.9986,2.7313,2.6919,2.6075,2.373,2.3481,2.2979,2.182,2.1741,2.1741,2.1741,2.0808,1.9886,1.888,1.7878,1.6857,1.5832,1.5832,1.5737,1.573,1.5547,1.5452,1.5356,1.4975,1.4688,1.4592,1.4394,1.4298,1.4298,1.4298,1.4298,1.4298,1.4298,1.4298,1.4298,1.4298,1.4298,1.4298,1.4298,1.4298,1.4298,1.4298,1.4298,1.4298,1.4298,1.4298,1.4208,1.3931,1.3682,1.3526,1.3768,1.3724,1.3817,1.4891,1.594,1.6942,1.7779,1.8632,1.9279,1.9279,1.9279,1.9175,1.8974,1.9078,1.9272,1.968,2.0086,2.0593,2.1191,2.1497,2.17,2.17,2.1395,2.1089,2.0783,2.0254,1.9826,1.9531,1.9324,1.8394,1.6617,1.6617,1.6518,1.6211,1.6111,1.5785,1.5238,1.5137,1.5064,1.4916,1.5552,1.6,1.6252,1.6801,1.7611,4.4819,4.4364,4.3986,4.3998,4.4165,4.393,4.2531,4.2492,4.2456,4.1525,4.081,3.9846,3.8068,3.5706,3.3647,3.2331,3.1082,2.8959,2.521,2.4744,2.4049,2.2069,2.19,2.182,2.1731,2.1741,2.1741,2.1741,2.0808,1.9886,1.888,1.7878,1.6857,1.5832,1.5832,1.573,1.554,1.5267,1.5083,1.5083,1.4885,1.4592,1.4298,1.4298,1.4298,1.4298,1.4298,1.4298,1.4298,1.4298,1.4298,1.4298,1.4298,1.4298,1.4298,1.4298,1.4298,1.4298,1.4298,1.4298,1.4298,1.4298,1.4112,1.3931,1.3931,1.3699,1.3541,1.3818,1.3844,1.4057,1.5146,1.608,1.6942,1.7779,1.8632,1.9279,1.9279,1.9279,1.9175,1.8974,1.948,1.9983,1.9783,2.1105,2.2325,2.2426,2.3338,2.3945,2.3945,2.2828,2.1912,2.1591,2.0451,1.9531,1.922,1.9228,1.8916,1.829,1.8708,1.8708,1.8185,1.7982,1.7569,1.7041,1.673,1.6643,1.7016,1.7016,1.7045,1.708,1.7981,1.8368,4.4745,4.4005,4.3302,4.3457,4.3256,4.2869,4.2172,4.1672,4.1305,4.1375,4.0408,3.8891,3.681,3.3845,3.1542,3.0935,2.9974,2.8243,2.4988,2.4498,2.38,2.1909,2.1741,2.1741,2.1741,2.1741,2.1741,2.1741,2.0808,2.0158,1.9704,1.8788,1.8056,1.7684,1.6936,1.6473,1.6379,1.535,1.4885,1.4885,1.4592,1.4394,1.4298,1.4298,1.4298,1.4298,1.4298,1.4298,1.4298,1.4298,1.4298,1.4298,1.4298,1.4298,1.4298,1.4298,1.4298,1.4298,1.4298,1.4298,1.4298,1.4118,1.4027,1.3835,1.3539,1.3417,1.3657,1.4202,1.4459,1.471,1.5388,1.6092,1.6942,1.7779,1.8632,1.9279,1.9279,1.9175,1.9175,1.9583,1.9783,2.0189,2.131,2.2021,2.2728,2.3438,2.3945,2.4152,2.3954,2.3447,2.3038,2.2526,2.1912,2.1395,2.1302,2.0987,2.068,2.0475,1.9324,1.8387,1.7667,1.7562,1.7444,1.7199,1.7098,1.713,1.7527,1.7857,1.8112,1.8275,1.8843,1.9124,4.3748,4.3051,4.2282,4.2019,4.1828,4.1598,4.0969,4.0595,4.0346,4.0231,3.9304,3.789,3.5563,3.2891,3.0878,3.0289,2.9151,2.7557,2.5242,2.4659,2.3887,2.2334,2.19,2.1741,2.1741,2.1741,2.1741,2.1741,2.1087,2.0619,2.0339,1.9613,1.8972,1.8703,1.7777,1.7217,1.7124,1.619,1.5629,1.5527,1.5051,1.458,1.4298,1.4298,1.4298,1.4298,1.4298,1.4298,1.4298,1.4298,1.4298,1.4298,1.4298,1.4298,1.4298,1.4298,1.4298,1.4298,1.4298,1.4202,1.4112,1.3931,1.3835,1.3539,1.3244,1.3462,1.3947,1.4517,1.5124,1.5755,1.6143,1.6723,1.7252,1.7877,1.8632,1.9279,1.9279,1.9078,1.9175,1.9983,2.0181,2.0688,2.2224,2.2828,2.3338,2.4053,2.4152,2.4053,2.3845,2.3755,2.3456,2.2946,2.2745,2.2544,2.2342,2.1928,2.1571,2.1369,1.9911,1.8857,1.8337,1.8232,1.8276,1.8156,1.8156,1.8303,1.8604,1.8938,1.9255,1.9523,1.9644,1.9693,4.1715,4.1422,4.0894,3.9566,4.0023,4.0353,3.8672,3.9311,3.9715,3.7815,3.737,3.6675,3.4339,3.3154,3.2233,3.111,2.8975,2.7139,2.5986,2.5073,2.4145,2.3183,2.2246,2.1731,2.1741,2.1741,2.1741,2.1741,2.1741,2.1275,2.0339,2.0076,1.9438,1.8427,1.8257,1.7986,1.7692,1.7692,1.7584,1.7289,1.6264,1.533,1.4292,1.4298,1.4298,1.4298,1.4298,1.4298,1.4298,1.4298,1.4298,1.4298,1.4298,1.4298,1.4292,1.4292,1.4298,1.4298,1.4298,1.4112,1.3931,1.3931,1.3539,1.3147,1.3147,1.387,1.4665,1.4767,1.567,1.6942,1.7779,1.7989,1.7989,1.7989,1.8632,1.9279,1.9279,1.9078,1.9175,1.9983,2.0783,2.1591,2.2426,2.3438,2.4152,2.4152,2.4152,2.4053,2.3854,2.3546,2.3147,2.2644,2.2644,2.2342,2.1725,2.1725,2.1369,2.0672,2.059,2.0597,2.0597,2.0597,2.0437,2.023,2.0237,2.0398,2.0735,2.0406,2.0494,2.0732,2.0385,2.0312,4.3324,4.1934,4.0492,4.0575,3.9511,3.8302,3.7891,3.8821,3.9257,3.7329,3.5582,3.42,3.335,3.1662,3.034,3.039,2.8942,2.7348,2.5997,2.5568,2.4808,2.327,2.2843,2.2413,2.1731,2.1741,2.1741,2.1741,2.1741,2.1553,2.1105,2.1015,2.0736,2.0257,1.9347,1.8888,1.8788,1.7855,1.739,1.7296,1.7016,1.6358,1.533,1.458,1.4298,1.4298,1.4298,1.4298,1.4298,1.4298,1.4298,1.4298,1.4298,1.4765,1.533,1.533,1.5798,1.6452,1.6452,1.6183,1.573,1.5534,1.5153,1.4675,1.4573,1.4949,1.5676,1.6286,1.7012,1.7779,1.8736,1.8952,1.8952,1.8952,1.9063,1.9279,1.9078,1.8757,1.9049,2.068,2.0987,2.1599,2.3438,2.3954,2.4152,2.4152,2.4053,2.3746,2.3347,2.3046,2.2745,2.2644,2.2644,2.2342,2.1725,2.1553,2.1225,2.0688,2.039,2.0308,2.0308,2.0308,2.0354,2.0574,2.0574,2.0739,2.1061,2.0699,2.0662,2.0695,2.0341,2.0268,4.1316,3.9937,3.8645,3.8543,3.7729,3.7014,3.7074,3.7671,3.7566,3.5548,3.4244,3.3085,3.2092,3.0706,2.9731,2.9654,2.8597,2.7441,2.6517,2.6008,2.54,2.4286,2.3877,2.328,2.2334,2.2246,2.2078,2.1731,2.1651,2.1562,2.1401,2.1212,2.1024,2.0916,2.0085,1.9621,1.9621,1.888,1.8511,1.8511,1.8041,1.7576,1.6922,1.5988,1.5514,1.5514,1.5514,1.5514,1.5514,1.5514,1.5514,1.5514,1.5514,1.5893,1.6358,1.6358,1.6648,1.703,1.703,1.6662,1.6109,1.5913,1.5622,1.5248,1.5146,1.5732,1.6487,1.71,1.7837,1.8632,1.9168,1.9279,1.9272,1.9175,1.9175,1.9071,1.8757,1.8848,1.9354,2.0979,2.1395,2.2114,2.3845,2.4152,2.4152,2.4053,2.3755,2.3356,2.3046,2.2745,2.2644,2.2644,2.2883,2.2758,2.164,2.1756,2.1597,2.0662,2.0537,2.0545,2.0801,2.0567,2.0647,2.1101,2.1108,2.1249,2.1403,2.1033,2.0828,2.0882,2.1119,2.1181,3.7614,3.6853,3.6153,3.4949,3.5458,3.6353,3.6353,3.6167,3.5434,3.3339,3.3213,3.2932,3.0872,3.0266,2.9846,2.9015,2.8131,2.7499,2.7301,2.6517,2.5913,2.5819,2.5084,2.4231,2.327,2.3183,2.2755,2.1909,2.1741,2.1651,2.1571,2.1105,2.0826,2.0826,2.0464,2.0292,2.0292,2.0292,2.0292,2.0292,1.9355,1.898,1.8888,1.7762,1.7296,1.7296,1.7296,1.7296,1.7296,1.7296,1.7296,1.7296,1.7296,1.739,1.739,1.739,1.7124,1.6864,1.6864,1.6292,1.5622,1.5622,1.5527,1.5337,1.5337,1.6226,1.7299,1.7299,1.8259,1.9279,1.9279,1.9279,1.9175,1.9078,1.8974,1.8869,1.8534,1.9153,2.0086,2.1183,2.2013,2.2828,2.4044,2.4152,2.4053,2.3746,2.3347,2.3046,2.2946,2.2846,2.2754,2.2797,2.3609,2.3418,2.1901,2.2544,2.2465,2.1182,2.1123,2.142,2.2052,2.1252,2.1101,2.173,2.1745,2.1654,2.1711,2.135,2.1147,2.1073,2.2148,2.2791,4.0648,3.8687,3.666,3.6333,3.606,3.5867,3.5978,3.6384,3.6322,3.4971,3.3016,3.1415,3.1071,3.0088,2.9328,2.9263,2.8486,2.7788,2.7719,2.7301,2.6622,2.5913,2.5348,2.4669,2.3704,2.3627,2.3367,2.2872,2.3474,2.3541,2.3008,2.2403,2.1961,2.1686,2.0817,2.0292,2.0292,2.0292,2.0292,2.0292,2.0102,2.0011,1.9911,1.8133,1.7296,1.7296,1.7296,1.7296,1.7296,1.7296,1.7296,1.7296,1.7296,1.7762,1.8419,1.8048,1.8334,1.8904,1.845,1.7986,1.752,1.752,1.7232,1.6857,1.6857,1.7394,1.8101,1.8101,1.8665,1.9279,1.9279,1.9175,1.9175,1.968,1.9376,1.8974,1.9368,1.9576,2.0181,2.1912,2.2426,2.2828,2.4044,2.4053,2.3755,2.3247,2.3538,2.3538,2.2745,2.3719,2.4334,2.4068,2.4583,2.4756,2.4313,2.45,2.4464,2.4064,2.4253,2.4611,2.5053,2.2713,2.1672,2.2067,2.1821,2.1725,2.1666,2.1299,2.1094,2.1141,2.2359,2.3003,3.9236,3.7731,3.644,3.5782,3.5409,3.5184,3.5169,3.5608,3.5755,3.5121,3.3693,3.2352,3.1355,3.062,2.9947,2.9496,2.8961,2.8578,2.8339,2.8099,2.7672,2.6999,2.6987,2.6472,2.4893,2.5052,2.4808,2.381,2.4059,2.4049,2.3434,2.3008,2.257,2.2217,2.1606,2.1347,2.1347,2.1347,2.1347,2.1347,2.1347,2.1177,2.0826,1.9347,1.8703,1.8703,1.8703,1.8703,1.8703,1.8703,1.8703,1.8703,1.8703,1.8888,1.9171,1.8888,1.8804,1.8819,1.855,1.8179,1.78,1.8257,1.8249,1.8056,1.8511,1.8814,1.8973,1.8973,1.9171,1.9272,1.9175,1.9376,1.968,1.9879,1.9583,1.948,2.0078,2.0696,2.131,2.2325,2.2929,2.3438,2.3954,2.3646,2.3447,2.3538,2.3438,2.3438,2.3628,2.429,2.4692,2.4822,2.561,2.5993,2.5414,2.5829,2.5904,2.5501,2.5594,2.5878,2.6248,2.4683,2.3858,2.4039,2.3792,2.3715,2.3458,2.2711,2.2551,2.2959,2.3525,2.4055,3.7429,3.6495,3.606,3.4743,3.4563,3.4698,3.4668,3.4854,3.5052,3.4868,3.4581,3.3765,3.2001,3.1502,3.1057,2.9935,2.9716,2.9484,2.8949,2.887,2.8645,2.8327,2.8621,2.8108,2.6152,2.64,2.6163,2.4584,2.4402,2.4221,2.3694,2.3444,2.3096,2.2746,2.2482,2.2394,2.2394,2.2394,2.2394,2.2394,2.2394,2.2138,2.1526,2.0907,2.0555,2.0292,2.0292,2.0292,2.0292,2.0292,2.0292,2.0201,2.0374,2.0102,1.9729,1.982,1.9363,1.8627,1.8442,1.8156,1.7963,1.8788,1.9063,1.9155,1.996,2.0118,2.0039,2.0039,1.9961,1.9783,1.948,2.0086,2.0585,2.0285,2.0189,2.0388,2.0987,2.1912,2.2526,2.2728,2.3538,2.4053,2.3755,2.3447,2.3338,2.3935,2.3538,2.3646,2.489,2.5011,2.5191,2.5543,2.6872,2.7284,2.6373,2.7114,2.7407,2.6761,2.6663,2.6848,2.7243,2.6889,2.677,2.6652,2.6177,2.5857,2.557,2.4386,2.4101,2.483,2.4707,2.5263,4.022,3.8286,3.6122,3.4957,3.4698,3.4883,3.5544,3.5721,3.5721,3.5514,3.4499,3.363,3.3506,3.2763,3.1974,3.1355,3.0908,3.038,2.9419,2.9028,2.8803,2.8724,2.8303,2.7637,2.673,2.6588,2.5946,2.4615,2.5211,2.5454,2.502,2.4317,2.3963,2.3867,2.2921,2.2394,2.2394,2.2394,2.2394,2.2394,2.2394,2.2306,2.2217,2.2138,2.1427,2.0292,2.0292,2.0292,2.0292,2.0292,2.0102,1.9729,2.0637,2.0645,2.0292,2.0637,2.0718,2.0538,2.0068,1.9869,1.9869,1.996,2.0051,2.0051,2.0141,2.067,2.1179,2.1179,2.1419,2.1684,2.1684,2.1387,2.1387,2.2316,2.2325,2.2123,2.2224,2.2426,2.2828,2.3746,2.3945,2.3646,2.3147,2.3538,2.3935,2.3728,2.4815,2.5635,2.5496,2.6586,2.7422,2.7373,2.8216,2.8913,2.8927,2.9128,2.9434,2.9613,2.9642,2.9843,3.0296,2.9944,2.971,2.9356,2.6944,2.5644,2.557,2.4746,2.4338,2.4458,2.5293,2.5719,3.9344,3.6985,3.4912,3.4081,3.3948,3.4221,3.4905,3.5234,3.5299,3.5103,3.4572,3.4031,3.3575,3.3129,3.2563,3.1928,3.1341,3.0745,3.0469,2.9883,2.9431,2.9184,2.9172,2.8846,2.7822,2.7568,2.6987,2.6102,2.6373,2.6445,2.5946,2.5589,2.5326,2.5062,2.4059,2.356,2.356,2.356,2.356,2.356,2.3212,2.3038,2.3038,2.258,2.2041,2.1526,2.1526,2.1436,2.1356,2.1356,2.1087,2.0826,2.1275,2.1096,2.0736,2.0907,2.0799,2.052,2.024,2.0232,2.0322,2.0872,2.1051,2.115,2.1686,2.1971,2.2132,2.2037,2.2008,2.1988,2.1684,2.1895,2.2308,2.2627,2.3038,2.3438,2.3438,2.3438,2.3538,2.3945,2.3646,2.3247,2.3046,2.3538,2.4026,2.4313,2.5001,2.5742,2.6764,2.7462,2.8014,2.8446,2.9142,2.9629,2.9843,2.9927,3.0107,3.0557,3.0586,3.0558,3.0626,3.0274,2.9808,2.9338,2.8244,2.7528,2.7208,2.6041,2.5847,2.6231,2.5746,2.5917,3.8837,3.6753,3.5223,3.3989,3.3848,3.4056,3.4099,3.4452,3.4735,3.4631,3.4631,3.4399,3.3659,3.352,3.3367,3.2648,3.206,3.1549,3.122,3.0722,3.0203,2.9664,2.9973,2.9831,2.8657,2.8371,2.7959,2.7255,2.7174,2.701,2.6682,2.6682,2.6423,2.583,2.5189,2.4861,2.4861,2.502,2.502,2.4861,2.4337,2.4003,2.3764,2.3202,2.2931,2.2843,2.2492,2.2227,2.205,2.2069,2.1802,2.1553,2.182,2.1633,2.1168,2.1436,2.1248,2.0962,2.0962,2.0962,2.1051,2.1784,2.2059,2.2148,2.2872,2.309,2.3084,2.2896,2.2797,2.2601,2.2198,2.271,2.3129,2.2929,2.3538,2.4152,2.4152,2.4053,2.3954,2.3646,2.3247,2.3046,2.3147,2.3628,2.4313,2.5099,2.5479,2.6192,2.7744,2.8086,2.839,2.9156,2.9779,3.0211,3.0166,3.0303,3.0518,3.0869,3.0772,3.0645,3.0392,2.9935,2.9376,2.8834,2.903,2.875,2.8242,2.716,2.6956,2.76,2.6178,2.6104,4.0509,3.9765,3.8611,3.5784,3.5304,3.5094,3.363,3.3894,3.4414,3.4414,3.4414,3.4414,3.4346,3.4481,3.4399,3.3796,3.3644,3.3073,3.1442,3.1158,3.0859,3.0152,2.9934,2.9546,2.8882,2.8621,2.8131,2.7151,2.7069,2.7069,2.7069,2.7069,2.6648,2.5819,2.5746,2.5746,2.5746,2.6565,2.6577,2.5746,2.5746,2.5263,2.4454,2.4454,2.4282,2.4024,2.2687,2.2148,2.2059,2.182,2.1454,2.1087,2.1989,2.2069,2.1784,2.2687,2.296,2.296,2.296,2.296,2.296,2.3047,2.3047,2.3047,2.3057,2.3461,2.3942,2.3942,2.4173,2.4332,2.4332,2.4242,2.4152,2.4152,2.4152,2.4152,2.3854,2.3854,2.3655,2.3147,2.3046,2.3147,2.3628,2.4313,2.5089,2.5897,2.7023,2.7863,2.8135,2.8879,2.9389,2.9421,3.0125,3.0527,3.0195,3.0605,3.0869,3.0889,3.0635,3.0382,3.0382,2.9417,2.8844,2.8825,2.8242,2.782,2.7792,2.7416,2.7224,2.7196,2.6802,2.6509,3.981,3.9194,3.8606,3.6715,3.5768,3.5322,3.5289,3.4802,3.4414,3.4414,3.4414,3.4414,3.4414,3.4481,3.4414,3.4249,3.3742,3.3213,3.2577,3.1636,3.0908,3.062,3.0139,2.9714,2.9456,2.887,2.8383,2.8051,2.7971,2.7971,2.7971,2.7971,2.7891,2.7545,2.6976,2.6648,2.6648,2.6905,2.6905,2.6648,2.6069,2.5579,2.5094,2.4529,2.4196,2.3937,2.3309,2.296,2.296,2.2882,2.2608,2.2334,2.2696,2.2784,2.2599,2.296,2.3135,2.3135,2.3135,2.3135,2.3135,2.3135,2.3135,2.3057,2.2969,2.3371,2.3942,2.3598,2.4,2.444,2.4341,2.4242,2.4152,2.4152,2.4152,2.4053,2.3646,2.3546,2.3447,2.3046,2.2846,2.2946,2.3628,2.4412,2.5187,2.5994,2.715,2.8105,2.8554,2.9221,2.9728,3.0135,3.0522,3.076,3.0644,3.0791,3.0772,3.0635,3.0509,3.014,2.9408,2.9016,2.8468,2.7835,2.7575,2.7389,2.7389,2.7242,2.705,2.6793,2.6655,2.6136,4.0138,3.963,3.9125,3.7744,3.6794,3.6061,3.5579,3.491,3.4288,3.4031,3.3977,3.4113,3.4346,3.4414,3.4414,3.4414,3.3962,3.352,3.3227,3.2349,3.1549,3.1328,3.0846,3.0583,3.0583,2.9781,2.9303,2.9303,2.9094,2.8961,2.8961,2.8961,2.8791,2.8542,2.7891,2.7557,2.7476,2.7718,2.7718,2.7313,2.673,2.6235,2.583,2.5274,2.469,2.4176,2.4003,2.3754,2.3503,2.3406,2.3232,2.3135,2.3135,2.3135,2.3135,2.3135,2.3135,2.3135,2.3135,2.3135,2.3135,2.3135,2.3047,2.2969,2.2794,2.3209,2.3682,2.343,2.3818,2.4341,2.4251,2.4152,2.4152,2.4152,2.4152,2.3954,2.3546,2.3447,2.3247,2.2946,2.2946,2.3238,2.3917,2.4805,2.5635,2.658,2.7594,2.8358,2.8806,2.9595,3.0117,3.0488,3.0731,3.0889,3.0889,3.0889,3.0762,3.0382,2.977,2.9095,2.8235,2.7855,2.7113,2.603,2.6243,2.618,2.5828,2.618,2.6277,2.6017,2.5569,2.5008,0.0,0.0,0.0,3.8952,3.839,3.7472,3.4558,3.408,3.4076,3.3408,3.3283,3.352,3.4264,3.4414,3.4414,3.4414,3.4414,3.4113,3.3297,3.3213,3.2932,3.2218,3.2074,3.2074,3.2074,3.1341,3.0895,3.0895,3.0203,2.9792,2.9792,2.9792,2.9378,2.8542,2.8542,2.8383,2.8143,2.8937,2.8858,2.7799,2.7799,2.7325,2.6528,2.6528,2.5852,2.4829,2.4829,2.4337,2.3503,2.3232,2.3135,2.3135,2.3135,2.3135,2.3135,2.3135,2.3135,2.3135,2.3047,2.3057,2.3057,2.3047,2.2969,2.2803,2.2813,2.3047,2.3336,2.3251,2.374,2.4152,2.4152,2.4152,2.4152,2.4152,2.3954,2.3746,2.3456,2.3356,2.3247,2.2745,2.3238,2.3926,2.4796,2.5596,2.653,2.7754,2.8409,2.8847,2.9092,2.9968,3.0557,3.0215,3.0625,3.0889,3.0889,3.0889,3.0762,3.0392,2.8553,2.7381,2.7003,2.5941,2.475,2.359,2.439,2.4214,2.2974,2.4223,2.4778,2.4667,2.3544,2.2974,4.13,0.0,0.0,0.0,0.0,0.0,3.7802,3.688,3.595,3.5014,3.478,3.4728,3.4467,3.4414,3.4414,3.4414,3.4414,3.4113,3.3297,3.3213,3.2932,3.2218,3.2074,3.1856,3.1267,3.1044,3.0683,3.0139,2.9934,2.9702,2.9509,2.9365,2.9209,2.8961,2.8961,2.8882,2.8803,2.904,2.904,2.8712,2.8131,2.7557,2.7232,2.6588,2.6019,2.5495,2.4829,2.4413,2.4166,2.3396,2.3135,2.3135,2.3135,2.3135,2.3135,2.3135,2.3135,2.3047,2.2969,2.2882,2.2882,2.2618,2.253,2.2498,2.2702,2.2999,2.3298,2.3395,2.3251,2.2937,2.2937,2.3438,2.3945,2.3945,2.3755,2.3447,2.3147,2.3147,2.3046,2.2644,2.3238,2.3926,2.4796,2.5596,2.653,2.7754,2.8409,2.8958,2.9494,3.0157,3.0675,3.0664,3.081,3.0889,3.0889,3.0889,3.0645,3.0039,2.8445,2.714,2.6269,2.4878,2.3829,2.3238,2.3368,2.3311,2.2974,2.332,2.3544,2.3432,2.2305,2.1737,4.1088,4.1088,4.1088,4.1088,0.0,0.0,3.7794,3.6849,3.5824,3.4321,3.4013,3.4109,3.4332,3.4113,3.4045,3.4346,3.4346,3.4128,3.3742,3.3673,3.352,3.303,3.296,3.2591,3.1709,3.1341,3.0833,3.0062,2.9689,2.9611,2.9793,2.9651,2.9574,2.9574,2.9574,2.9431,2.8961,2.8961,2.8895,2.8816,2.8315,2.8063,2.7903,2.7418,2.6846,2.6329,2.5411,2.4829,2.4413,2.3474,2.3135,2.3135,2.3135,2.3135,2.3135,2.3135,2.3057,2.2969,2.2794,2.2715,2.2618,2.2441,2.2353,2.2349,2.2572,2.2899,2.3222,2.3428,2.3341,2.3138,2.3038,2.3447,2.3746,2.3646,2.3456,2.3147,2.3046,2.3147,2.3247,2.3138,2.3438,2.4026,2.5197,2.5947,2.6773,2.8102,2.8767,2.9439,2.9998,3.0512,3.0827,3.0859,3.0889,3.0889,3.0889,3.0889,3.0334,2.8945,2.7355,2.5787,2.4266,2.3229,2.2269,2.1517,2.1964,2.1964,2.1517,2.1964,2.1964,2.1517,2.0723,2.05,4.084,4.0823,4.0823,4.0823,4.0187,0.0,3.636,3.5674,3.5091,3.3073,3.2678,3.3045,3.437,3.407,3.3768,3.452,3.4385,3.4196,3.4264,3.4278,3.4264,3.3991,3.3991,3.3701,3.2704,3.2028,3.1281,3.0393,2.9729,2.9651,3.0317,3.0393,3.0393,3.0393,3.0317,2.9781,2.8949,2.8791,2.8645,2.851,2.851,2.851,2.851,2.851,2.8099,2.7267,2.6329,2.5411,2.4584,2.356,2.3135,2.3135,2.3135,2.3057,2.3057,2.3057,2.2969,2.2706,2.2715,2.253,2.2353,2.2353,2.2213,2.2236,2.2646,2.288,2.3012,2.3308,2.377,2.4053,2.3746,2.3646,2.3646,2.3447,2.3147,2.2946,2.3046,2.3338,2.3628,2.3926,2.3926,2.4421,2.5897,2.6565,2.7362,2.8655,2.9328,2.9879,3.0551,3.0721,3.0889,3.0889,3.0889,3.0889,3.0889,3.0762,2.9742,2.7651,2.5821,2.3941,2.1891,2.1342,2.05,1.9366,2.05,2.05,1.9366,2.05,2.05,1.9366,1.9366,1.9366,4.0502,4.0404,4.0404,4.0404,4.0003,0.0,3.8917,3.8531,3.7905,3.6645,3.6353,3.6291,3.6072,3.5867,3.5852,3.6009,3.537,3.4528,3.3409,3.373,3.373,3.3058,3.3507,3.3368,3.1882,3.2187,3.1882,3.0393,3.062,3.0859,3.0996,3.0833,3.0745,3.0745,3.0152,2.9704,2.9549,2.8882,2.851,2.851,2.851,2.851,2.851,2.851,2.8431,2.8179,2.7336,2.634,2.5231,2.4307,2.3551,2.3135,2.3135,2.2969,2.2882,2.2882,2.2706,2.2441,2.2264,2.2185,2.2097,2.1919,2.2041,2.2382,2.2703,2.3116,2.3317,2.281,2.3285,2.3646,2.2636,2.2837,2.3147,2.3046,2.2846,2.2846,2.3438,2.3138,2.3338,2.5304,2.5606,2.5703,2.61,2.6761,2.7661,2.8655,2.9126,2.9679,3.0438,3.0721,3.0889,3.0889,3.0889,3.0889,3.0889,2.9903,2.8755,2.7534,2.5017,2.3027,2.1891,2.0431,1.9591,1.9366,1.9597,1.9597,1.9366,1.9591,1.9597,1.9366,1.9366,1.9366,4.0631,4.0583,4.0583,4.0583,4.0104,0.0,0.0,3.8679,3.8133,3.6886,3.6794,3.687,3.6492,3.6399,3.6414,3.643,3.5773,3.4999,3.4056,3.3922,3.3744,3.3227,3.3521,3.3227,3.1942,3.216,3.1869,3.0683,3.0908,3.1206,3.1649,3.1563,3.1489,3.1489,3.1119,3.067,3.0291,2.9471,2.9106,2.9106,2.8657,2.8431,2.8339,2.8339,2.8271,2.8111,2.7278,2.6517,2.5924,2.4999,2.4155,2.3377,2.296,2.2706,2.2618,2.2618,2.2441,2.2274,2.2097,2.2008,2.1946,2.197,2.2162,2.2437,2.3061,2.3529,2.3788,2.3285,2.3447,2.3646,2.2745,2.2745,2.2946,2.2846,2.2946,2.3238,2.3628,2.4026,2.4716,2.5897,2.639,2.6678,2.6678,2.7039,2.7673,2.8773,2.9349,2.9905,3.0669,3.0868,3.0889,3.0889,3.0889,3.0889,3.0889,2.9658,2.8183,2.6408,2.433,2.2378,2.0632,1.9781,1.9366,1.9366,1.9366,1.9366,1.9366,1.9366,1.9366,1.9366,1.9366,1.9366,4.0823,4.0776,4.0776,4.0776,4.0187,3.9423,0.0,0.0,0.0,3.682,3.6877,3.7085,3.7037,3.703,3.7038,3.682,3.6322,3.5793,3.5353,3.467,3.4005,3.3605,3.3536,3.3143,3.216,3.2074,3.1856,3.1415,3.1341,3.1649,3.2318,3.2318,3.2318,3.2232,3.2087,3.1636,3.0895,3.0075,2.9704,2.9704,2.8961,2.8498,2.8327,2.8179,2.803,2.7893,2.7126,2.661,2.6362,2.5695,2.4744,2.3627,2.295,2.252,2.2353,2.2353,2.2176,2.2017,2.2091,2.203,2.1915,2.2318,2.2502,2.2694,2.3437,2.3895,2.4053,2.3854,2.3755,2.3555,2.3147,2.3046,2.3046,2.2846,2.3438,2.3917,2.4125,2.5109,2.5994,2.6294,2.6678,2.7061,2.7262,2.7281,2.7673,2.8906,2.964,3.0217,3.0791,3.0889,3.0889,3.0889,3.0889,3.0772,3.0518,2.9285,2.7366,2.4836,2.3528,2.1729,1.9508,1.9366,1.9366,1.9366,1.9366,1.9366,1.9366,1.9127,1.9127,1.9366,1.9127,1.8881,4.0566,4.0355,4.0355,4.0355,4.0003,3.9662,3.9969,0.0,3.9368,3.9229,0.0,3.9229,3.9246,0.0,0.0,3.8363,3.7832,3.7297,3.683,3.5861,3.4758,3.3452,3.3326,3.3016,3.216,3.2074,3.239,3.3016,3.3016,3.3086,3.3171,3.3157,3.3016,3.2618,3.1955,3.1368,3.0934,3.0088,2.9704,2.9704,2.9106,2.8712,2.8712,2.8191,2.7881,2.7881,2.78,2.7208,2.6185,2.6113,2.4904,2.3183,2.3541,2.3028,2.2097,2.2097,2.2008,2.1786,2.2135,2.2254,2.2327,2.274,2.3021,2.3492,2.3941,2.4016,2.3854,2.3854,2.3447,2.3046,2.3046,2.3338,2.3628,2.3628,2.4214,2.4992,2.5693,2.5392,2.5479,2.687,2.6476,2.6187,2.7156,2.7842,2.8455,2.9051,2.9658,3.0312,3.082,3.0889,3.0889,3.0889,3.0889,3.0401,2.9285,2.77,2.5807,2.3582,2.1893,2.0564,1.9392,1.9366,1.9366,1.9366,1.9366,1.9366,1.9366,1.8292,1.8292,1.9366,1.8286,1.7566,4.1082,4.1007,4.096,4.0728,4.0514,4.0431,4.0614,4.032,4.002,4.002,0.0,0.0,0.0,0.0,0.0,0.0,3.8623,3.8147,3.7665,3.6758,3.5917,3.5329,3.4633,3.3948,3.3297,3.3297,3.3157,3.3002,3.3199,3.3199,3.2646,3.2574,3.2503,3.2345,3.2042,3.175,3.1616,3.0784,3.0406,3.0406,2.9626,2.9106,2.8657,2.8351,2.7962,2.7476,2.7476,2.7219,2.6798,2.6798,2.61,2.5141,2.5314,2.3944,2.1857,2.2087,2.217,2.2135,2.2547,2.2694,2.2758,2.3162,2.3574,2.3923,2.3998,2.3854,2.3755,2.3447,2.3447,2.3637,2.3438,2.3926,2.4402,2.4402,2.5001,2.5693,2.5994,2.6187,2.6466,2.7156,2.6784,2.6577,2.7324,2.7864,2.8316,2.8764,2.9597,3.0361,3.083,3.0889,3.0889,3.0889,3.0147,2.953,2.892,2.6737,2.4746,2.3234,2.1199,1.9737,1.9379,1.9366,1.9366,1.9366,1.8648,1.8292,1.8286,1.6991,1.6638,1.7232,1.6391,1.5908,4.1725,4.1587,4.1401,4.1012,4.099,4.1076,4.1071,4.0931,4.0772,4.0645,4.0853,0.0,0.0,0.0,4.0514,3.9581,0.0,3.89,3.8412,3.7728,3.7109,3.6734,3.5806,3.4978,3.4566,3.4394,3.3782,3.2747,3.3157,3.2946,3.1882,3.1982,3.2055,3.1982,3.1982,3.1909,3.1776,3.1246,3.096,3.096,3.0177,2.9496,2.8895,2.8578,2.8111,2.7464,2.7126,2.7042,2.7178,2.7107,2.679,2.6433,2.6433,2.4808,2.246,2.284,2.2943,2.2999,2.3327,2.3739,2.4155,2.445,2.4667,2.4824,2.4627,2.443,2.4134,2.3737,2.3926,2.4223,2.4115,2.4609,2.5197,2.5197,2.5887,2.639,2.639,2.687,2.7262,2.7262,2.6986,2.6937,2.7276,2.7792,2.8295,2.8846,2.9793,3.0508,3.085,3.0889,3.0889,3.0889,2.9658,2.8673,2.8307,2.5896,2.3787,2.2401,2.0496,1.9366,1.9366,1.901,1.8887,1.8887,1.7578,1.6979,1.6985,1.5688,1.5095,1.5095,1.4733,1.4371,4.2203,4.1757,4.1401,4.1012,4.1192,4.1472,4.1472,4.1821,4.2032,4.1561,4.1472,4.1311,4.0776,4.0697,4.0408,3.9529,3.9664,0.0,0.0,3.888,3.8222,3.6854,3.6152,3.5743,3.5743,3.5014,3.4027,3.2678,3.3017,3.2676,3.1328,3.1809,3.1909,3.1629,3.1629,3.1421,3.1061,3.0986,3.0986,3.0986,3.0279,2.996,2.9883,2.8724,2.8179,2.8099,2.7021,2.6797,2.7171,2.6766,2.6344,2.5944,2.5944,2.531,2.4394,2.4385,2.4467,2.4536,2.4863,2.5929,2.7053,2.7063,2.6809,2.6456,2.6456,2.5877,2.5294,2.5197,2.5099,2.4894,2.4894,2.5489,2.6091,2.6091,2.6678,2.7262,2.7262,2.7262,2.7262,2.7262,2.688,2.6637,2.707,2.7938,2.8856,2.9174,3.0143,3.0869,3.0889,3.0889,3.0889,3.0889,2.9403,2.7931,2.672,2.4786,2.269,2.0382,1.9686,1.9366,1.9366,1.8169,1.7572,1.7572,1.6279,1.5688,1.5688,1.4381,1.3784,1.3784,1.3421,1.3062,4.2941,4.2641,4.2239,4.149,4.1864,4.2239,4.1648,4.1864,4.2074,4.1604,4.1428,4.1248,4.0776,4.0648,4.0449,4.0063,4.0085,4.0053,0.0,3.9251,3.8707,3.8237,3.6946,3.5917,3.5443,3.4345,3.3157,3.2015,3.1988,3.1769,3.1097,3.1259,3.1347,3.1198,3.1198,3.1123,3.0986,3.0986,3.0986,3.0986,3.0748,3.0432,2.996,2.9406,2.9132,2.9084,2.8573,2.8289,2.8191,2.8019,2.7701,2.7243,2.7243,2.7345,2.7117,2.5505,2.4938,2.4996,2.5322,2.5846,2.6254,2.6254,2.6071,2.5984,2.5781,2.5489,2.5294,2.5089,2.5392,2.5693,2.5693,2.6284,2.687,2.687,2.7071,2.7262,2.7262,2.7262,2.7262,2.7262,2.688,2.6728,2.7462,2.8043,2.8545,2.8966,3.0049,3.0889,3.0889,3.0147,2.954,2.954,2.7349,2.5652,2.5285,2.3056,2.1282,2.0241,1.8957,1.8169,1.8169,1.6868,1.6279,1.6279,1.4976,1.4381,1.4381,1.308,1.2487,1.2367,1.1008,1.0642,4.3656,4.3398,0.0,4.2091,4.2487,4.2865,4.2157,4.236,4.2519,4.2074,4.176,4.1393,4.0913,4.0614,4.0387,4.0238,4.0238,4.0188,0.0,3.9156,3.8707,3.9102,3.7584,3.6027,3.4922,3.41,3.2848,3.1005,3.1302,3.1254,3.0508,3.0672,3.0761,3.0761,3.0761,3.0761,3.0761,3.0761,3.0761,3.0823,3.1035,3.0914,3.0419,3.0303,3.0227,3.0131,2.9627,2.9343,2.9225,2.904,2.8899,2.8811,2.8811,2.9012,2.9061,2.6701,2.5854,2.5894,2.6174,2.6456,2.6839,2.6733,2.6638,2.6456,2.635,2.6167,2.5984,2.5781,2.6081,2.6486,2.6486,2.687,2.7262,2.7262,2.7262,2.7262,2.7262,2.7262,2.7262,2.7262,2.688,2.6778,2.7663,2.8028,2.8486,2.9062,3.0146,3.0889,3.0889,2.9776,2.892,2.892,2.6261,2.4077,2.3464,2.1149,1.9722,1.9485,1.7869,1.6862,1.6862,1.5569,1.4976,1.4976,1.367,1.3075,1.3075,1.1885,1.1285,1.1163,0.9198,0.8708]},{"header":{"parameterUnit":"m.s-1","parameterCategory":1,"la1":30.6,"la2":29.2853,"lo1":-89.7004,"lo2":-87.6739,"dy":0.0162,"dx":0.0183,"nx":112,"ny":82,"refTime":"2024-03-14T06:00:00:Z","depth":0,"parameterNumber":3,"parameterNumberName":"V-component_of_WINDS"},"data":[0.0,0.0,0.0,0.0,0.0,0.0,0.0,0.0,0.0,0.0,0.0,0.0,0.0,0.0,0.0,0.0,0.0,0.0,0.0,0.0,0.0,0.0,0.0,0.0,0.0,0.0,0.0,0.0,0.0,0.0,0.0,0.0,0.0,0.0,0.0,0.0,0.0,0.0,0.0,0.0,0.0,0.0,0.0,0.0,0.0,0.0,0.0,0.0,0.0,0.0,0.0,0.0,0.0,0.0,0.0,0.0,0.0,0.0,0.0,0.0,0.0,0.0,0.0,0.0,0.0,0.0,0.0,0.0,0.0,0.0,0.0,0.0,0.0,0.0,0.0,0.0,0.0,0.0,0.0,0.0,0.0,0.0,0.0,0.0,0.0,0.0,0.0,0.0,0.0,0.0,-1.5751,-1.7888,-1.5823,-1.428,-1.428,-1.4303,-1.5566,-1.8613,0.0,0.0,0.0,0.0,0.0,0.0,0.0,0.0,0.0,0.0,0.0,0.0,0.0,0.0,0.0,0.0,0.0,0.0,0.0,0.0,0.0,0.0,0.0,0.0,0.0,0.0,0.0,0.0,0.0,0.0,0.0,0.0,0.0,0.0,0.0,0.0,0.0,0.0,0.0,0.0,0.0,0.0,0.0,0.0,0.0,0.0,0.0,0.0,0.0,0.0,0.0,0.0,0.0,0.0,0.0,0.0,0.0,0.0,0.0,0.0,0.0,0.0,0.0,0.0,0.0,0.0,0.0,0.0,0.0,0.0,0.0,0.0,0.0,0.0,0.0,0.0,0.0,0.0,0.0,0.0,0.0,0.0,0.0,0.0,0.0,0.0,0.0,0.0,0.0,0.0,0.0,0.0,0.0,0.0,0.0,0.0,0.0,0.0,0.0,0.0,0.0,0.0,0.0,0.0,-1.7301,-1.5188,-1.4558,-1.4291,-1.4291,-1.4313,-1.5543,-1.8612,0.0,0.0,0.0,0.0,0.0,0.0,0.0,0.0,0.0,0.0,0.0,0.0,0.0,0.0,0.0,0.0,0.0,0.0,0.0,0.0,0.0,0.0,0.0,0.0,0.0,0.0,0.0,0.0,0.0,0.0,0.0,0.0,0.0,0.0,0.0,0.0,0.0,0.0,0.0,0.0,0.0,0.0,0.0,0.0,0.0,0.0,0.0,0.0,0.0,0.0,0.0,0.0,0.0,0.0,0.0,0.0,0.0,0.0,0.0,0.0,0.0,0.0,0.0,0.0,0.0,0.0,0.0,0.0,0.0,0.0,0.0,0.0,0.0,0.0,0.0,0.0,0.0,0.0,0.0,0.0,0.0,0.0,0.0,0.0,0.0,0.0,0.0,0.0,0.0,0.0,0.0,0.0,0.0,0.0,0.0,0.0,0.0,0.0,0.0,0.0,0.0,0.0,0.0,-1.9668,-1.8303,-1.6901,-1.5295,-1.4306,-1.4306,-1.5792,-1.7369,-1.8675,-1.7542,0.0,0.0,0.0,0.0,0.0,0.0,0.0,0.0,0.0,0.0,0.0,0.0,0.0,0.0,0.0,0.0,0.0,0.0,0.0,0.0,0.0,0.0,0.0,0.0,0.0,0.0,0.0,0.0,0.0,0.0,0.0,0.0,0.0,0.0,0.0,0.0,0.0,0.0,0.0,0.0,0.0,0.0,0.0,0.0,0.0,0.0,0.0,0.0,0.0,0.0,0.0,0.0,0.0,0.0,0.0,0.0,0.0,0.0,0.0,0.0,0.0,0.0,0.0,0.0,0.0,0.0,0.0,0.0,0.0,0.0,0.0,0.0,0.0,0.0,0.0,0.0,0.0,0.0,0.0,0.0,0.0,0.0,0.0,0.0,0.0,0.0,0.0,0.0,0.0,0.0,0.0,0.0,0.0,0.0,0.0,0.0,0.0,0.0,0.0,0.0,0.0,0.0,-1.9579,-1.8819,-1.8843,-1.6772,-1.5345,-1.5345,-1.7487,-1.8798,-1.8824,-1.8759,0.0,0.0,0.0,0.0,0.0,0.0,0.0,0.0,0.0,0.0,0.0,0.0,0.0,0.0,0.0,0.0,0.0,0.0,0.0,0.0,0.0,0.0,0.0,0.0,0.0,0.0,0.0,0.0,0.0,0.0,0.0,0.0,0.0,0.0,0.0,0.0,0.0,0.0,0.0,0.0,0.0,0.0,0.0,0.0,0.0,0.0,0.0,0.0,0.0,0.0,0.0,0.0,0.0,0.0,0.0,0.0,0.0,0.0,0.0,0.0,0.0,0.0,0.0,0.0,0.0,0.0,0.0,0.0,0.0,0.0,0.0,0.0,0.0,0.0,0.0,0.0,0.0,0.0,0.0,0.0,0.0,0.0,0.0,0.0,0.0,0.0,0.0,0.0,0.0,0.0,0.0,0.0,0.0,0.0,0.0,0.0,0.0,0.0,0.0,0.0,0.0,0.0,-1.9958,-1.8807,-1.8807,-1.8619,-1.8505,-1.8505,-1.8717,-1.8765,-1.8846,-1.883,0.0,0.0,0.0,0.0,0.0,0.0,0.0,0.0,0.0,0.0,0.0,0.0,0.0,0.0,0.0,0.0,0.0,0.0,0.0,0.0,0.0,0.0,0.0,0.0,0.0,0.0,0.0,0.0,0.0,0.0,0.0,0.0,0.0,0.0,0.0,0.0,0.0,0.0,0.0,0.0,0.0,0.0,0.0,0.0,0.0,0.0,0.0,0.0,0.0,0.0,0.0,0.0,0.0,0.0,0.0,0.0,0.0,0.0,0.0,0.0,0.0,0.0,0.0,0.0,0.0,0.0,0.0,0.0,0.0,0.0,0.0,0.0,0.0,0.0,0.0,0.0,0.0,0.0,0.0,0.0,0.0,0.0,0.0,0.0,0.0,0.0,0.0,0.0,0.0,0.0,0.0,0.0,0.0,0.0,0.0,0.0,0.0,0.0,0.0,0.0,0.0,0.0,-2.128,-2.1031,-2.2208,-2.2354,-2.2368,-2.2366,-2.2356,-2.2366,-2.2315,0.0,0.0,0.0,0.0,0.0,0.0,0.0,0.0,0.0,0.0,0.0,0.0,0.0,0.0,0.0,0.0,0.0,0.0,0.0,0.0,0.0,0.0,0.0,0.0,0.0,0.0,0.0,0.0,0.0,0.0,0.0,0.0,0.0,0.0,0.0,0.0,0.0,0.0,0.0,0.0,0.0,0.0,0.0,0.0,0.0,0.0,0.0,0.0,0.0,0.0,0.0,0.0,0.0,0.0,0.0,0.0,0.0,0.0,0.0,0.0,0.0,0.0,0.0,0.0,0.0,0.0,0.0,0.0,0.0,0.0,0.0,0.0,0.0,0.0,0.0,0.0,0.0,0.0,0.0,0.0,0.0,0.0,0.0,0.0,0.0,0.0,0.0,0.0,0.0,0.0,0.0,0.0,0.0,0.0,0.0,0.0,0.0,0.0,0.0,0.0,0.0,0.0,-2.4151,-2.3499,-2.3503,-2.4405,-2.4467,-2.4516,-2.4535,-2.557,-2.6147,-2.6223,0.0,0.0,0.0,0.0,0.0,0.0,0.0,0.0,0.0,0.0,0.0,0.0,0.0,0.0,0.0,0.0,0.0,0.0,0.0,0.0,0.0,0.0,0.0,0.0,0.0,0.0,0.0,0.0,0.0,0.0,0.0,0.0,0.0,0.0,0.0,0.0,0.0,0.0,0.0,0.0,0.0,0.0,0.0,0.0,0.0,0.0,0.0,0.0,0.0,0.0,0.0,0.0,0.0,0.0,0.0,0.0,0.0,0.0,0.0,0.0,0.0,0.0,0.0,0.0,0.0,0.0,0.0,0.0,0.0,0.0,0.0,0.0,0.0,0.0,0.0,0.0,0.0,0.0,0.0,0.0,0.0,0.0,0.0,0.0,0.0,0.0,0.0,0.0,0.0,0.0,0.0,0.0,0.0,0.0,0.0,0.0,0.0,0.0,0.0,0.0,0.0,0.0,-2.7221,-2.6657,-2.5905,-2.4686,-2.4594,-2.4524,-2.4555,-2.7854,-2.9873,0.0,0.0,0.0,0.0,0.0,0.0,0.0,0.0,0.0,0.0,0.0,0.0,0.0,0.0,0.0,0.0,0.0,0.0,0.0,0.0,0.0,0.0,0.0,0.0,0.0,0.0,0.0,0.0,0.0,0.0,0.0,0.0,0.0,0.0,0.0,0.0,0.0,0.0,0.0,0.0,0.0,0.0,0.0,0.0,0.0,0.0,0.0,0.0,0.0,0.0,0.0,0.0,0.0,0.0,0.0,0.0,0.0,0.0,0.0,0.0,0.0,0.0,0.0,0.0,0.0,0.0,0.0,0.0,0.0,0.0,0.0,0.0,0.0,0.0,0.0,0.0,0.0,0.0,0.0,0.0,0.0,0.0,0.0,0.0,0.0,0.0,0.0,0.0,0.0,0.0,0.0,0.0,0.0,0.0,0.0,0.0,0.0,0.0,0.0,0.0,0.0,0.0,0.0,-2.8909,-2.9401,-2.9542,-2.8845,-2.8455,-2.8223,-2.8258,-3.2559,-3.4598,-3.3118,0.0,0.0,0.0,0.0,0.0,0.0,0.0,0.0,0.0,0.0,0.0,0.0,0.0,0.0,0.0,0.0,0.0,0.0,0.0,0.0,0.0,0.0,0.0,0.0,0.0,0.0,0.0,0.0,0.0,0.0,0.0,0.0,0.0,0.0,0.0,0.0,0.0,0.0,0.0,0.0,0.0,0.0,0.0,0.0,0.0,0.0,0.0,0.0,0.0,0.0,0.0,0.0,0.0,0.0,0.0,0.0,0.0,0.0,0.0,0.0,0.0,0.0,0.0,0.0,0.0,0.0,0.0,0.0,0.0,0.0,0.0,0.0,0.0,0.0,0.0,0.0,0.0,0.0,0.0,0.0,0.0,0.0,0.0,0.0,0.0,0.0,0.0,0.0,0.0,0.0,0.0,0.0,0.0,0.0,0.0,0.0,0.0,0.0,0.0,0.0,0.0,0.0,-3.0738,-3.1847,-3.2464,-3.1996,-3.1591,-3.1755,-3.279,-3.5692,-3.6985,-3.5703,0.0,0.0,0.0,0.0,0.0,0.0,0.0,0.0,0.0,0.0,0.0,0.0,0.0,0.0,0.0,0.0,0.0,0.0,0.0,0.0,0.0,0.0,0.0,0.0,0.0,0.0,0.0,0.0,0.0,0.0,0.0,0.0,0.0,0.0,0.0,0.0,0.0,0.0,0.0,0.0,0.0,0.0,0.0,0.0,0.0,0.0,0.0,0.0,0.0,0.0,0.0,0.0,0.0,0.0,0.0,0.0,0.0,0.0,0.0,0.0,0.0,0.0,0.0,0.0,0.0,0.0,0.0,0.0,0.0,0.0,0.0,0.0,0.0,0.0,0.0,0.0,0.0,0.0,0.0,0.0,0.0,0.0,0.0,0.0,0.0,0.0,0.0,0.0,0.0,0.0,0.0,0.0,0.0,0.0,0.0,0.0,0.0,0.0,0.0,0.0,0.0,0.0,-3.2778,-3.4062,-3.4889,-3.4374,-3.4013,-3.4839,-3.7262,-3.7497,-3.7577,-3.7795,0.0,0.0,0.0,0.0,0.0,0.0,0.0,0.0,0.0,0.0,0.0,0.0,0.0,0.0,0.0,0.0,0.0,0.0,0.0,0.0,0.0,0.0,0.0,0.0,0.0,0.0,0.0,0.0,0.0,0.0,0.0,0.0,0.0,0.0,0.0,0.0,0.0,0.0,0.0,0.0,0.0,0.0,0.0,0.0,0.0,0.0,0.0,0.0,0.0,0.0,0.0,0.0,0.0,0.0,0.0,0.0,0.0,0.0,0.0,0.0,-0.8126,-0.7248,0.0,0.0,0.0,0.0,0.0,0.0,0.0,0.0,0.0,0.0,0.0,0.0,0.0,0.0,0.0,0.0,0.0,0.0,0.0,0.0,0.0,0.0,0.0,0.0,0.0,0.0,0.0,0.0,0.0,0.0,0.0,0.0,0.0,0.0,0.0,0.0,0.0,0.0,0.0,0.0,-3.5555,-3.6445,-3.7105,-3.7414,-3.6216,-3.5991,-3.7367,-3.7503,-3.8293,-4.0042,-3.8067,0.0,0.0,0.0,0.0,0.0,0.0,0.0,0.0,0.0,0.0,0.0,0.0,0.0,0.0,0.0,0.0,0.0,0.0,0.0,0.0,0.0,0.0,0.0,0.0,0.0,0.0,0.0,0.0,0.0,0.0,0.0,0.0,0.0,0.0,0.0,0.0,0.0,0.0,0.0,0.0,0.0,0.0,0.0,0.0,0.0,0.0,0.0,0.0,0.0,0.0,0.0,0.0,0.0,0.0,0.0,0.0,0.0,0.0,0.0,-0.863,-0.8638,0.0,0.0,0.0,0.0,0.0,0.0,0.0,0.0,0.0,0.0,0.0,0.0,0.0,0.0,0.0,0.0,0.0,0.0,0.0,0.0,0.0,0.0,0.0,0.0,0.0,0.0,0.0,0.0,0.0,0.0,0.0,0.0,0.0,0.0,0.0,0.0,0.0,0.0,0.0,0.0,-3.6974,-3.7809,-3.8476,-3.8728,-3.8123,-3.7927,-3.8513,-3.8913,-3.9659,-4.0822,-3.9813,0.0,0.0,0.0,0.0,0.0,0.0,0.0,0.0,0.0,0.0,0.0,0.0,0.0,0.0,0.0,0.0,0.0,0.0,0.0,0.0,0.0,0.0,0.0,0.0,0.0,0.0,0.0,0.0,0.0,0.0,0.0,0.0,0.0,0.0,0.0,0.0,0.0,0.0,0.0,0.0,0.0,0.0,0.0,0.0,0.0,0.0,0.0,0.0,0.0,0.0,0.0,0.0,0.0,-0.4698,-0.4427,-0.292,-0.4028,-0.5222,-0.6603,-0.8634,-0.9644,-0.9821,-0.8124,0.0,0.0,0.0,0.0,0.0,0.0,0.0,0.0,0.0,0.0,0.0,0.0,0.0,0.0,0.0,0.0,0.0,0.0,0.0,0.0,0.0,0.0,-3.1861,-3.2522,-3.3587,-3.4418,-3.4143,0.0,0.0,0.0,0.0,0.0,0.0,0.0,0.0,0.0,0.0,0.0,-3.7931,-3.8912,-3.9594,-3.9594,-3.9883,-4.0087,-4.0087,-4.0711,-4.1091,-4.0923,-4.0913,-4.1047,0.0,0.0,0.0,0.0,0.0,0.0,0.0,0.0,0.0,0.0,0.0,0.0,0.0,0.0,0.0,0.0,0.0,0.0,0.0,0.0,0.0,0.0,0.0,0.0,0.0,0.0,0.0,0.0,0.0,0.0,0.0,0.0,-0.2243,-0.1615,0.0,0.0,0.0,0.0,0.0,0.0,0.0,0.0,0.0,0.0,0.0,0.0,0.0,-0.3161,-0.332,-0.4495,-0.5027,-0.4912,-0.6218,-0.6722,-0.6523,-0.6722,-0.7419,-0.8403,-0.881,0.0,-1.0019,-0.9719,0.0,0.0,0.0,0.0,0.0,0.0,0.0,0.0,0.0,0.0,0.0,0.0,0.0,0.0,0.0,0.0,0.0,0.0,0.0,0.0,0.0,0.0,-3.3129,-3.3891,-3.4647,-3.5578,-3.6631,-3.5854,-3.4976,-3.5056,-3.6029,-3.6823,0.0,0.0,0.0,0.0,0.0,0.0,-3.9475,-4.0477,-4.1185,-4.1185,-4.1385,-4.1513,-4.1513,-4.1853,-4.1729,-4.0923,-4.0877,-4.1569,-4.3077,-4.243,0.0,0.0,0.0,0.0,0.0,0.0,0.0,0.0,0.0,0.0,0.0,0.0,0.0,0.0,0.0,0.0,0.0,0.0,0.0,0.0,0.0,0.0,0.0,0.0,0.0,0.0,0.0,0.0,0.0,-0.0628,-0.0897,-0.0628,-0.1256,-0.1525,0.0,0.0,0.0,0.0,0.0,0.0,0.0,0.0,0.0,-0.3964,-0.3388,-0.3421,-0.4081,-0.4674,-0.4694,-0.4131,-0.5331,-0.5529,-0.4929,-0.5529,-0.6523,-0.771,-0.8312,-0.9213,-1.0216,-0.9612,-0.9015,-0.8619,0.0,0.0,0.0,0.0,-1.2119,-1.3006,-1.4549,-1.6055,-1.7353,-1.7925,0.0,0.0,0.0,0.0,0.0,0.0,0.0,-2.8263,-2.9758,-3.1721,-3.3587,-3.4647,-3.5755,-3.6646,-3.7282,-3.7424,-3.7345,-3.7006,-3.7435,-3.7799,-3.7799,-3.8309,0.0,0.0,0.0,-4.0504,-4.0978,-4.1569,-4.1906,-4.1906,-4.1985,-4.2014,-4.2014,-4.2144,-4.2085,-4.1889,-4.1712,-4.206,-4.2964,-4.2969,-4.2544,0.0,0.0,0.0,0.0,0.0,0.0,0.0,0.0,0.0,0.0,0.0,0.0,0.0,0.0,0.0,0.0,0.0,0.0,0.0,0.0,0.0,0.0,0.0,0.0,0.0,0.0,0.0,0.0,-0.0,-0.009,0.009,-0.0721,-0.0994,0.0,0.0,0.0,0.0,0.0,0.0,-0.307,-0.2975,-0.3291,-0.4239,-0.3555,-0.3581,-0.4332,-0.4433,-0.4033,-0.323,-0.4033,-0.4133,-0.3632,-0.4435,-0.5629,-0.7117,-0.7915,-0.9015,-1.0212,-0.9505,-0.941,-0.971,-0.9776,-1.0062,-1.0654,-1.2587,-1.3465,-1.3962,-1.5602,-1.6821,-1.7832,-1.8864,-1.9778,-2.0683,-2.1123,0.0,0.0,0.0,0.0,-2.876,-3.0799,-3.251,-3.3916,-3.5124,-3.6399,-3.746,-3.7578,-3.8479,-3.9082,-3.8629,-3.8761,-3.8908,-3.8908,-3.932,0.0,-4.0343,-4.0845,-4.1376,-4.1937,-4.2221,-4.2378,-4.2378,-4.2498,-4.2519,-4.2519,-4.2519,-4.2631,-4.2811,-4.2645,-4.2629,-4.2832,-4.3284,-4.3118,-4.2324,0.0,0.0,0.0,0.0,0.0,0.0,0.0,0.0,0.0,0.0,0.0,0.0,0.0,0.0,0.0,0.0,0.0,0.0,0.0,0.0,0.0,0.0,0.0,0.0,0.0,0.0,0.0,0.0,0.0,-0.0718,-0.2006,0.0,0.0,0.0,0.0,-0.3045,-0.2473,-0.2398,-0.3034,-0.2448,-0.2469,-0.3224,-0.3226,-0.3228,-0.323,-0.323,-0.323,-0.323,-0.323,-0.3833,-0.4734,-0.4734,-0.5932,-0.7922,-0.8021,-0.8821,-1.0019,-1.0212,-0.9706,-0.9,-0.9862,-1.0342,-1.0635,-1.2929,-1.4392,-1.5501,-1.6749,-1.787,-1.888,-1.9778,-2.0782,-2.1961,-2.3704,-2.3674,0.0,0.0,-2.8457,-2.9449,-3.1629,-3.3241,-3.4447,-3.519,-3.6399,-3.7578,-3.8124,-3.8739,-3.9206,-3.9152,-4.0003,-4.0642,-4.0642,0.0,-4.1437,-4.1604,-4.1735,-4.1864,-4.199,-4.2498,-4.2844,-4.2844,-4.3232,-4.3444,-4.3444,-4.3444,-4.3444,-4.3463,-4.3426,-4.3426,-4.3463,-4.3463,-4.3195,-4.2609,-4.2772,0.0,0.0,0.0,0.0,0.0,0.0,0.0,0.0,0.0,0.0,0.0,0.0,0.0,0.0,0.0,0.0,0.0,0.0,0.0,0.0,0.0,0.0,0.0,0.0,0.0,0.0,0.0,0.0,-0.0824,-0.1675,0.0,-0.1321,-0.1897,-0.2392,-0.2423,-0.262,-0.2839,-0.3195,-0.2898,-0.2907,-0.323,-0.323,-0.323,-0.323,-0.3932,-0.4234,-0.4234,-0.4931,-0.5427,-0.5827,-0.6528,-0.7325,-0.8024,-0.8726,-0.971,-1.0788,-1.0886,-1.0886,-1.1077,-1.2898,-1.3567,-1.3855,-1.5468,-1.6243,-1.6655,-1.7138,-1.7971,-1.9063,-2.0692,-2.1784,-2.2862,-2.4145,-2.4638,-2.5346,-2.7956,-2.9254,-3.0342,-3.2335,-3.3616,-3.4514,-3.519,-3.6737,-3.801,-3.8222,-3.9065,-3.9885,-4.0153,-4.0563,-4.0896,-4.1185,-4.163,-4.199,-4.2133,-4.2454,-4.2747,-4.2882,-4.3087,-4.3251,-4.3268,-4.341,-4.3497,-4.3497,-4.3497,-4.3497,-4.3497,-4.3497,-4.3497,-4.3497,-4.3497,-4.3391,-4.3177,-4.3267,-4.3214,0.0,0.0,0.0,0.0,0.0,0.0,0.0,0.0,0.0,0.0,0.0,0.0,0.0,0.0,0.0,0.0,0.0,0.0,0.0,0.0,0.0,0.0,0.0,0.0,0.0,-0.1291,-0.1682,-0.0935,-0.1711,-0.2116,-0.1347,-0.1936,-0.2441,-0.2473,-0.2872,-0.3188,-0.3229,-0.323,-0.323,-0.323,-0.323,-0.323,-0.323,-0.3932,-0.4234,-0.4234,-0.5329,-0.6027,-0.6423,-0.7521,-0.8223,-0.8623,-0.9715,-1.0498,-1.1268,-1.195,-1.2446,-1.2942,-1.4573,-1.5242,-1.5432,-1.677,-1.7426,-1.7692,-1.8149,-1.8972,-1.9968,-2.1239,-2.258,-2.3724,-2.4659,-2.5735,-2.6953,-2.8929,-2.9973,-3.1057,-3.3059,-3.3891,-3.4581,-3.5529,-3.7055,-3.8278,-3.8278,-3.9368,-4.0483,-4.0926,-4.1065,-4.1185,-4.1674,-4.2115,-4.2458,-4.2555,-4.288,-4.3141,-4.3287,-4.3359,-4.3429,-4.3463,-4.3497,-4.3497,-4.3497,-4.3497,-4.3497,-4.3497,-4.3497,-4.3497,-4.3497,-4.3497,-4.3497,-4.3497,-4.3513,-4.3513,-4.3513,0.0,0.0,0.0,0.0,0.0,0.0,0.0,0.0,0.0,0.0,0.0,0.0,0.0,0.0,0.0,0.0,0.0,0.0,0.0,0.0,0.0,0.0,0.0,-0.2044,-0.1978,-0.1811,-0.105,-0.2233,-0.2848,-0.2159,-0.2795,-0.323,-0.323,-0.323,-0.323,-0.323,-0.323,-0.323,-0.333,-0.333,-0.333,-0.333,-0.3331,-0.3331,-0.3331,-0.4433,-0.5532,-0.6523,-0.7621,-0.8623,-0.9628,-1.069,-1.1175,-1.137,-1.342,-1.4298,-1.4388,-1.4663,-1.4949,-1.5337,-1.6595,-1.7613,-1.8611,-1.9877,-2.0872,-2.1695,-2.1784,-2.3008,-2.4659,-2.5579,-2.6871,-2.8414,-2.9845,-3.0696,-3.1636,-3.3754,-3.4312,-3.4647,-3.6148,-3.7445,-3.8294,-3.8334,-3.9647,-4.0926,-4.141,-4.1525,-4.1656,-4.2157,-4.2595,-4.2882,-4.2882,-4.2994,0.0,-4.3104,-4.3287,-4.3394,-4.3394,-4.3481,-4.3497,-4.3497,-4.3497,-4.3497,-4.3497,-4.3497,-4.3497,-4.3497,-4.3497,-4.3497,-4.3479,-4.3548,-4.3582,-4.3615,0.0,0.0,0.0,0.0,0.0,0.0,0.0,0.0,0.0,0.0,0.0,0.0,0.0,0.0,0.0,0.0,0.0,0.0,0.0,0.0,0.0,-0.1824,-0.2318,-0.1989,-0.2402,-0.2725,-0.2531,-0.2871,-0.3104,-0.2904,-0.312,-0.323,-0.323,-0.323,-0.3531,-0.4334,-0.4332,-0.4732,-0.5527,-0.5527,-0.5527,-0.5527,-0.6326,-0.6725,-0.6725,-0.7726,-0.8425,-0.8726,-0.9023,-0.9324,-0.9628,-1.069,-1.1658,-1.2436,-1.3709,-1.5146,-1.6473,-1.6015,-1.6292,-1.703,-1.7613,-1.8535,-1.9621,-2.0881,-2.1516,-2.1952,-2.327,-2.4059,-2.4744,-2.634,-2.7383,-2.8414,-2.9845,-3.0696,-3.1576,-3.3073,-3.3905,-3.4633,-3.6041,-3.7322,-3.8407,-3.8865,-3.9935,-4.0926,-4.141,-4.1743,-4.2157,-4.2634,-4.2806,-4.2882,-4.2882,-4.2938,-4.2994,-4.3104,-4.3141,-4.3215,-4.3251,-4.3376,-4.3411,-4.3411,-4.3463,-4.3497,-4.3497,-4.3497,-4.3497,-4.3497,-4.3497,-4.3513,-4.3548,-4.3582,-4.3667,0.0,0.0,0.0,0.0,0.0,0.0,0.0,0.0,0.0,0.0,0.0,0.0,0.0,0.0,0.0,0.0,0.0,0.0,0.0,0.0,0.0,0.0,-0.2057,-0.257,-0.2541,-0.2859,-0.3177,-0.3177,-0.3607,-0.3833,-0.3833,-0.423,-0.4529,-0.4529,-0.4529,-0.483,-0.5429,-0.5429,-0.5727,-0.6423,-0.6423,-0.6423,-0.6423,-0.7021,-0.7322,-0.7322,-0.8425,-0.8924,-0.8924,-0.9813,-1.0306,-1.0306,-1.1858,-1.2829,-1.3511,-1.4949,-1.6285,-1.7239,0.0,0.0,0.0,0.0,-1.9795,-2.0701,-2.1882,-2.2325,-2.2501,-2.4059,-2.4744,-2.5326,-2.6764,-2.8039,-2.9279,-3.0417,-3.1402,-3.2362,-3.3754,-3.4447,-3.5094,-3.6415,-3.7573,-3.8463,-3.9082,-4.0169,-4.1185,-4.1437,-4.2056,0.0,-4.2844,-4.2882,-4.2882,-4.2882,-4.2882,-4.2938,-4.3012,-4.3067,-4.3141,-4.3214,-4.3305,-4.3411,-4.3446,-4.3463,0.0,0.0,0.0,-4.3497,-4.3497,-4.3497,0.0,0.0,0.0,-4.3719,-4.3804,-4.3851,0.0,0.0,-4.3851,-4.3851,0.0,0.0,0.0,0.0,0.0,0.0,0.0,0.0,0.0,0.0,0.0,0.0,0.0,0.0,0.0,0.0,-0.2095,-0.3128,-0.3331,-0.3331,-0.3331,-0.3331,-0.4332,-0.4933,-0.4933,-0.5827,-0.6423,-0.6423,-0.6423,-0.6423,-0.6623,-0.6623,0.0,0.0,0.0,-0.6722,-0.6722,-0.6918,-0.6918,-0.6918,-0.8014,-0.8513,-0.8612,-1.048,-1.1463,-1.1653,-1.3601,-1.4573,-1.4758,-1.6655,-1.7512,-1.7598,-1.7598,-1.8149,-1.9155,-2.0602,-2.132,-2.1774,-2.2853,0.0,0.0,-2.4573,-2.54,-2.6235,-2.7244,-2.8912,-3.0532,-3.1288,-3.2321,-3.3561,-3.4993,-3.5464,-3.5834,-3.7207,-3.7953,-3.8557,-3.9242,-4.0494,-4.1525,-4.1569,-4.2279,-4.2882,-4.2882,-4.2882,-4.2882,-4.2882,-4.2882,-4.2882,-4.2882,-4.2994,-4.3086,-4.316,-4.3305,0.0,-4.3463,-4.3497,-4.3497,-4.3497,-4.3497,-4.3497,-4.3497,-4.3497,-4.3479,-4.3532,-4.3686,-4.3804,-4.3804,-4.3929,-4.4005,-4.4005,-4.3883,-4.3851,0.0,0.0,0.0,0.0,0.0,0.0,0.0,0.0,0.0,0.0,0.0,0.0,0.0,0.0,0.0,-0.0702,-0.1609,-0.2723,-0.4232,-0.4533,-0.4533,-0.4533,-0.5429,-0.6126,-0.6126,-0.6323,-0.6423,-0.6423,-0.6423,-0.6822,-0.7621,-0.7723,-0.8124,-0.8924,-0.9027,-0.9027,-0.9027,-0.9797,-1.028,-1.028,-1.1258,0.0,-1.1848,-1.2242,-1.2802,-1.373,-1.5,-1.5947,-1.6764,-1.8025,-1.8972,-1.9704,-1.9704,-1.9795,-2.0158,-2.1445,-2.2501,-2.3357,-2.379,-2.4478,-2.5484,-2.6953,-2.7522,-2.7924,-2.9291,-3.0304,0.0,-3.1888,-3.2621,-3.3561,-3.4993,-3.574,-3.6461,-3.7806,-3.8574,-3.9279,-4.0302,-4.103,-4.1613,-4.1973,-4.2498,-4.2882,-4.2882,-4.2882,-4.2882,-4.2882,-4.2882,-4.2882,-4.2882,-4.2938,-4.2938,-4.2975,-4.3123,-4.3251,-4.3251,-4.3428,-4.3497,-4.3497,-4.3497,-4.3497,-4.3497,-4.3497,-4.3532,-4.3582,-4.3719,-4.3837,-4.3883,-4.3942,-4.4005,-4.4005,-4.3974,-4.3974,0.0,0.0,0.0,0.0,0.0,0.0,0.0,0.0,0.0,0.0,0.0,0.1495,0.1096,0.0,-0.0504,-0.1311,-0.2519,-0.3728,-0.4634,-0.5732,-0.6229,-0.5629,-0.6526,-0.7223,-0.7223,-0.7723,-0.8021,-0.8021,-0.8021,-0.8223,-0.8722,-0.9308,-0.9801,-1.04,-1.089,-1.1179,-1.1179,-1.2221,-1.2689,-1.2689,-1.3736,-1.4214,-1.4214,-1.469,-1.5246,-1.5799,-1.6879,-1.7546,-1.8095,-1.948,-2.0854,-2.2022,-2.2022,-2.1863,-2.1704,-2.2775,-2.3637,-2.4392,-2.4872,-2.5619,-2.6521,-2.806,-2.8548,-2.8785,-2.9909,-3.097,-3.1901,-3.265,-3.3573,-3.4581,-3.5672,-3.6399,-3.71,-3.8051,-3.8739,-3.9506,-4.0563,-4.1185,-4.1613,-4.2115,-4.2595,-4.2882,-4.2882,-4.2882,-4.2882,-4.2882,-4.2882,-4.2882,-4.2882,-4.2882,-4.2938,-4.2994,-4.3142,-4.3214,-4.3286,-4.3428,-4.3497,-4.3497,-4.3497,-4.3497,-4.3497,-4.3497,-4.3532,-4.3548,-4.3634,-4.3701,-4.3767,-4.3878,-4.3961,-4.3961,-4.3974,-4.4005,0.0,0.0,0.0,0.0,0.0,0.0,0.0,0.2128,0.1571,0.1571,0.1596,0.1314,0.0505,-0.0101,-0.0907,-0.2116,-0.3626,-0.4732,-0.5331,-0.6927,-0.7723,-0.712,-0.7822,-0.8322,-0.8322,-0.932,-0.9916,-0.9916,-1.0113,-1.0212,-1.0212,-1.1165,-1.1741,-1.1741,-1.2802,-1.329,-1.329,-1.4303,-1.4766,-1.4766,-1.5799,-1.6268,-1.6362,-1.7301,-1.7772,-1.8049,-1.9289,-1.977,-1.9861,-2.1453,-2.2872,-2.4125,-2.4372,-2.4211,-2.3714,-2.4221,-2.4808,-2.5546,-2.6273,-2.6907,-2.7556,-2.8983,-2.9397,-2.9628,-3.0581,-3.1609,-3.2664,-3.3559,-3.4537,-3.5608,-3.6461,-3.7118,-3.7738,-3.8351,-3.892,-3.9662,-4.0689,-4.123,-4.1656,-4.2239,-4.2634,-4.2882,-4.2882,-4.2882,-4.2882,-4.2882,-4.2882,-4.2882,-4.2882,-4.2882,-4.2938,-4.3049,-4.3142,-4.3251,-4.3411,-4.3463,-4.3497,-4.3497,-4.3497,-4.3497,-4.3497,-4.3497,-4.3497,-4.3497,-4.3548,-4.3615,-4.3634,-4.38,-4.3897,-4.3929,-4.4109,-4.4215,0.7316,0.7051,0.6548,0.4767,0.424,0.3709,0.0,0.1646,0.1571,0.1571,0.1596,0.1314,0.0505,0.0303,-0.0504,-0.3019,-0.3621,-0.4622,-0.7223,-0.7822,-0.8322,-0.9126,-0.9327,-0.9426,-0.9426,-1.04,-1.0979,-1.0979,-1.1858,-1.2344,-1.2344,-1.3267,-1.382,-1.382,-1.4855,-1.5321,-1.5321,-1.6362,-1.6829,-1.6836,-1.791,-1.8495,-1.8495,-1.9198,-2.0008,-2.0917,-2.2532,-2.326,-2.3347,-2.432,-2.4819,-2.5083,-2.6487,-2.6977,-2.6733,-2.5503,-2.6146,-2.7693,-2.7945,-2.8773,-2.9781,-3.0683,-3.0983,-3.1206,-3.2492,-3.3003,-3.3408,-3.4765,-3.5255,-3.5721,-3.6982,-3.7738,-3.8351,-3.8974,-3.9575,-4.0237,-4.123,-4.1437,-4.1743,-4.2673,-4.2844,-4.2882,-4.2882,-4.2882,-4.2882,-4.2882,-4.2882,-4.2882,-4.2882,-4.2882,-4.29,-4.2938,-4.3087,-4.3286,-4.3463,-4.3497,-4.3497,-4.3497,-4.3497,-4.3497,-4.3497,-4.3497,-4.3497,-4.3497,-4.3548,-4.3667,-4.3771,-4.3804,-4.3883,-4.3992,-4.4652,-4.5055,0.7316,0.7272,0.705,0.5611,0.4919,0.4127,0.2745,0.1984,0.1598,0.1598,0.1206,0.0606,-0.0101,-0.0706,-0.1714,-0.3925,-0.4824,-0.5922,-0.7723,-0.9103,-0.9993,-1.0498,-1.1082,-1.1179,-1.0592,-1.1468,-1.2047,-1.2047,-1.2436,-1.3006,-1.3561,-1.4601,-1.5354,-1.5893,-1.6951,-1.7524,-1.7524,-1.8891,-1.962,-1.9612,-2.0998,-2.1738,-2.1738,-2.1994,-2.2591,-2.3614,-2.4809,-2.5492,-2.592,-2.6322,-2.6651,-2.7082,-2.774,-2.8311,-2.8627,-2.7487,-2.7728,-2.8706,-2.9241,-2.9973,-3.081,-3.2015,-3.2362,-3.2577,-3.3547,-3.4163,-3.4581,-3.527,-3.5737,-3.6258,-3.7163,-3.7854,-3.8446,-3.9028,-3.9644,-4.0353,-4.1303,-4.1481,-4.1785,-4.2711,-4.2882,-4.2882,-4.2882,-4.2882,-4.2882,-4.2882,-4.2882,-4.2882,-4.2882,-4.2882,-4.292,-4.305,-4.316,-4.3268,-4.3479,-4.3497,-4.3497,-4.3497,-4.3497,-4.3497,-4.3497,-4.3497,-4.3497,-4.3497,-4.3548,-4.3634,-4.3667,-4.3818,-4.4124,-4.4665,-4.5036,-4.5755,0.7444,0.7431,0.7321,0.5923,0.5129,0.4328,0.321,0.2422,0.1818,0.1818,0.1212,0.0303,-0.0605,-0.1412,-0.272,-0.4931,-0.5927,-0.7018,-0.8609,-1.0186,-1.1268,-1.156,-1.2533,-1.2829,-1.2145,-1.2732,-1.3216,-1.3488,-1.3782,-1.4435,-1.5442,-1.6497,-1.7431,-1.8325,-1.9389,-2.0141,-2.0541,-2.1701,-2.2494,-2.2727,-2.3978,-2.4522,-2.4511,-2.4692,-2.5273,-2.6086,-2.6721,-2.7209,-2.7728,-2.7968,-2.8311,-2.8821,-2.9266,-2.9807,-3.0291,-2.9859,-2.9654,-2.9704,-3.0594,-3.1145,-3.169,-3.3017,-3.3492,-3.363,-3.438,-3.4993,-3.5464,-3.5672,-3.6196,-3.6892,-3.7519,-3.8067,-3.8684,-3.9312,-3.9799,-4.0353,-4.1303,-4.1481,-4.1785,-4.2711,-4.2882,-4.2882,-4.2882,-4.2882,-4.2882,-4.2882,-4.2882,-4.2882,-4.2882,-4.2882,-4.2975,-4.316,-4.3214,-4.3268,-4.3479,-4.3497,-4.3497,-4.3497,-4.3497,-4.3497,-4.3497,-4.3497,-4.3532,-4.3532,-4.3582,-4.3615,-4.3682,-4.4022,-4.4545,-4.5171,-4.5667,-4.6554,0.7587,0.7594,0.7155,0.5156,0.4598,0.423,0.2711,0.2422,0.2422,0.2422,0.1714,0.0806,-0.0605,-0.1412,-0.292,-0.5922,-0.6423,-0.7512,-1.0676,-1.117,-1.156,-1.2533,-1.3613,-1.4202,-1.4196,-1.4202,-1.4663,-1.567,-1.664,-1.7598,-1.8603,-1.9613,-2.0503,-2.1105,-2.2148,-2.3357,-2.4904,-2.4988,-2.5387,-2.6266,-2.6266,-2.6349,-2.636,-2.6966,-2.7648,-2.8267,-2.8347,-2.8335,-2.8426,-2.9303,-2.9614,-2.9858,-3.1415,-3.2001,-3.2074,-3.2791,-3.216,-3.1048,-3.1982,-3.2475,-3.2832,-3.3728,-3.4124,-3.438,-3.5124,-3.54,-3.5544,-3.6289,-3.6892,-3.7519,-3.8124,-3.8739,-3.9312,-3.9918,-4.007,-4.0353,-4.1303,-4.1481,-4.1785,-4.2711,-4.2882,-4.2882,-4.2882,-4.2882,-4.2882,-4.2882,-4.2882,-4.2882,-4.2882,-4.2882,-4.2975,-4.316,-4.3214,-4.3268,-4.3479,-4.3497,-4.3497,-4.3497,-4.3497,-4.3497,-4.3497,-4.3497,-4.3513,-4.3582,-4.3582,-4.3701,-4.3897,-4.4595,-4.5086,-4.5324,-4.682,-4.7596,0.7907,0.8119,0.7868,0.5479,0.4935,0.4493,0.2318,0.1919,0.1717,0.1212,0.0606,-0.0202,-0.1109,-0.262,-0.4126,-0.5827,-0.7512,-0.919,-1.0974,-1.2344,-1.3596,-1.4632,-1.5697,-1.6466,-1.6828,-1.6466,-1.6466,-1.6741,-1.777,-1.8964,-2.0404,-2.0764,-2.1808,-2.3786,-2.4159,-2.483,-2.5948,-2.6382,-2.6803,-2.7036,-2.8056,-2.8807,-2.9312,-3.0125,-3.054,-3.0803,-3.1336,-3.1569,-3.1569,-3.1888,-3.2046,-3.2046,-3.2635,-3.2861,-3.2861,-3.3073,-3.2875,-3.2519,-3.2946,-3.3157,-3.3381,-3.4476,-3.481,-3.4978,-3.5879,-3.643,-3.6784,-3.7058,-3.7519,-3.8124,-3.8739,-3.9028,-3.9365,-3.9969,-4.007,-4.0353,-4.1303,-4.1481,-4.1785,-4.2711,-4.2882,-4.2882,-4.2882,-4.2882,-4.2882,-4.2882,-4.2882,-4.2882,-4.2882,-4.2882,-4.2975,-4.3123,-4.3178,-4.3251,-4.3411,-4.3463,-4.3497,-4.3497,-4.3497,-4.3497,-4.3497,-4.3497,-4.3513,-4.3582,-4.3686,-4.4044,-4.4712,-4.5041,-4.5778,-4.6903,-4.7408,-4.7946,0.8165,0.8279,0.8007,0.5741,0.5284,0.483,0.2925,0.2423,0.2322,0.1817,0.0908,-0.0,-0.0706,-0.2819,-0.473,-0.5727,-0.7515,-0.9493,-1.1365,-1.292,-1.4459,-1.588,-1.7109,-1.7956,-1.8311,-1.868,-1.8772,-1.8511,-1.9231,-2.0567,-2.2581,-2.2669,-2.369,-2.5815,-2.5898,-2.6606,-2.7941,-2.8373,-2.8934,-2.9451,-3.0465,-3.1135,-3.1635,-3.2195,-3.2437,-3.2451,-3.2989,-3.3213,-3.3213,-3.3213,-3.3213,-3.3213,-3.3492,-3.3754,-3.3998,-3.4216,-3.447,-3.4589,-3.4027,-3.3837,-3.4109,-3.532,-3.577,-3.5993,-3.6799,-3.7417,-3.7738,-3.7738,-3.8181,-3.8684,-3.9098,-3.9365,-3.9644,-4.002,-4.0221,-4.0563,-4.1348,-4.1613,-4.1973,-4.275,-4.2882,-4.2882,-4.2882,-4.2882,-4.2882,-4.2882,-4.2882,-4.2882,-4.2882,-4.2882,-4.2938,-4.3104,-4.316,-4.3251,-4.3394,-4.3463,-4.3497,-4.3497,-4.3497,-4.3497,-4.3497,-4.3497,-4.3513,-4.3582,-4.3996,-4.4521,-4.5101,-4.5811,-4.668,-4.7701,-4.7999,-4.8407,0.8432,0.8237,0.764,0.6034,0.5634,0.5334,0.4234,0.3934,0.3932,0.3831,0.2416,0.1006,0.0302,-0.2414,-0.4826,-0.5622,-0.7021,-0.9004,-1.2037,-1.2909,-1.4154,-1.648,-1.8041,-1.8932,-1.9023,-2.0738,-2.156,-2.0935,-2.1293,-2.2591,-2.5072,-2.5167,-2.5898,-2.7544,-2.7544,-2.8633,-3.0865,-3.0939,-3.1702,-3.3297,-3.3283,-3.3353,-3.3353,-3.3422,-3.3408,-3.3408,-3.3408,-3.3408,-3.3408,-3.3408,-3.3408,-3.3478,-3.4163,-3.4868,-3.5488,-3.6212,-3.6829,-3.7115,-3.513,-3.4566,-3.4978,-3.6337,-3.689,-3.7251,-3.7911,-3.8197,-3.8351,-3.8351,-3.8794,-3.9259,-3.9259,-3.9696,-4.007,-4.007,-4.0434,-4.0926,-4.1393,-4.1888,-4.2338,-4.2806,-4.2882,-4.2882,-4.2882,-4.2882,-4.2882,-4.2882,-4.2882,-4.2882,-4.2882,-4.2882,-4.2938,-4.3067,-4.316,-4.3251,-4.3394,-4.3463,-4.3497,-4.3497,-4.3497,-4.3497,-4.3497,-4.3497,-4.3532,-4.3689,-4.4564,-4.5075,-4.523,-4.6906,-4.772,-4.7776,-4.8537,-4.8909,0.8726,0.8832,0.8435,0.6431,0.6029,0.5729,0.3831,0.343,0.3026,0.1612,0.1108,0.0201,-0.2115,-0.471,-0.6793,-0.7796,-1.0458,-1.2813,-1.4154,-1.493,-1.6344,-1.8948,-1.9596,-2.0567,-2.2309,-2.3201,-2.3968,-2.4618,-2.4129,-2.4565,-2.6262,-2.6509,-2.7544,-2.9655,-2.9732,-3.0641,-3.2536,-3.2621,-3.3031,-3.4041,-3.4537,-3.505,-3.5627,-3.6089,-3.6322,-3.6322,-3.6322,-3.6322,-3.6322,-3.6322,-3.6322,-3.6322,-3.6538,-3.6722,-3.6904,-3.7071,-3.7251,-3.7294,-3.6783,-3.6661,-3.6737,-3.7235,-3.7472,-3.7706,-3.7969,-3.8479,-3.8974,-3.8974,-3.9418,-3.9867,-3.9867,-3.9969,-4.007,-4.007,-4.0434,-4.0926,-4.1393,-4.1888,-4.2338,-4.2806,-4.2882,-4.2882,-4.2882,-4.2882,-4.2882,-4.2882,-4.2882,-4.2882,-4.2882,-4.2882,-4.292,-4.2938,-4.3087,-4.3196,-4.3251,-4.3393,-4.3497,-4.3497,-4.3497,-4.3497,-4.3497,-4.3497,-4.3842,-4.4638,-4.4894,-4.5663,-4.7036,-4.7497,-4.8017,-4.8612,-4.8797,-4.8909,0.8928,0.8931,0.8432,0.6728,0.6429,0.6027,0.3728,0.3228,0.2723,0.121,0.0302,-0.0805,-0.2414,-0.5501,-0.7885,-0.8393,-1.1239,-1.3686,-1.4543,-1.5954,-1.7539,-1.9679,-2.1185,-2.2591,-2.3902,-2.4935,-2.6168,-2.7521,-2.6393,-2.6405,-2.8275,-2.85,-2.9501,-3.1509,-3.1965,-3.2919,-3.453,-3.4889,-3.523,-3.5646,-3.6011,-3.6415,-3.6845,-3.7251,-3.7429,-3.7429,-3.7429,-3.7429,-3.7429,-3.7429,-3.7429,-3.7429,-3.7429,-3.7546,-3.7764,-3.7764,-3.7953,-3.8254,-3.8254,-3.8254,-3.8197,-3.7994,-3.7994,-3.8165,-3.8645,-3.9115,-3.954,-3.9592,-3.985,-4.007,-4.007,-4.007,-4.0171,-4.0353,-4.0754,-4.123,-4.1717,-4.2198,-4.2595,-4.2844,-4.2882,-4.2882,-4.2882,-4.2882,-4.2882,-4.2882,-4.2882,-4.2882,-4.2882,-4.2882,-4.2882,-4.2882,-4.3087,-4.3214,-4.3214,-4.3375,-4.3497,-4.3497,-4.3497,-4.3497,-4.3497,-4.3881,-4.4373,-4.4936,-4.5759,-4.6623,-4.7652,-4.802,-4.8463,-4.8909,-4.8909,-4.8909,0.9133,0.8733,0.8031,0.703,0.6731,0.6129,0.3725,0.3224,0.282,0.1411,-0.0302,-0.1807,-0.2307,-0.5795,-0.8689,-0.8788,-1.123,-1.3482,-1.4644,-1.6483,-1.8325,-1.9835,-2.2572,-2.4511,-2.4925,-2.6438,-2.8072,-2.9616,-2.8409,-2.8476,-3.0543,-3.0755,-3.1569,-3.3227,-3.4105,-3.5106,-3.6292,-3.7008,-3.7429,-3.7429,-3.7472,-3.7531,-3.7589,-3.7663,-3.7706,-3.7806,-3.7764,-3.7764,-3.7806,-3.7806,-3.7806,-3.7806,-3.7806,-3.8149,-3.8613,-3.8613,-3.8974,-3.9468,-3.9468,-3.9468,-3.9345,-3.8645,-3.8574,-3.8849,-3.9592,-3.9918,-4.007,-4.0254,-4.0303,-4.0303,-4.0303,-4.0303,-4.0385,-4.0802,-4.123,-4.17,-4.2115,-4.2595,-4.2882,-4.2882,-4.2882,-4.2882,-4.2882,-4.2882,-4.2882,-4.2882,-4.2882,-4.2882,-4.2882,-4.2882,-4.2882,-4.2882,-4.3087,-4.3214,-4.3214,-4.3375,-4.3497,-4.3497,-4.3497,-4.3534,-4.3644,-4.4465,-4.4996,-4.5252,-4.681,-4.7638,-4.7784,-4.854,-4.8909,-4.8909,-4.8909,-4.8909,0.9133,0.8531,0.763,0.693,0.6434,0.5636,0.3626,0.3224,0.2415,-0.0502,-0.1305,-0.2707,-0.6203,-0.8379,-1.044,-1.2796,-1.4358,-1.5812,-1.7225,-1.8218,-1.9728,-2.2105,-2.3624,-2.5262,-2.7533,-2.8615,-2.9628,-3.0568,-3.1383,-3.1938,-3.2338,-3.2566,-3.3338,-3.4626,-3.5821,-3.6554,-3.6798,-3.7175,-3.7429,-3.7429,-3.7879,-3.8334,-3.8635,-3.8882,-3.9295,-3.9868,-3.9575,-3.961,-3.9868,-3.9868,-3.9868,-3.9868,-3.9868,-3.9919,-4.0036,-4.0036,-4.0103,-4.022,-4.022,-4.022,-4.007,-3.9329,-3.9451,-3.9901,-4.017,-4.0611,-4.1007,-4.1185,-4.1258,-4.1258,-4.1258,-4.1258,-4.1258,-4.1348,-4.176,-4.2115,-4.2157,-4.2595,-4.2882,-4.2882,-4.2882,-4.2882,-4.2882,-4.2882,-4.2882,-4.2882,-4.2882,-4.2882,-4.2882,-4.2882,-4.2882,-4.2882,-4.3087,-4.3214,-4.3214,-4.3375,-4.3497,-4.3497,-4.3497,-4.3791,-4.447,-4.4759,-4.5547,-4.6926,-4.74,-4.7932,-4.867,-4.8834,-4.8909,-4.8909,-4.8909,-4.8909,0.8832,0.823,0.7431,0.6637,0.6239,0.5336,0.2922,0.1912,0.0804,-0.191,-0.3316,-0.4914,-0.7505,-0.9383,-1.1249,-1.3108,-1.5045,-1.6669,-1.7863,-1.9819,-2.1762,-2.3527,-2.5408,-2.7163,-2.8876,-2.9795,-3.0917,-3.2379,-3.3087,-3.3421,-3.3421,-3.4269,-3.5359,-3.6705,-3.6995,-3.7663,-3.8652,-3.8541,-3.8635,-3.8929,-3.9229,-3.9492,-3.9647,-3.9817,-4.0087,-4.04,-4.0237,-4.0237,-4.04,-4.04,-4.04,-4.04,-4.04,-4.04,-4.04,-4.04,-4.04,-4.04,-4.04,-4.04,-4.0351,-3.9986,-4.0037,-4.0286,-4.0466,-4.0659,-4.096,-4.1265,-4.1338,-4.1383,-4.1481,-4.1481,-4.1569,-4.1803,-4.2239,-4.2537,-4.2537,-4.275,-4.2882,-4.2882,-4.2882,-4.2882,-4.2882,-4.2882,-4.2882,-4.2882,-4.2882,-4.2882,-4.2882,-4.2938,-4.2994,-4.2994,-4.3142,-4.3251,-4.3305,-4.3428,-4.3663,-4.4103,-4.4121,-4.4524,-4.5386,-4.5934,-4.6629,-4.7476,-4.8025,-4.8484,-4.8909,-4.8909,-4.8909,-4.8909,-4.8909,-4.8909,0.823,0.763,0.6833,0.6139,0.5739,0.463,0.1913,0.0402,-0.1004,-0.342,-0.5427,-0.7123,-0.8403,-1.0275,-1.195,-1.3307,-1.5235,-1.7037,-1.8288,-2.1123,-2.3421,-2.4565,-2.7082,-2.9045,-2.9782,-3.0917,-3.2249,-3.3876,-3.4365,-3.4566,-3.4566,-3.5882,-3.7191,-3.8294,-3.801,-3.8629,-4.0171,-3.9782,-3.9851,-4.04,-4.04,-4.0449,-4.0514,-4.0449,-4.0497,-4.0659,-4.0563,-4.0563,-4.0659,-4.0659,-4.0659,-4.0659,-4.0659,-4.0659,-4.0659,-4.0659,-4.0659,-4.0659,-4.0659,-4.0659,-4.0659,-4.0659,-4.0611,-4.0563,-4.0707,-4.0802,-4.096,-4.1373,-4.1507,-4.1552,-4.176,-4.1785,-4.1871,-4.2239,-4.2634,-4.2882,-4.2882,-4.2882,-4.2882,-4.2882,-4.2882,-4.2882,-4.2882,-4.2882,-4.2882,-4.2882,-4.2882,-4.292,-4.2938,-4.3049,-4.3177,-4.3378,-4.3287,-4.3378,-4.3632,-4.3738,-4.4103,-4.4911,-4.4966,-4.5369,-4.6322,-4.7037,-4.7515,-4.7842,-4.8558,-4.8909,-4.8909,-4.8909,-4.8909,-4.8909,-4.8909,-4.8909,0.7335,0.6234,0.5236,0.5842,0.4732,0.2918,0.0703,-0.0703,-0.2309,-0.5427,-0.7021,-0.8502,-1.0578,-1.1853,-1.3403,-1.5812,-1.6487,-1.7412,-1.9786,-2.178,-2.367,-2.5365,-2.7909,-2.9859,-3.0732,-3.2593,-3.3808,-3.4027,-3.5499,-3.6445,-3.6445,-3.7472,-3.8165,-3.8294,-3.8995,-3.9542,-3.9834,-4.0104,-4.0254,-4.04,-4.04,-4.0611,-4.0913,-4.0563,-4.0802,-4.1453,-4.1117,-4.1163,-4.1498,-4.1498,-4.1498,-4.1498,-4.1498,-4.1498,-4.1498,-4.1498,-4.1498,-4.1498,-4.1498,-4.1498,-4.1498,-4.1498,-4.1255,-4.096,-4.1237,-4.1552,-4.1874,-4.2351,-4.2472,-4.2512,-4.2729,-4.275,-4.2788,-4.2844,-4.2882,-4.2882,-4.2882,-4.2882,-4.2882,-4.2882,-4.2882,-4.2882,-4.2882,-4.2882,-4.2882,-4.2882,-4.2882,-4.2938,-4.3067,-4.3104,-4.3469,-4.4382,-4.3833,-4.3687,-4.4437,-4.4546,-4.4929,-4.5736,-4.5792,-4.6195,-4.7132,-4.7332,-4.7792,-4.8657,-4.8837,-4.8909,-4.8909,-4.8909,-4.8909,-4.8909,-4.8909,-4.8909,0.6537,0.5937,0.5236,0.5238,0.423,0.2616,0.0502,-0.1304,-0.3311,-0.5829,-0.772,-0.9399,-1.0877,-1.2431,-1.3974,-1.5622,-1.6669,-1.8048,-2.0215,-2.1947,-2.4067,-2.6909,-2.8633,-3.0428,-3.2593,-3.3518,-3.4589,-3.6058,-3.71,-3.7838,-3.8181,-3.8294,-3.8596,-3.9299,-3.9332,-3.9749,-4.0642,-4.0466,-4.0628,-4.11,-4.11,-4.1209,-4.1363,-4.1209,-4.13,-4.1604,-4.1408,-4.1453,-4.1604,-4.1604,-4.1604,-4.1604,-4.1604,-4.1762,-4.1941,-4.1941,-4.2133,-4.232,-4.232,-4.232,-4.232,-4.232,-4.2074,-4.1709,-4.1569,-4.1631,-4.1805,-4.2287,-4.2409,-4.2472,-4.2824,-4.2882,-4.2882,-4.2882,-4.2882,-4.2882,-4.2882,-4.2882,-4.2882,-4.2882,-4.3281,-4.3607,-4.3607,-4.4023,-4.4331,-4.4331,-4.4331,-4.4388,-4.454,-4.456,-4.4801,-4.5278,-4.4602,-4.4473,-4.5297,-4.5388,-4.5773,-4.6581,-4.6636,-4.7059,-4.8052,-4.8125,-4.8345,-4.8839,-4.8874,-4.8909,-4.8909,-4.8909,-4.8909,-4.8909,-4.8909,-4.8909,0.5636,0.5238,0.4834,0.4431,0.3321,0.1708,-0.0502,-0.2608,-0.4716,-0.6924,-0.881,-1.0391,-1.1463,-1.3108,-1.4651,-1.5629,-1.7124,-1.8772,-2.0657,-2.2553,-2.484,-2.7589,-2.9347,-3.1175,-3.3435,-3.4507,-3.5791,-3.769,-3.8278,-3.8794,-3.9401,-3.9049,-3.9139,-3.9952,-3.9817,-4.017,-4.1209,-4.0802,-4.096,-4.156,-4.1692,-4.1719,-4.1701,-4.1874,-4.1959,-4.1941,-4.1941,-4.1941,-4.1941,-4.1941,-4.1941,-4.1941,-4.1941,-4.2133,-4.24,-4.24,-4.2541,-4.281,-4.281,-4.281,-4.281,-4.281,-4.2619,-4.232,-4.205,-4.1788,-4.1692,-4.2061,-4.2287,-4.249,-4.2824,-4.2882,-4.2955,-4.319,-4.3244,-4.3317,-4.3552,-4.3607,-4.3607,-4.3607,-4.4059,-4.444,-4.444,-4.491,-4.5291,-4.5291,-4.5349,-4.5388,-4.5506,-4.5621,-4.5789,-4.6158,-4.5681,-4.5608,-4.6214,-4.625,-4.6617,-4.7463,-4.7518,-4.785,-4.8623,-4.8642,-4.8714,-4.8909,-4.8909,-4.8909,-4.8909,-4.8909,-4.8909,-4.8909,-4.8943,-4.8978,0.4632,0.4033,0.3229,0.3225,0.1608,-0.0502,-0.2708,-0.4818,-0.693,-0.911,-1.0391,-1.1463,-1.2533,-1.4178,-1.5629,-1.6487,-1.7948,-1.9679,-2.1418,-2.3947,-2.6063,-2.6976,-3.0075,-3.2263,-3.2764,-3.5667,-3.7764,-3.8278,-3.8849,-3.9454,-3.9952,-4.0003,-4.0003,-4.0003,-4.0549,-4.0995,-4.1209,-4.1192,-4.1255,-4.1426,-4.1892,-4.2068,-4.2015,-4.2498,-4.2714,-4.281,-4.281,-4.281,-4.281,-4.281,-4.281,-4.281,-4.281,-4.281,-4.281,-4.281,-4.281,-4.281,-4.281,-4.281,-4.281,-4.281,-4.281,-4.281,-4.281,-4.2239,-4.1648,-4.1849,-4.2228,-4.2631,-4.2862,-4.2882,-4.3081,-4.3896,-4.4077,-4.4313,-4.5091,-4.5273,-4.5273,-4.5273,-4.5273,-4.5291,-4.5291,-4.5291,-4.5291,-4.5291,-4.5388,-4.5524,-4.5603,-4.5697,-4.6121,-4.6984,-4.7057,-4.7095,-4.7113,-4.7113,-4.7499,-4.8439,-4.8494,-4.8569,-4.8787,-4.8787,-4.8822,-4.8909,-4.8909,-4.8909,-4.8909,-4.8909,-4.8909,-4.8909,-4.9049,-4.9183,0.3226,0.2925,0.242,0.1307,-0.0,-0.1605,-0.3806,-0.5909,-0.7912,-0.9308,-1.0974,-1.2528,-1.3397,-1.5038,-1.6662,-1.8041,-1.9231,-2.0593,-2.2394,-2.4353,-2.6515,-2.8941,-3.2807,-3.5439,-3.6012,-3.7275,-3.843,-3.9404,-3.9645,-4.002,-4.0597,-4.0614,-4.0614,-4.0614,-4.0823,-4.0965,-4.1123,-4.1373,-4.1622,-4.1727,-4.2228,-4.2454,-4.248,-4.2616,-4.2732,-4.281,-4.281,-4.281,-4.281,-4.281,-4.281,-4.281,-4.281,-4.2959,-4.3212,-4.3212,-4.3387,-4.3627,-4.3627,-4.3627,-4.3627,-4.3627,-4.344,-4.3212,-4.3212,-4.2847,-4.244,-4.2555,-4.2826,-4.3069,-4.292,-4.3299,-4.3769,-4.4023,-4.4512,-4.4983,-4.5254,-4.5291,-4.5291,-4.5291,-4.5743,-4.6124,-4.6124,-4.6576,-4.6939,-4.6939,-4.7039,-4.7161,-4.7244,-4.738,-4.7549,-4.7864,-4.7921,-4.7921,-4.7921,-4.7921,-4.8087,-4.8494,-4.8513,-4.8569,-4.8787,-4.8787,-4.8822,-4.8909,-4.8909,-4.8909,-4.8909,-4.8909,-4.8962,-4.9049,-4.915,-4.923,0.2218,0.1611,0.0603,-0.0502,-0.1904,-0.3504,-0.5501,-0.74,-0.9,-1.0485,-1.2042,-1.3403,-1.4268,-1.5893,-1.7498,-1.8864,-2.0051,-2.1569,-2.37,-2.5705,-2.818,-3.1505,-3.4661,-3.6843,-3.7531,-3.843,-3.9246,-3.9952,-4.022,-4.05,-4.0871,-4.0888,-4.0888,-4.0888,-4.0888,-4.1059,-4.1318,-4.1596,-4.1839,-4.2092,-4.2573,-4.2844,-4.2865,-4.3069,-4.3178,-4.3248,-4.3248,-4.3248,0.0,-4.3248,-4.3248,-4.3248,-4.3248,-4.3406,-4.3627,-4.3627,-4.3777,-4.4005,-4.4005,-4.4005,-4.4005,-4.4005,-4.3809,-4.3627,-4.3627,-4.3248,-4.2829,-4.2902,-4.3014,-4.3214,-4.332,-4.3715,-4.424,-4.4856,-4.5399,-4.5834,-4.6142,-4.6214,-4.6214,-4.6214,-4.6613,-4.6957,-4.6957,-4.7373,-4.7717,-4.7759,-4.7884,-4.7947,-4.805,-4.8169,-4.8247,-4.8306,-4.8306,-4.8306,-4.8306,-4.8363,-4.8438,-4.8513,-4.8569,-4.8679,-4.8822,-4.8857,-4.8839,-4.8909,-4.8909,-4.8909,-4.8909,-4.8962,-4.903,-4.9183,-4.923,-4.9295,0.0,-0.0,-0.1804,-0.2208,-0.3904,-0.5894,-0.77,-0.9,0.0,-1.2339,-1.3397,-1.4358,-1.533,-1.6749,-1.8141,-1.9131,-2.0773,-2.2766,-2.5373,-2.7956,-3.085,-3.4464,-3.5889,-3.6883,-3.7557,-3.9069,-4.0003,-4.0053,-4.0597,-4.0888,-4.0888,-4.0888,-4.0918,-4.0918,-4.0918,-4.1163,-4.1666,-4.1753,-4.2008,-4.2436,-4.2957,-4.3196,-4.3177,-4.3664,-4.3929,-4.4005,-4.4005,-4.4005,-4.4005,-4.4005,-4.4005,-4.4005,-4.4005,-4.4005,-4.4005,-4.4005,-4.4005,-4.4005,-4.4005,-4.4005,-4.4005,-4.4005,-4.4005,-4.4005,-4.4005,-4.3523,-4.2996,-4.2976,-4.305,-4.3287,-4.3973,-4.4225,-4.4639,-4.6142,-4.654,-4.6794,-4.7554,-4.7717,-4.7717,-4.7717,-4.7717,-4.7699,-4.7699,-4.7699,-4.7759,-4.7902,-4.7988,-4.805,-4.8187,-4.8247,-4.8306,-4.8306,-4.8306,-4.8306,-4.8306,-4.8419,-4.8532,-4.8587,-4.8732,-4.8822,-4.8909,-4.8909,-4.8909,-4.8909,-4.8909,-4.8909,-4.8909,-4.9049,-4.9183,-4.9308,-4.9308,-4.939,-0.2312,0.0,-0.3114,-0.4416,-0.6404,-0.8188,0.0,-1.097,-1.2533,-1.3397,-1.4364,-1.5514,-1.6936,-1.8041,-1.9322,-2.0872,-2.262,-2.4618,-2.6967,-3.0975,-3.4193,-3.5518,-3.7334,-3.8437,-3.8253,-3.9318,-4.017,-4.0645,-4.0823,-4.0888,-4.0888,-4.0888,-4.1041,-4.1356,-4.1356,-4.1401,-4.1534,-4.2257,-4.2673,-4.2806,-4.325,-4.3548,-4.3634,-4.3832,-4.3929,-4.4005,-4.4005,-4.4005,-4.4005,-4.4005,-4.4005,-4.4005,-4.4005,-4.4005,-4.4005,-4.4005,-4.4005,-4.4005,-4.4005,-4.4005,-4.4005,-4.4005,-4.4005,-4.4005,-4.4005,-4.3986,-4.3923,-4.3716,-4.4039,-4.4467,-4.4419,-4.5158,-4.6033,-4.6413,-4.6975,-4.7482,-4.7663,-4.7717,-4.7717,-4.7717,-4.7717,-4.7717,-4.7819,-4.7861,-4.7884,-4.797,-4.8068,-4.8148,-4.8187,-4.8247,-4.8306,-4.8306,-4.8306,-4.8363,-4.8457,-4.8457,-4.8532,-4.8587,-4.8732,-4.8822,-4.8909,-4.8909,-4.8909,-4.8909,-4.8996,-4.9049,-4.9049,-4.9197,-4.9276,-4.9308,-4.9409,-4.9459,-0.4622,-0.512,-0.5617,-0.6323,-0.8103,-0.9882,-1.0779,-1.2047,-1.3409,-1.4561,-1.5432,-1.6292,-1.7505,-1.9414,-2.1157,-2.2152,-2.4461,-2.7082,-2.9719,-3.3027,-3.5543,-3.6538,-3.7946,-3.8891,-3.909,-3.9935,-4.0549,-4.0888,-4.0888,-4.0965,-4.1163,-4.1163,-4.1356,-4.1821,-4.2032,-4.2157,-4.2157,-4.2634,-4.2995,-4.3196,-4.3532,-4.3719,-4.3804,-4.3897,-4.3992,-4.4005,-4.4005,-4.4005,-4.4005,-4.4005,-4.4005,-4.4005,-4.4005,-4.4005,-4.4005,-4.4005,-4.4005,-4.4005,-4.4005,-4.4005,-4.4005,-4.4005,-4.4005,-4.4005,-4.4005,-4.4147,-4.4255,-4.3979,-4.4485,-4.5072,-4.504,-4.584,-4.6761,-4.6998,-4.7391,-4.7717,-4.7717,-4.7717,-4.7717,-4.7717,-4.7717,-4.7759,-4.7861,-4.7902,-4.7925,-4.805,-4.8148,-4.8226,-4.8247,-4.8286,-4.8306,-4.8306,-4.8363,-4.8419,-4.8494,-4.8569,-4.8642,-4.8697,-4.8804,-4.8874,-4.8909,-4.8909,-4.8909,-4.8996,-4.9049,-4.9135,-4.9197,-4.9276,-4.934,-4.939,-4.9459,-4.9427,-0.6121,-0.7617,-0.8513,-0.7925,-0.9402,-1.117,-1.1955,-1.2732,-1.38,-1.5534,-1.6298,-1.7037,-1.828,-2.1006,-2.3146,-2.3523,-2.6599,-2.9905,-3.2821,-3.4699,-3.6306,-3.7573,-3.8365,-3.9073,-3.9817,-4.0483,-4.0888,-4.0888,-4.0965,-4.1117,-4.1472,-4.1561,-4.1821,-4.2279,-4.2673,-4.292,-4.2995,-4.2995,-4.316,-4.3532,-4.3719,-4.3804,-4.3837,-4.3961,-4.4005,-4.4005,-4.4005,-4.4005,-4.4005,-4.4005,-4.4005,-4.4005,-4.4005,-4.4005,-4.4005,-4.4005,-4.4005,-4.4005,-4.4005,-4.4005,-4.4005,-4.4005,-4.4005,-4.4005,-4.4005,-4.4147,-4.4274,-4.4172,-4.4798,-4.5547,-4.5865,-4.6524,-4.7195,-4.762,-4.7717,-4.7717,-4.7717,-4.7717,-4.7717,-4.7717,-4.7717,-4.7759,-4.7884,-4.7861,-4.7884,-4.809,-4.805,-4.8032,-4.8093,-4.8132,-4.821,-4.8229,-4.8401,-4.8513,-4.8532,-4.8715,-4.8787,-4.8822,-4.8874,-4.8909,-4.8909,-4.8909,-4.8996,-4.9101,-4.9135,-4.9183,-4.9308,-4.9308,-4.939,-4.9509,-4.9459,-4.9337,-0.7329,-0.9288,-1.0947,-0.9391,-1.0378,-1.2047,-1.2732,-1.3709,-1.4873,-1.6204,-1.6581,-1.771,-2.148,-2.2602,-2.376,-2.6099,-2.9391,-3.2653,-3.5437,-3.743,-3.8525,-3.8293,-3.9578,-4.0235,-3.9493,-4.0302,-4.0888,-4.0888,-4.1209,-4.1445,-4.149,-4.1864,-4.2297,-4.2768,-4.2844,-4.3069,-4.341,-4.341,-4.3479,-4.3582,-4.3719,-4.3837,-4.3883,-4.3974,-4.4005,-4.4005,-4.4005,-4.4005,-4.4005,-4.4005,-4.4005,-4.4005,-4.4005,-4.4005,-4.4005,-4.4005,-4.4005,-4.4005,-4.4005,-4.4005,-4.4005,-4.4005,-4.4005,-4.4005,-4.4005,-4.4147,-4.4434,-4.5077,-4.5761,-4.6415,-4.6943,-4.7499,-4.7889,-4.7747,-4.7717,-4.7717,-4.7717,-4.7717,-4.7717,-4.7717,-4.7801,-4.7884,-4.797,-4.7765,-4.7578,-4.7692,-4.7353,-4.7089,-4.7115,-4.7464,-4.7733,-4.7875,-4.8247,-4.8587,-4.8751,-4.8787,-4.8822,-4.8874,-4.8909,-4.8909,-4.8909,-4.9015,-4.9068,-4.9101,-4.9197,-4.9276,-4.9308,-4.9409,-4.949,-4.949,-4.9211,-4.9415,-0.8333,-0.9706,-1.1161,-1.1419,-1.2962,-1.4429,-1.4536,-1.5859,-1.7095,-1.7326,-1.7692,-1.8967,-2.2399,-2.4231,-2.6725,-3.105,-3.2583,-3.4028,-3.6322,-3.7361,-3.8141,-3.8826,-3.9562,-4.0069,-4.0186,-4.0597,-4.0888,-4.0888,-4.1283,-4.1604,-4.1864,-4.2338,-4.2788,-4.3232,-4.3214,-4.3304,-4.3497,-4.3532,-4.3548,-4.3582,-4.3767,-4.3883,-4.3897,-4.3974,-4.4005,-4.4005,-4.4005,-4.4005,-4.4005,-4.4005,-4.4005,-4.4005,-4.4005,-4.4005,-4.4005,-4.4005,-4.4005,-4.4005,-4.4005,-4.4005,-4.4005,-4.4005,-4.4005,-4.4005,-4.4104,-4.4195,-4.4576,-4.5896,-4.6494,-4.6881,-4.7423,-4.7959,-4.8269,-4.7974,-4.7806,-4.7717,-4.7717,-4.7717,-4.7717,-4.7801,-4.7861,-4.7842,-4.7765,-4.7578,-4.745,-4.7266,-4.7026,-4.6908,-4.6908,-4.7071,-4.7248,-4.7414,-4.765,-4.7879,-4.8038,-4.8096,-4.8383,-4.8874,-4.8909,-4.8909,-4.9015,-4.9068,-4.9116,-4.9197,-4.9276,-4.934,-4.9409,-4.9295,-4.9436,-4.9865,-4.9591,-4.9842,-0.9521,-1.0502,-1.1658,-1.316,-1.4595,-1.5752,-1.6324,-1.7524,-1.864,-1.8696,-1.9222,-2.0561,-2.3182,-2.6049,-2.9578,-3.4176,-3.4522,-3.4955,-3.7081,-3.7393,-3.7939,-3.9493,-3.9664,-4.0002,-4.0823,-4.0888,-4.0888,-4.0888,-4.1283,-4.1692,-4.2157,-4.2634,-4.3069,-4.3497,-4.3497,-4.3532,-4.3513,-4.36,-4.3634,-4.3667,-4.38,-4.3897,-4.3929,-4.3974,-4.4005,-4.4005,-4.4005,-4.4005,-4.4005,-4.4005,-4.4005,-4.4005,-4.4005,-4.4005,-4.4005,-4.4005,-4.4005,-4.4005,-4.4005,-4.4005,-4.4005,-4.4005,-4.4005,-4.4055,-4.4184,-4.4405,-4.4942,-4.648,-4.7084,-4.7402,-4.7956,-4.8338,-4.8514,-4.8192,-4.7911,-4.7717,-4.7717,-4.7717,-4.7759,-4.7861,-4.7819,-4.7699,-4.7511,-4.732,-4.708,-4.6771,-4.6631,-4.6537,-4.6537,-4.6678,-4.6817,-4.6954,-4.7142,-4.7281,-4.7446,-4.753,-4.7919,-4.8605,-4.8605,-4.866,-4.8804,-4.8857,-4.8943,-4.9075,-4.9127,-4.9272,-4.9562,-4.9325,-4.9612,-5.0393,-5.0213,-5.0431,-1.1175,-1.2721,-1.3974,-1.3872,-1.3397,-1.3957,-1.7617,-1.771,-1.7695,-1.9918,-2.1132,-2.2544,-2.5078,-2.8402,-3.1103,-3.2331,-3.3772,-3.5761,-3.8635,-3.9028,-3.9437,-4.0645,-4.0758,-4.0823,-4.0871,-4.0888,-4.0888,-4.0888,-4.1283,-4.1692,-4.2157,-4.2634,-4.3069,-4.3497,-4.3497,-4.3513,-4.3582,-4.3719,-4.3804,-4.3804,-4.3851,-4.3929,-4.4005,-4.4005,-4.4005,-4.4005,-4.4005,-4.4005,-4.4005,-4.4005,-4.4005,-4.4005,-4.4005,-4.4005,-4.4005,-4.4005,-4.4005,-4.4005,-4.4005,-4.4005,-4.4005,-4.4005,-4.4085,-4.4184,-4.4184,-4.4808,-4.5712,-4.6649,-4.7496,-4.8227,-4.8777,-4.8765,-4.8514,-4.8192,-4.7911,-4.7717,-4.7717,-4.7717,-4.7759,-4.7861,-4.7615,-4.7363,-4.7468,-4.6852,-4.6284,-4.6235,-4.5803,-4.5511,-4.5511,-4.6038,-4.6459,-4.6566,-4.7035,-4.7446,-4.7572,-4.7591,-4.7715,-4.7959,-4.7797,-4.7797,-4.7999,-4.8096,-4.8269,-4.8458,-4.8587,-4.9029,-4.9769,-4.9769,-5.0213,-5.1046,-5.0777,-5.1158,-1.1468,-1.3454,-1.5334,-1.507,-1.5637,-1.6671,-1.8556,-1.9654,-2.0369,-2.0404,-2.2054,-2.4302,-2.699,-3.0742,-3.3531,-3.3907,-3.494,-3.6477,-3.8849,-3.9206,-3.961,-4.0776,-4.0888,-4.0888,-4.0888,-4.0888,-4.0888,-4.0888,-4.1283,-4.1561,-4.1778,-4.2198,-4.2537,-4.2693,-4.2995,-4.3196,-4.3232,-4.3649,-4.3851,-4.3851,-4.3929,-4.3974,-4.4005,-4.4005,-4.4005,-4.4005,-4.4005,-4.4005,-4.4005,-4.4005,-4.4005,-4.4005,-4.4005,-4.4005,-4.4005,-4.4005,-4.4005,-4.4005,-4.4005,-4.4005,-4.4005,-4.4104,-4.4153,-4.4214,-4.4285,-4.4934,-4.5739,-4.6452,-4.7292,-4.8114,-4.8803,-4.8802,-4.8514,-4.8192,-4.7911,-4.7717,-4.7717,-4.7759,-4.7759,-4.7572,-4.7468,-4.7276,-4.676,-4.6429,-4.6087,-4.5752,-4.5511,-4.5423,-4.5528,-4.577,-4.5955,-4.6186,-4.6459,-4.6678,-4.6742,-4.6863,-4.6999,-4.7089,-4.753,-4.7901,-4.8212,-4.8251,-4.8584,-4.9251,-4.9307,-4.975,-5.0543,-5.0428,-5.0793,-5.1606,-5.1422,-5.1839,-1.3689,-1.5457,-1.7298,-1.7728,-1.8514,-1.9397,-2.065,-2.1585,-2.2249,-2.2416,-2.3968,-2.6041,-2.8799,-3.1901,-3.4143,-3.4538,-3.5679,-3.7071,-3.8684,-3.9082,-3.9558,-4.05,-4.0758,-4.0888,-4.0888,-4.0888,-4.0888,-4.0888,-4.1163,-4.1356,-4.1472,-4.1821,-4.2115,-4.2257,-4.2655,-4.2884,-4.2921,-4.3303,-4.3529,-4.3545,-4.3712,-4.3892,-4.4005,-4.4005,-4.4005,-4.4005,-4.4005,-4.4005,-4.4005,-4.4005,-4.4005,-4.4005,-4.4005,-4.4005,-4.4005,-4.4005,-4.4005,-4.4005,-4.4005,-4.4036,-4.4085,-4.4184,-4.4214,-4.4285,-4.4354,-4.5084,-4.5978,-4.6395,-4.7248,-4.8131,-4.86,-4.8569,-4.8383,-4.8135,-4.7911,-4.7717,-4.7717,-4.7819,-4.7759,-4.7363,-4.7258,-4.7017,-4.6332,-4.6038,-4.5803,-4.5476,-4.5423,-4.5476,-4.5563,-4.5632,-4.5787,-4.6023,-4.6122,-4.6221,-4.6319,-4.6495,-4.6791,-4.7162,-4.7775,-4.8179,-4.84,-4.844,-4.8882,-4.9884,-4.9884,-5.0288,-5.1114,-5.0991,-5.1499,-5.2566,-5.2541,-5.3023,-1.8138,-1.8986,-2.0056,-2.2045,-2.1618,-2.1456,-2.4283,-2.3388,-2.293,-2.6356,-2.7151,-2.7888,-3.0514,-3.16,-3.2374,-3.3507,-3.5622,-3.7354,-3.8165,-3.8794,-3.9401,-3.9952,-4.0549,-4.0871,-4.0888,-4.0888,-4.0888,-4.0888,-4.0888,-4.1088,-4.1472,-4.1622,-4.1924,-4.2378,-4.2494,-4.2631,-4.2711,-4.2711,-4.2714,-4.2792,-4.3212,-4.3594,-4.3986,-4.4005,-4.4005,-4.4005,-4.4005,-4.4005,-4.4005,-4.4005,-4.4005,-4.4005,-4.4005,-4.4005,-4.3986,-4.3986,-4.4005,-4.4005,-4.4005,-4.4085,-4.4184,-4.4184,-4.4285,-4.4383,-4.4383,-4.5368,-4.6512,-4.648,-4.7522,-4.8514,-4.8192,-4.8114,-4.8114,-4.8114,-4.7911,-4.7717,-4.7717,-4.7819,-4.7759,-4.7363,-4.6954,-4.6566,-4.6235,-4.5752,-4.5423,-4.5423,-4.5423,-4.5476,-4.5581,-4.5718,-4.5922,-4.6172,-4.6172,-4.6319,-4.659,-4.659,-4.7162,-4.8407,-4.8506,-4.8524,-4.8524,-4.8524,-4.9037,-5.0071,-5.009,-5.0488,-5.1321,-5.1474,-5.2363,-5.4009,-5.4162,-5.469,-1.5448,-1.8125,-2.0855,-2.0563,-2.2697,-2.5112,-2.5799,-2.4376,-2.3705,-2.6504,-2.8558,-3.0258,-3.1648,-3.3364,-3.4596,-3.4501,-3.59,-3.7298,-3.8181,-3.8446,-3.8941,-3.9902,-4.017,-4.0434,-4.0871,-4.0888,-4.0888,-4.0888,-4.0888,-4.0965,-4.1198,-4.1244,-4.1363,-4.1534,-4.1966,-4.2175,-4.2198,-4.258,-4.2772,-4.281,-4.2922,-4.3177,-4.3594,-4.3892,-4.4005,-4.4005,-4.4005,-4.4005,-4.4005,-4.4005,-4.4005,-4.4005,-4.4005,-4.3809,-4.3594,-4.3594,-4.3406,-4.3141,-4.3141,-4.3284,-4.3513,-4.3563,-4.3697,-4.386,-4.3873,-4.5004,-4.6181,-4.599,-4.7058,-4.8192,-4.787,-4.7806,-4.7806,-4.7806,-4.7783,-4.7717,-4.7819,-4.7925,-4.7747,-4.6999,-4.6863,-4.6584,-4.5752,-4.5528,-4.5423,-4.5423,-4.5476,-4.5615,-4.5821,-4.5972,-4.6122,-4.6172,-4.6172,-4.6319,-4.659,-4.7293,-4.7954,-4.8443,-4.9225,-4.9639,-4.9639,-4.9639,-5.0063,-5.0923,-5.0923,-5.1656,-5.3126,-5.3226,-5.3827,-5.4984,-5.5137,-5.531,-1.8938,-2.1571,-2.4031,-2.4084,-2.5689,-2.714,-2.7059,-2.6255,-2.6304,-2.8786,-3.0297,-3.1672,-3.3087,-3.4403,-3.5275,-3.534,-3.6275,-3.7254,-3.787,-3.8197,-3.8557,-3.9246,-3.9542,-3.9919,-4.05,-4.0549,-4.0662,-4.0871,-4.0935,-4.0982,-4.1111,-4.1186,-4.1261,-4.1272,-4.164,-4.1839,-4.1839,-4.2157,-4.232,-4.232,-4.2501,-4.2696,-4.2959,-4.3336,-4.3508,-4.3508,-4.3508,-4.3508,-4.3508,-4.3508,-4.3508,-4.3508,-4.3508,-4.3371,-4.3177,-4.3177,-4.3087,-4.2958,-4.2958,-4.3124,-4.3375,-4.3426,-4.3511,-4.3664,-4.3679,-4.4736,-4.5919,-4.5736,-4.6773,-4.7911,-4.7741,-4.7717,-4.7699,-4.7759,-4.7759,-4.7801,-4.7925,-4.7847,-4.7603,-4.6845,-4.6678,-4.6363,-4.5563,-4.5423,-4.5423,-4.5476,-4.5632,-4.5838,-4.5972,-4.6122,-4.6172,-4.6172,-4.6403,-4.666,-4.721,-4.8016,-4.8793,-4.9577,-5.02,-5.085,-5.1484,-5.0904,-5.1104,-5.2226,-5.2245,-5.2925,-5.4335,-5.4437,-5.4976,-5.5853,-5.5743,-5.5907,-2.5371,-2.6898,-2.8246,-3.0114,-2.9359,-2.8021,-2.8021,-2.8512,-2.9601,-3.1915,-3.2074,-3.2362,-3.4438,-3.4817,-3.51,-3.5991,-3.6662,-3.7163,-3.7405,-3.787,-3.8238,-3.8278,-3.881,-3.9348,-3.9902,-3.9952,-4.022,-4.0776,-4.0888,-4.0935,-4.1,-4.1198,-4.1318,-4.1318,-4.1498,-4.1604,-4.1604,-4.1604,-4.1604,-4.1604,-4.1984,-4.2133,-4.2175,-4.2619,-4.281,-4.281,-4.281,-4.281,-4.281,-4.281,-4.281,-4.281,-4.281,-4.2772,-4.2772,-4.2772,-4.2921,-4.3087,-4.3087,-4.3286,-4.3511,-4.3511,-4.3545,-4.3612,-4.3612,-4.458,-4.5661,-4.5661,-4.6652,-4.7717,-4.7717,-4.7717,-4.7759,-4.7819,-4.7861,-4.7902,-4.797,-4.7705,-4.732,-4.6753,-4.6411,-4.6038,-4.5459,-4.5423,-4.5476,-4.5615,-4.5821,-4.5972,-4.6023,-4.6073,-4.614,-4.6227,-4.6586,-4.7227,-4.8057,-4.8622,-4.9581,-5.1138,-5.1311,-5.2033,-5.3568,-5.2271,-5.2226,-5.3784,-5.382,-5.4277,-5.5116,-5.5257,-5.5816,-5.674,-5.6225,-5.641,-2.0156,-2.3591,-2.7127,-2.7628,-2.8427,-2.9045,-2.8876,-2.8426,-2.8378,-2.9606,-3.1884,-3.3837,-3.4206,-3.5073,-3.5737,-3.5816,-3.6461,-3.7044,-3.7121,-3.7405,-3.7844,-3.8238,-3.8662,-3.9098,-3.9645,-3.9714,-3.9868,-4.0221,-3.985,-3.9765,-4.0053,-4.0417,-4.0659,-4.0784,-4.13,-4.1604,-4.1604,-4.1604,-4.1604,-4.1604,-4.1675,-4.1719,-4.1744,-4.2462,-4.281,-4.281,-4.281,-4.281,-4.281,-4.281,-4.281,-4.281,-4.281,-4.2619,-4.236,-4.2519,-4.2418,-4.221,-4.2432,-4.2631,-4.2824,-4.2824,-4.292,-4.3069,-4.3069,-4.4158,-4.537,-4.537,-4.649,-4.7717,-4.7717,-4.7759,-4.7759,-4.7511,-4.7657,-4.7861,-4.7639,-4.7554,-4.7258,-4.6459,-4.6235,-4.6038,-4.5459,-4.5476,-4.5632,-4.5871,-4.5701,-4.5701,-4.6122,-4.5563,-4.5526,-4.6482,-4.6477,-4.6805,-4.7717,-4.8608,-4.9608,-5.0735,-5.1423,-5.2183,-5.3119,-5.3185,-5.3639,-5.4617,-5.4694,-5.5153,-5.6077,-5.6218,-5.6795,-5.7694,-5.7128,-5.6935,-2.2312,-2.5092,-2.7584,-2.859,-2.9449,-3.005,-3.0037,-2.9484,-2.9213,-2.9732,-3.1282,-3.2778,-3.3919,-3.461,-3.5219,-3.5623,-3.6085,-3.6414,-3.66,-3.6785,-3.7058,-3.7504,-3.7488,-3.7806,-3.8887,-3.8761,-3.8941,-3.9627,-3.9454,-3.9437,-3.9783,-4.0053,-4.0302,-4.0497,-4.0849,-4.1007,-4.1007,-4.1007,-4.1007,-4.1007,-4.1007,-4.1117,-4.1318,-4.1966,-4.2257,-4.2257,-4.2257,-4.2257,-4.2257,-4.2257,-4.2257,-4.2257,-4.2257,-4.2175,-4.2068,-4.2175,-4.2234,-4.2269,-4.2409,-4.257,-4.2709,-4.2494,-4.2476,-4.2537,-4.232,-4.353,-4.497,-4.497,-4.6284,-4.7699,-4.7759,-4.7657,-4.7511,-4.7407,-4.7572,-4.7615,-4.7302,-4.7035,-4.676,-4.6284,-4.5988,-4.5752,-4.5528,-4.5667,-4.577,-4.5701,-4.5752,-4.5752,-4.5632,-4.5682,-4.5954,-4.6439,-4.6923,-4.7626,-4.882,-4.9617,-5.0567,-5.171,-5.2187,-5.2765,-5.3519,-5.3851,-5.4221,-5.4633,-5.4719,-5.5199,-5.6284,-5.6568,-5.6884,-5.7184,-5.6446,-5.5989,-2.5365,-2.7252,-2.8427,-3.0469,-3.0849,-3.0698,-3.0672,-3.0432,-3.0203,-3.0444,-3.0594,-3.1349,-3.3283,-3.3782,-3.4192,-3.5204,-3.5415,-3.5608,-3.607,-3.6133,-3.6336,-3.6585,-3.6305,-3.6631,-3.8051,-3.7879,-3.8067,-3.9152,-3.9242,-3.9332,-3.9629,-3.98,-4.0003,-4.0203,-4.0351,-4.04,-4.04,-4.04,-4.04,-4.04,-4.04,-4.0563,-4.0913,-4.1255,-4.1453,-4.1604,-4.1604,-4.1604,-4.1604,-4.1604,-4.1604,-4.1648,-4.1542,-4.1675,-4.1831,-4.1788,-4.2002,-4.2333,-4.2414,-4.2516,-4.2577,-4.2198,-4.2074,-4.2032,-4.1613,-4.29,-4.4484,-4.4484,-4.5907,-4.7468,-4.7615,-4.732,-4.7062,-4.7214,-4.7276,-4.7169,-4.6863,-4.6459,-4.6186,-4.6087,-4.5701,-4.5476,-4.5632,-4.577,-4.5803,-4.5494,-4.5701,-4.5667,-4.5135,-4.5826,-4.6395,-4.6559,-4.7495,-4.872,-5.0126,-5.0728,-5.1545,-5.2805,-5.2898,-5.3265,-5.405,-5.4227,-5.4285,-5.4343,-5.4574,-5.5136,-5.6108,-5.642,-5.6436,-5.6098,-5.5169,-5.4487,-2.1498,-2.4744,-2.8349,-3.0254,-3.0698,-3.0457,-2.9561,-2.9316,-2.9316,-2.9537,-3.0657,-3.1636,-3.1796,-3.2478,-3.3255,-3.3919,-3.4327,-3.4795,-3.5688,-3.6006,-3.6211,-3.6274,-3.6554,-3.7011,-3.7648,-3.7796,-3.8286,-3.9202,-3.8821,-3.8639,-3.8898,-3.9295,-3.9489,-3.9525,-4.0103,-4.04,-4.04,-4.04,-4.04,-4.04,-4.04,-4.0449,-4.0497,-4.0563,-4.0943,-4.1604,-4.1604,-4.1604,-4.1604,-4.1604,-4.1675,-4.1831,-4.1391,-4.1408,-4.1604,-4.1391,-4.1328,-4.1418,-4.1604,-4.1656,-4.1656,-4.1613,-4.1569,-4.1569,-4.1525,-4.2615,-4.3909,-4.3909,-4.5158,-4.6501,-4.6501,-4.666,-4.666,-4.6266,-4.6284,-4.6381,-4.6332,-4.6235,-4.6038,-4.5615,-4.5511,-4.5667,-4.5922,-4.5701,-4.5494,-4.558,-4.4998,-4.4851,-4.5759,-4.5361,-4.5637,-4.7411,-4.8141,-4.8841,-4.9852,-5.0706,-5.1498,-5.234,-5.2391,-5.2748,-5.3547,-5.3744,-5.3874,-5.4068,-5.5244,-5.5946,-5.6108,-5.558,-5.5312,-5.5259,-5.3934,-5.3321,-2.283,-2.6381,-2.9555,-3.1093,-3.1381,-3.1084,-3.0343,-2.996,-2.9883,-3.0114,-3.0722,-3.132,-3.1723,-3.2132,-3.2706,-3.3353,-3.3905,-3.4447,-3.4743,-3.5299,-3.5703,-3.5879,-3.5864,-3.6102,-3.6921,-3.7087,-3.7488,-3.8157,-3.8017,-3.7943,-3.8286,-3.8479,-3.8629,-3.8778,-3.9454,-3.9799,-3.9799,-3.9799,-3.9799,-3.9799,-4.0003,-4.0104,-4.0104,-4.0319,-4.0594,-4.0913,-4.0913,-4.096,-4.1024,-4.1024,-4.1163,-4.1318,-4.1088,-4.118,-4.1363,-4.1255,-4.1265,-4.1383,-4.1499,-4.1481,-4.1437,-4.1185,-4.1094,-4.1065,-4.0784,-4.1981,-4.3436,-4.3485,-4.4874,-4.6358,-4.6501,-4.6424,-4.6249,-4.6137,-4.5955,-4.5752,-4.5752,-4.5752,-4.5701,-4.5511,-4.5667,-4.5871,-4.5972,-4.5701,-4.5424,-4.5249,-4.4872,-4.4812,-4.5211,-4.5932,-4.6854,-4.8051,-4.9228,-5.0301,-5.1172,-5.1575,-5.2147,-5.2926,-5.2976,-5.3195,-5.3584,-5.3783,-5.3775,-5.3477,-5.4547,-5.4912,-5.457,-5.4596,-5.419,-5.3484,-5.2786,-5.2267,-2.3683,-2.6703,-2.8907,-3.0874,-3.1288,-3.1206,-3.1246,-3.0885,-3.0596,-3.0773,-3.0773,-3.0973,-3.1663,-3.1809,-3.1942,-3.2648,-3.3199,-3.3685,-3.407,-3.4572,-3.5052,-3.5509,-3.5249,-3.5394,-3.6352,-3.6477,-3.6768,-3.7342,-3.7401,-3.7519,-3.7754,-3.7754,-3.7911,-3.8294,-3.8788,-3.9023,-3.9023,-3.8898,-3.8898,-3.9023,-3.9329,-3.9556,-3.9746,-3.9986,-4.012,-4.017,-4.0368,-4.0514,-4.0611,-4.0645,-4.0789,-4.0965,-4.0823,-4.0901,-4.11,-4.096,-4.1036,-4.1139,-4.1139,-4.1139,-4.1094,-4.0754,-4.0628,-4.058,-4.0221,-4.1443,-4.2961,-4.3061,-4.4501,-4.6084,-4.628,-4.6052,-4.5887,-4.5988,-4.5701,-4.5423,-4.5423,-4.5476,-4.5528,-4.5667,-4.5871,-4.5972,-4.5922,-4.5632,-4.5249,-4.4818,-4.4805,-4.4913,-4.5053,-4.6742,-4.8197,-4.8765,-5.0303,-5.1545,-5.2249,-5.2486,-5.2858,-5.3467,-5.3568,-5.3618,-5.3717,-5.3727,-5.3545,-5.3107,-5.3467,-5.3507,-5.3115,-5.3304,-5.2903,-5.1908,-5.1655,-5.1233,-2.1539,-2.2843,-2.4598,-2.8336,-2.9362,-2.9973,-3.1636,-3.1468,-3.0986,-3.0986,-3.0986,-3.0986,-3.1061,-3.0911,-3.0973,-3.1516,-3.1649,-3.2218,-3.3865,-3.4153,-3.4423,-3.5148,-3.5359,-3.5683,-3.6148,-3.6305,-3.6662,-3.737,-3.7429,-3.7429,-3.7429,-3.7429,-3.7706,-3.8278,-3.8351,-3.8351,-3.8351,-3.7764,-3.778,-3.8351,-3.8351,-3.8717,-3.9325,-3.9325,-3.9432,-3.959,-4.0303,-4.058,-4.0628,-4.0823,-4.0995,-4.1163,-4.071,-4.0645,-4.0754,-4.0303,-4.0171,-4.0171,-4.0171,-4.0171,-4.0171,-4.0121,-4.0121,-4.0121,-4.0138,-4.1257,-4.2533,-4.2533,-4.3835,-4.5283,-4.5283,-4.5353,-4.5423,-4.5423,-4.5423,-4.5423,-4.5581,-4.5581,-4.5684,-4.5922,-4.5972,-4.5922,-4.5632,-4.5249,-4.4801,-4.4406,-4.4532,-4.5025,-4.5913,-4.7358,-4.8671,-4.9698,-5.1142,-5.2084,-5.23,-5.301,-5.3467,-5.3501,-5.3601,-5.37,-5.37,-5.3344,-5.3124,-5.3089,-5.2561,-5.2321,-5.227,-5.1563,-5.12,-5.1149,-5.0407,-5.012,-2.2409,-2.3318,-2.4241,-2.6921,-2.8451,-2.9247,-2.9349,-3.0253,-3.0986,-3.0986,-3.0986,-3.0986,-3.0986,-3.0911,-3.0986,-3.111,-3.1603,-3.2074,-3.272,-3.363,-3.4327,-3.461,-3.5133,-3.5569,-3.5733,-3.6133,-3.6492,-3.6723,-3.6784,-3.6784,-3.6784,-3.6784,-3.6845,-3.7055,-3.7472,-3.7706,-3.7706,-3.7546,-3.7546,-3.7706,-3.8108,-3.8463,-3.8827,-3.9255,-3.9484,-3.9642,-3.9969,-4.0171,-4.0171,-4.0238,-4.037,-4.05,-4.032,-4.0271,-4.0353,-4.0171,-4.007,-4.007,-4.007,-4.007,-4.007,-4.007,-4.007,-4.0138,-4.0188,-4.1308,-4.2533,-4.2792,-4.3974,-4.5247,-4.53,-4.5353,-4.5423,-4.5423,-4.5423,-4.5476,-4.5667,-4.5718,-4.577,-4.5972,-4.6073,-4.6023,-4.5632,-4.5196,-4.4746,-4.435,-4.4523,-4.5197,-4.6595,-4.8155,-4.972,-5.1159,-5.2336,-5.3011,-5.3078,-5.3331,-5.3568,-5.3601,-5.3651,-5.3545,-5.3327,-5.3163,-5.2705,-5.1804,-5.1589,-5.1511,-5.1511,-5.1235,-5.0873,-5.039,-5.0131,-5.0206,-2.202,-2.2765,-2.3509,-2.5459,-2.6978,-2.8174,-2.8811,-2.9948,-3.1009,-3.132,-3.1408,-3.1259,-3.1061,-3.0986,-3.0986,-3.0986,-3.1394,-3.1809,-3.2087,-3.2918,-3.3685,-3.3891,-3.4409,-3.4721,-3.4721,-3.5335,-3.5706,-3.5706,-3.5928,-3.6085,-3.6085,-3.6085,-3.6196,-3.6368,-3.6845,-3.7071,-3.7131,-3.6951,-3.6951,-3.7251,-3.7648,-3.7994,-3.8294,-3.8733,-3.9131,-3.9451,-3.9556,-3.9729,-3.9901,-3.9935,-4.0037,-4.007,-4.007,-4.007,-4.007,-4.007,-4.007,-4.007,-4.007,-4.007,-4.007,-4.007,-4.0121,-4.0188,-4.0288,-4.1443,-4.2723,-4.2929,-4.4096,-4.53,-4.5371,-4.5423,-4.5423,-4.5423,-4.5423,-4.5528,-4.5718,-4.577,-4.5871,-4.6023,-4.6023,-4.5854,-4.5459,-4.4981,-4.4626,-4.4457,-4.503,-4.6051,-4.7471,-4.9254,-5.0875,-5.2017,-5.296,-5.3501,-5.3501,-5.3501,-5.3551,-5.37,-5.3707,-5.3587,-5.3383,-5.2944,-5.2362,-5.1643,-5.1228,-5.1106,-5.1242,-5.1106,-5.0749,-5.0246,-5.0453,-5.0712,0.0,0.0,0.0,-2.387,-2.505,-2.6606,-2.9909,-3.0686,-3.0952,-3.1842,-3.2001,-3.1809,-3.1123,-3.0986,-3.0986,-3.0986,-3.0986,-3.1259,-3.2015,-3.2074,-3.2362,-3.3073,-3.3213,-3.3213,-3.3213,-3.3905,-3.4312,-3.4312,-3.5052,-3.5504,-3.5504,-3.5504,-3.5797,-3.6368,-3.6368,-3.6492,-3.6677,-3.6054,-3.6117,-3.689,-3.689,-3.7266,-3.7886,-3.7886,-3.8327,-3.8974,-3.8974,-3.9329,-3.9901,-4.0037,-4.007,-4.007,-4.007,-4.007,-4.007,-4.007,-4.007,-4.007,-4.0121,-4.0138,-4.0138,-4.0121,-4.0188,-4.0305,-4.0322,-4.1579,-4.298,-4.3048,-4.4182,-4.5423,-4.5423,-4.5423,-4.5423,-4.5423,-4.5528,-4.5615,-4.5787,-4.5838,-4.5871,-4.6122,-4.5854,-4.5477,-4.4964,-4.4558,-4.4373,-4.4633,-4.6134,-4.7538,-4.8416,-5.0623,-5.2135,-5.2334,-5.3044,-5.3501,-5.3501,-5.3501,-5.3551,-5.3717,-5.3701,-5.3739,-5.3864,-5.2604,-5.2182,-5.2674,-5.1423,-5.1052,-5.1601,-5.107,-5.0803,-5.0857,-5.1365,-5.1601,-2.0817,0.0,0.0,0.0,0.0,0.0,-2.5859,-2.729,-2.8724,-3.0037,-3.0367,-3.0456,-3.0898,-3.0986,-3.0986,-3.0986,-3.0986,-3.1259,-3.2015,-3.2074,-3.2362,-3.3073,-3.3213,-3.3422,-3.3973,-3.4177,-3.4528,-3.5133,-3.5359,-3.5554,-3.5638,-3.5782,-3.591,-3.6085,-3.6085,-3.6148,-3.6211,-3.6022,-3.6022,-3.6258,-3.6662,-3.7071,-3.731,-3.7796,-3.8214,-3.8518,-3.8974,-3.9259,-3.9435,-3.9918,-4.007,-4.007,-4.007,-4.007,-4.007,-4.007,-4.007,-4.0121,-4.0188,-4.0238,-4.0238,-4.0387,-4.0436,-4.0588,-4.1167,-4.214,-4.3133,-4.3769,-4.4904,-4.6005,-4.6005,-4.5752,-4.5511,-4.5511,-4.5632,-4.577,-4.5922,-4.5922,-4.5972,-4.6172,-4.5854,-4.5477,-4.4964,-4.4558,-4.4373,-4.4633,-4.6134,-4.7721,-4.9086,-5.0942,-5.2337,-5.3112,-5.3365,-5.3501,-5.3501,-5.3501,-5.3618,-5.3915,-5.378,-5.3554,-5.3269,-5.2748,-5.2287,-5.1889,-5.1574,-5.1449,-5.1601,-5.1467,-5.1365,-5.1416,-5.1915,-5.2155,-2.1275,-2.1275,-2.1275,-2.1275,0.0,0.0,-2.5733,-2.7267,-2.888,-3.0768,-3.1167,-3.1119,-3.1048,-3.1259,-3.1334,-3.1061,-3.1061,-3.1272,-3.1603,-3.1676,-3.1809,-3.2318,-3.239,-3.2733,-3.3561,-3.3905,-3.4394,-3.5198,-3.5539,-3.5604,-3.535,-3.5494,-3.5559,-3.5559,-3.5559,-3.5703,-3.6085,-3.6085,-3.6163,-3.6226,-3.6569,-3.6738,-3.686,-3.7222,-3.7637,-3.7953,-3.8574,-3.8974,-3.9259,-3.985,-4.007,-4.007,-4.007,-4.007,-4.007,-4.007,-4.0138,-4.0188,-4.0288,-4.0355,-4.0387,-4.0485,-4.0534,-4.0737,-4.1572,-4.2395,-4.3219,-4.4061,-4.5077,-4.5905,-4.5955,-4.577,-4.5615,-4.5667,-4.5787,-4.5922,-4.5972,-4.5922,-4.5871,-4.5905,-4.5752,-4.5424,-4.4763,-4.4716,-4.5001,-4.5635,-4.7174,-4.8754,-5.0423,-5.1799,-5.2859,-5.345,-5.3501,-5.3501,-5.3501,-5.3501,-5.3615,-5.3868,-5.3686,-5.3461,-5.3247,-5.2791,-5.2461,-5.2268,-5.206,-5.206,-5.2268,-5.206,-5.206,-5.2268,-5.2608,-5.2717,-2.183,-2.182,-2.182,-2.182,-2.2853,0.0,-2.7399,-2.8631,-2.9706,-3.2078,-3.2536,-3.2191,-3.0947,-3.122,-3.1489,-3.081,-3.096,-3.1198,-3.1123,-3.1136,-3.1123,-3.1421,-3.1421,-3.1703,-3.2704,-3.3311,-3.3988,-3.481,-3.5429,-3.5494,-3.4876,-3.481,-3.481,-3.481,-3.4876,-3.5335,-3.607,-3.6196,-3.6336,-3.6492,-3.6492,-3.6492,-3.6492,-3.6492,-3.6785,-3.7358,-3.7953,-3.8574,-3.9152,-3.9799,-4.007,-4.007,-4.007,-4.0138,-4.0138,-4.0138,-4.0188,-4.0337,-4.0355,-4.0436,-4.0534,-4.0534,-4.07,-4.0954,-4.1709,-4.2582,-4.3508,-4.4301,-4.4941,-4.5476,-4.5615,-4.5667,-4.5667,-4.577,-4.5922,-4.6023,-4.5972,-4.5803,-4.5632,-4.5477,-4.5477,-4.5213,-4.4406,-4.4875,-4.5764,-4.6991,-4.857,-5.0221,-5.1866,-5.2943,-5.3501,-5.3501,-5.3501,-5.3501,-5.3501,-5.3551,-5.3656,-5.3688,-5.3532,-5.3458,-5.3508,-5.2824,-5.2717,-5.3206,-5.2717,-5.2717,-5.3206,-5.2717,-5.2717,-5.3206,-5.3206,-5.3206,-2.2451,-2.2627,-2.2627,-2.2627,-2.3212,0.0,-2.4555,-2.5262,-2.6295,-2.7992,-2.8402,-2.8481,-2.8821,-2.9045,-2.9032,-2.89,-2.9679,-3.0683,-3.1982,-3.173,-3.173,-3.2345,-3.1936,-3.2082,-3.3451,-3.3185,-3.3451,-3.481,-3.461,-3.4423,-3.4274,-3.4394,-3.4447,-3.4447,-3.4993,-3.54,-3.5529,-3.6148,-3.6492,-3.6492,-3.6492,-3.6492,-3.6492,-3.6492,-3.6554,-3.6723,-3.7282,-3.7969,-3.8668,-3.9279,-3.9782,-4.007,-4.007,-4.0188,-4.0238,-4.0238,-4.0337,-4.0485,-4.0583,-4.0648,-4.0697,-4.0793,-4.1237,-4.1874,-4.2699,-4.3475,-4.4318,-4.5501,-4.5699,-4.5667,-4.6154,-4.6055,-4.5922,-4.5972,-4.6073,-4.6073,-4.5752,-4.5905,-4.5803,-4.4725,-4.4575,-4.4519,-4.431,-4.4758,-4.5584,-4.6991,-4.8714,-5.0385,-5.1932,-5.2943,-5.3501,-5.3501,-5.3501,-5.3501,-5.3501,-5.3946,-5.408,-5.3748,-5.3955,-5.3922,-5.3508,-5.3225,-5.3103,-5.3206,-5.3121,-5.3121,-5.3206,-5.3103,-5.3121,-5.3206,-5.3206,-5.3206,-2.2176,-2.2264,-2.2264,-2.2264,-2.3038,0.0,0.0,-2.4999,-2.5964,-2.7544,-2.7601,-2.7532,-2.8255,-2.8183,-2.8068,-2.8335,-2.9098,-3.0025,-3.1206,-3.1495,-3.1743,-3.2228,-3.195,-3.2228,-3.3367,-3.3157,-3.3437,-3.4528,-3.4327,-3.4056,-3.3644,-3.3699,-3.3768,-3.3768,-3.4109,-3.4514,-3.4846,-3.5593,-3.5943,-3.5943,-3.6352,-3.6554,-3.66,-3.66,-3.6677,-3.68,-3.7373,-3.787,-3.8254,-3.8865,-3.9418,-3.9885,-4.0171,-4.0337,-4.0387,-4.0387,-4.0485,-4.06,-4.0697,-4.0745,-4.0844,-4.1319,-4.1681,-4.2199,-4.3371,-4.4251,-4.4975,-4.5699,-4.577,-4.5667,-4.6122,-4.6122,-4.6023,-4.6073,-4.6023,-4.5854,-4.5632,-4.5424,-4.5052,-4.4406,-4.4138,-4.3964,-4.3964,-4.5001,-4.6284,-4.7651,-4.9332,-5.1023,-5.2589,-5.3197,-5.3501,-5.3501,-5.3501,-5.3501,-5.3501,-5.4059,-5.4139,-5.3549,-5.4011,-5.4025,-5.3399,-5.3262,-5.3206,-5.3206,-5.3206,-5.3206,-5.3206,-5.3206,-5.3206,-5.3206,-5.3206,-5.3206,-2.182,-2.1909,-2.1909,-2.1909,-2.2853,-2.3922,0.0,0.0,0.0,-2.737,-2.7163,-2.6944,-2.7406,-2.7152,-2.6909,-2.737,-2.8124,-2.8856,-2.9272,-3.0405,-3.1434,-3.189,-3.1963,-3.2286,-3.3157,-3.3213,-3.3422,-3.3837,-3.3905,-3.3644,-3.303,-3.303,-3.303,-3.3087,-3.3227,-3.363,-3.4312,-3.5059,-3.54,-3.54,-3.6085,-3.6476,-3.6585,-3.6723,-3.6862,-3.7015,-3.7508,-3.7828,-3.8001,-3.8455,-3.9028,-3.9714,-4.0154,-4.0419,-4.0534,-4.0534,-4.0631,-4.0762,-4.0899,-4.0999,-4.1216,-4.1974,-4.2319,-4.2681,-4.4078,-4.4941,-4.5476,-4.5581,-4.5632,-4.5736,-4.5922,-4.5972,-4.5972,-4.6073,-4.5752,-4.5459,-4.5372,-4.4835,-4.435,-4.4196,-4.3964,-4.373,-4.3628,-4.5403,-4.7214,-4.8346,-5.0068,-5.1813,-5.3331,-5.3501,-5.3501,-5.3501,-5.3501,-5.3568,-5.3668,-5.4218,-5.4294,-5.3565,-5.411,-5.4121,-5.3237,-5.3206,-5.3206,-5.3206,-5.3206,-5.3206,-5.3206,-5.3272,-5.3272,-5.3206,-5.3272,-5.3318,-2.2255,-2.2715,-2.2715,-2.2715,-2.3212,-2.3714,-2.3193,0.0,-2.4125,-2.4276,0.0,-2.4276,-2.4286,0.0,0.0,-2.3856,-2.5398,-2.6481,-2.5788,-2.8144,-3.0482,-3.2023,-3.2182,-3.2444,-3.3157,-3.3213,-3.296,-3.2444,-3.2444,-3.2372,-3.2314,-3.23,-3.2444,-3.2761,-3.3381,-3.3934,-3.4356,-3.5073,-3.54,-3.54,-3.5943,-3.6258,-3.6258,-3.6739,-3.6999,-3.6999,-3.706,-3.7449,-3.81,-3.8173,-3.8903,-3.9952,-3.9765,-4.0087,-4.0697,-4.0697,-4.0745,-4.0974,-4.163,-4.1854,-4.1992,-4.2768,-4.3525,-4.4182,-4.5027,-4.5407,-4.5581,-4.5581,-4.577,-4.5972,-4.5972,-4.5803,-4.5632,-4.5632,-4.5302,-4.4855,-4.4502,-4.4652,-4.458,-4.3848,-4.4064,-4.4236,-4.3671,-4.5657,-4.7591,-4.8349,-5.0601,-5.2503,-5.3382,-5.3501,-5.3501,-5.3501,-5.3501,-5.3734,-5.4218,-5.4956,-5.503,-5.4235,-5.4876,-5.4637,-5.328,-5.3206,-5.3206,-5.3206,-5.3206,-5.3206,-5.3206,-5.3502,-5.3502,-5.3206,-5.3484,-5.3663,-2.1159,-2.1347,-2.1436,-2.1998,-2.2227,-2.2296,-2.2167,-2.2696,-2.3222,-2.3222,0.0,0.0,0.0,0.0,0.0,0.0,-2.4724,-2.5489,-2.5645,-2.7324,-2.8827,-2.9514,-3.0506,-3.1381,-3.2015,-3.2015,-3.216,-3.2431,-3.22,-3.22,-3.2789,-3.286,-3.2931,-3.3058,-3.3325,-3.3604,-3.3756,-3.4491,-3.4824,-3.4824,-3.5464,-3.5943,-3.6352,-3.6616,-3.6938,-3.7301,-3.7301,-3.7464,-3.7743,-3.7743,-3.8513,-3.9655,-3.9545,-4.0048,-4.0892,-4.1323,-4.1478,-4.163,-4.2406,-4.2681,-4.2802,-4.3561,-4.4337,-4.4992,-4.5372,-4.5581,-4.5632,-4.577,-4.577,-4.5649,-4.5752,-4.5477,-4.5178,-4.5178,-4.4872,-4.4502,-4.435,-4.4236,-4.4047,-4.3671,-4.3923,-4.4231,-4.4371,-4.6146,-4.7833,-4.8589,-5.075,-5.2587,-5.3399,-5.3501,-5.3501,-5.3501,-5.3832,-5.4106,-5.4391,-5.5432,-5.558,-5.4407,-5.4163,-5.3861,-5.3243,-5.3206,-5.3206,-5.3206,-5.34,-5.3502,-5.3484,-5.3889,-5.3999,-5.3833,-5.4033,-5.4137,-1.9679,-2.0059,-2.0529,-2.1463,-2.1338,-2.1042,-2.1266,-2.1535,-2.1793,-2.2069,-2.1722,0.0,0.0,0.0,-2.2227,-2.3315,0.0,-2.4544,-2.4945,-2.6173,-2.7209,-2.7681,-2.8995,-3.0139,-3.0581,-3.0833,-3.1502,-3.2605,-3.216,-3.2376,-3.3451,-3.3409,-3.3339,-3.3409,-3.3409,-3.3479,-3.3632,-3.4099,-3.4385,-3.4385,-3.5023,-3.5623,-3.6163,-3.6414,-3.68,-3.7285,-3.7508,-3.7737,-3.7927,-3.8003,-3.8798,-3.9935,-3.9935,-4.0484,-4.1366,-4.1848,-4.2037,-4.214,-4.2962,-4.3271,-4.3354,-4.3883,-4.45,-4.5015,-4.5123,-4.523,-4.5389,-4.5598,-4.5477,-4.5319,-4.5354,-4.5089,-4.4763,-4.4763,-4.439,-4.4138,-4.4138,-4.3848,-4.3628,-4.3628,-4.3822,-4.4173,-4.495,-4.6713,-4.8276,-4.8971,-5.1088,-5.2841,-5.3433,-5.3501,-5.3501,-5.3501,-5.4059,-5.4499,-5.4668,-5.5851,-5.6039,-5.4755,-5.3744,-5.3206,-5.3206,-5.3314,-5.3336,-5.3336,-5.37,-5.3851,-5.387,-5.4262,-5.443,-5.443,-5.4509,-5.4585,-1.8241,-1.9472,-2.0529,-2.1463,-2.0988,-2.0339,-2.0339,-1.9613,-1.9155,-2.0158,-2.0339,-2.0709,-2.1909,-2.2097,-2.2054,-2.1911,-2.2785,0.0,0.0,-2.406,-2.5902,-2.7521,-2.85,-2.9073,-2.9073,-3.0037,-3.118,-3.2536,-3.2304,-3.2676,-3.3891,-3.352,-3.3479,-3.377,-3.377,-3.3991,-3.4346,-3.4414,-3.4414,-3.4414,-3.4986,-3.5234,-3.5299,-3.6274,-3.6723,-3.6785,-3.7535,-3.827,-3.8985,-3.9311,-4.0181,-4.1319,-4.1319,-4.171,-4.2252,-4.2236,-4.2165,-4.2284,-4.3064,-4.3367,-4.3505,-4.3522,-4.3748,-4.403,-4.403,-4.4373,-4.4708,-4.4763,-4.4818,-4.491,-4.491,-4.4597,-4.4293,-4.4293,-4.3964,-4.3628,-4.3628,-4.3628,-4.3628,-4.3628,-4.3864,-4.4332,-4.5051,-4.7194,-4.8988,-4.9776,-5.1947,-5.3467,-5.3501,-5.3501,-5.3501,-5.3501,-5.4154,-5.4818,-5.5396,-5.6331,-5.6514,-5.5621,-5.4087,-5.3206,-5.3206,-5.3524,-5.3682,-5.3682,-5.4088,-5.4262,-5.4262,-5.4623,-5.4776,-5.4776,-5.4847,-5.4933,-1.6591,-1.7554,-1.8696,-2.0348,-1.9521,-1.8696,-1.9977,-1.9521,-1.9063,-2.0068,-2.043,-2.0791,-2.1909,-2.2185,-2.2306,-2.2436,-2.2795,-2.3008,0.0,-2.4053,-2.5136,-2.567,-2.7463,-2.8827,-2.9347,-3.0654,-3.2019,-3.3297,-3.3269,-3.3478,-3.4235,-3.4113,-3.4059,-3.4196,-3.4196,-3.4264,-3.4414,-3.4414,-3.4414,-3.4414,-3.4601,-3.4854,-3.5234,-3.5672,-3.6298,-3.7059,-3.7406,-3.823,-3.934,-3.9463,-4.0305,-4.1553,-4.1553,-4.1907,-4.2565,-4.287,-4.2976,-4.3078,-4.3859,-4.4097,-4.4128,-4.4128,-4.4259,-4.4333,-4.4429,-4.4597,-4.4708,-4.4801,-4.4652,-4.4502,-4.4502,-4.4179,-4.3848,-4.3848,-4.3747,-4.3628,-4.3628,-4.3628,-4.3628,-4.3628,-4.3864,-4.4482,-4.5704,-4.7608,-4.9193,-4.9919,-5.2046,-5.3501,-5.3501,-5.3832,-5.4124,-5.4124,-5.5154,-5.5964,-5.613,-5.6006,-5.5806,-5.5611,-5.4285,-5.3524,-5.3524,-5.3907,-5.4088,-5.4088,-5.4463,-5.4623,-5.4623,-5.5009,-5.5187,-5.5214,-5.5341,-5.5393,-1.4607,-1.5475,0.0,-1.874,-1.7925,-1.721,-1.888,-1.8419,-1.8048,-1.9063,-1.9695,-2.0413,-2.1526,-2.2167,-2.2618,-2.2882,-2.2882,-2.2969,0.0,-2.4467,-2.5136,-2.4553,-2.6685,-2.8657,-2.9694,-3.0839,-3.228,-3.4134,-3.3862,-3.3959,-3.4787,-3.4668,-3.4616,-3.4616,-3.4616,-3.4616,-3.4616,-3.4616,-3.4616,-3.4534,-3.4317,-3.4636,-3.5459,-3.5481,-3.6184,-3.7375,-3.7751,-3.8587,-3.9676,-3.9787,-4.0515,-4.1532,-4.1532,-4.182,-4.2285,-4.3149,-4.3457,-4.3524,-4.3994,-4.403,-4.3798,-4.3839,-4.3898,-4.403,-4.4071,-4.4202,-4.4333,-4.4429,-4.4276,-4.408,-4.408,-4.3848,-4.3628,-4.3628,-4.3628,-4.3628,-4.3628,-4.3628,-4.3628,-4.3628,-4.3864,-4.4566,-4.6039,-4.7821,-4.934,-5.0338,-5.2215,-5.3501,-5.3501,-5.3994,-5.4391,-5.4391,-5.568,-5.6722,-5.7,-5.6191,-5.5693,-5.5797,-5.4591,-5.3888,-5.3888,-5.4296,-5.4463,-5.4463,-5.4825,-5.499,-5.499,-5.532,-5.5465,-5.549,-5.5711,-5.5769]}]]